[[{"header":{"parameterUnit":"m.s-1","parameterCategory":1,"la1":31.0,"la2":29.5877,"lo1":-88.7671,"lo2":-86.6584,"dx":0.0162,"dy":0.0185,"nx":115,"ny":88,"refTime":"2023-01-07T06:00:00:Z","depth":0,"parameterNumber":2,"parameterNumberName":"U-component_of_WINDS"},"data":[0.0,0.0,0.0,0.0,0.0,0.0,0.0,0.0,0.0,0.0,0.0,0.0,0.0,0.0,0.0,0.0,0.0,0.0,0.0,0.0,0.0,0.0,0.0,0.0,0.0,0.0,0.0,0.0,0.0,0.0,0.0,0.0,0.0,0.0,0.0,0.0,0.0,0.0,0.0,0.0,0.0,0.0,0.0,0.0,0.0,0.0,0.0,0.0,0.0,0.0,0.0,0.0,0.0,0.0,0.0,0.0,0.0,0.0,0.0,0.0,0.0,0.0,0.0,0.0,0.0,0.0,0.0,0.0,0.0,0.0,0.0,0.0,0.0,0.0,0.0,0.0,0.0,0.0,0.0,0.0,0.0,0.0,0.0,0.0,0.0,0.0,0.0,0.0,0.0,0.0,0.0,0.0,0.0,0.0,0.0,0.0,0.0,0.0,0.0,0.0,0.0,0.0,0.0,0.0,0.0,0.0,0.0,0.0,0.0,0.0,0.0,0.0,0.0,0.0,0.0,0.0,0.0,0.0,0.0,0.0,0.0,0.0,0.0,0.0,0.0,0.0,0.0,0.0,0.0,0.0,0.0,0.0,0.0,0.0,0.0,0.0,0.0,0.0,0.0,0.0,0.0,0.0,0.0,0.0,0.0,0.0,0.0,0.0,0.0,0.0,0.0,0.0,0.0,0.0,0.0,0.0,0.0,0.0,0.0,0.0,0.0,0.0,0.0,0.0,0.0,0.0,0.0,0.0,0.0,0.0,0.0,0.0,0.0,0.0,0.0,0.0,0.0,0.0,0.0,0.0,0.0,0.0,0.0,0.0,0.0,0.0,0.0,0.0,0.0,0.0,0.0,0.0,0.0,0.0,0.0,0.0,0.0,0.0,0.0,0.0,0.0,0.0,0.0,0.0,0.0,0.0,0.0,0.0,0.0,0.0,0.0,0.0,0.0,0.0,0.0,0.0,0.0,0.0,0.0,0.0,0.0,0.0,0.0,0.0,0.0,0.0,0.0,0.0,0.0,0.0,0.0,0.0,0.0,0.0,0.0,0.0,0.0,0.0,0.0,0.0,0.0,0.0,0.0,0.0,0.0,0.0,0.0,0.0,0.0,0.0,0.0,0.0,0.0,0.0,0.0,0.0,0.0,0.0,0.0,0.0,0.0,0.0,0.0,0.0,0.0,0.0,0.0,0.0,0.0,0.0,0.0,0.0,0.0,0.0,0.0,0.0,0.0,0.0,0.0,0.0,0.0,0.0,0.0,0.0,0.0,0.0,0.0,0.0,0.0,0.0,0.0,0.0,0.0,0.0,0.0,0.0,0.0,0.0,0.0,0.0,0.0,0.0,0.0,0.0,0.0,0.0,0.0,0.0,0.0,0.0,0.0,0.0,0.0,0.0,0.0,0.0,0.0,0.0,0.0,0.0,0.0,0.0,0.0,0.0,0.0,0.0,0.0,0.0,0.0,0.0,0.0,0.0,0.0,0.0,0.0,0.0,0.0,0.0,0.0,0.0,0.0,0.0,0.0,0.0,0.0,0.0,0.0,0.0,0.0,0.0,0.0,0.0,0.0,0.0,0.0,0.0,0.0,0.0,0.0,0.0,0.0,0.0,0.0,0.0,0.0,0.0,0.0,0.0,0.0,0.0,0.0,0.0,0.0,0.0,0.0,0.0,0.0,0.0,0.0,0.0,0.0,0.0,0.0,0.0,0.0,0.0,0.0,0.0,0.0,0.0,0.0,0.0,0.0,0.0,0.0,0.0,0.0,0.0,0.0,0.0,0.0,0.0,0.0,0.0,0.0,0.0,0.0,0.0,0.0,0.0,0.0,0.0,0.0,0.0,0.0,0.0,0.0,0.0,0.0,0.0,0.0,0.0,0.0,0.0,0.0,0.0,0.0,0.0,0.0,0.0,0.0,0.0,0.0,0.0,0.0,0.0,0.0,0.0,0.0,0.0,0.0,0.0,0.0,0.0,0.0,0.0,0.0,0.0,0.0,0.0,0.0,0.0,0.0,0.0,0.0,0.0,0.0,0.0,0.0,0.0,0.0,0.0,0.0,0.0,0.0,0.0,0.0,0.0,0.0,0.0,0.0,0.0,0.0,0.0,0.0,0.0,0.0,0.0,0.0,0.0,0.0,0.0,0.0,0.0,0.0,0.0,0.0,0.0,0.0,0.0,0.0,0.0,0.0,0.0,0.0,0.0,0.0,0.0,0.0,0.0,0.0,0.0,0.0,0.0,0.0,0.0,0.0,0.0,0.0,0.0,0.0,0.0,0.0,0.0,0.0,0.0,0.0,0.0,0.0,0.0,0.0,0.0,0.0,0.0,0.0,0.0,0.0,0.0,0.0,0.0,0.0,0.0,0.0,0.0,0.0,0.0,0.0,0.0,0.0,0.0,0.0,0.0,0.0,0.0,0.0,0.0,0.0,0.0,0.0,0.0,0.0,0.0,0.0,0.0,0.0,0.0,0.0,0.0,0.0,0.0,0.0,0.0,0.0,0.0,0.0,0.0,0.0,0.0,0.0,0.0,0.0,0.0,0.0,0.0,0.0,0.0,0.0,0.0,0.0,0.0,0.0,0.0,0.0,0.0,0.0,0.0,0.0,0.0,0.0,0.0,0.0,0.0,0.0,0.0,0.0,0.0,0.0,0.0,0.0,0.0,0.0,0.0,0.0,0.0,0.0,0.0,0.0,0.0,0.0,0.0,0.0,0.0,0.0,0.0,0.0,0.0,0.0,0.0,0.0,0.0,0.0,0.0,0.0,0.0,0.0,0.0,0.0,0.0,0.0,0.0,0.0,0.0,0.0,0.0,0.0,0.0,0.0,0.0,0.0,0.0,0.0,0.0,0.0,0.0,0.0,0.0,0.0,0.0,0.0,0.0,0.0,0.0,0.0,0.0,0.0,0.0,0.0,0.0,0.0,0.0,0.0,0.0,0.0,0.0,0.0,0.0,0.0,0.0,0.0,0.0,0.0,0.0,0.0,0.0,0.0,0.0,0.0,0.0,0.0,0.0,0.0,0.0,0.0,0.0,0.0,0.0,0.0,0.0,0.0,0.0,0.0,0.0,0.0,0.0,0.0,0.0,0.0,0.0,0.0,0.0,0.0,0.0,0.0,0.0,0.0,0.0,0.0,0.0,0.0,0.0,0.0,0.0,0.0,0.0,0.0,0.0,0.0,0.0,0.0,0.0,0.0,0.0,0.0,0.0,0.0,0.0,0.0,0.0,0.0,0.0,0.0,0.0,0.0,0.0,0.0,0.0,0.0,0.0,0.0,0.0,0.0,0.0,0.0,0.0,0.0,0.0,0.0,0.0,0.0,0.0,0.0,0.0,0.0,0.0,0.0,0.0,0.0,0.0,0.0,0.0,0.0,0.0,0.0,0.0,0.0,0.0,0.0,0.0,0.0,0.0,0.0,0.0,0.0,0.0,0.0,0.0,0.0,0.0,0.0,0.0,0.0,0.0,0.0,0.0,0.0,0.0,0.0,0.0,0.0,0.0,0.0,0.0,0.0,0.0,0.0,0.0,0.0,0.0,0.0,0.0,0.0,0.0,0.0,0.0,0.0,0.0,0.0,0.0,0.0,0.0,0.0,0.0,0.0,0.0,0.0,0.0,0.0,0.0,0.0,0.0,0.0,0.0,0.0,0.0,0.0,0.0,0.0,0.0,0.0,0.0,0.0,0.0,0.0,0.0,0.0,0.0,0.0,0.0,0.0,0.0,0.0,0.0,0.0,0.0,0.0,0.0,0.0,0.0,0.0,0.0,0.0,0.0,0.0,0.0,0.0,0.0,0.0,0.0,0.0,0.0,0.0,0.0,0.0,0.0,0.0,0.0,0.0,0.0,0.0,0.0,0.0,0.0,0.0,0.0,0.0,0.0,0.0,0.0,0.0,0.0,0.0,0.0,0.0,0.0,0.0,0.0,0.0,0.0,0.0,0.0,0.0,0.0,0.0,0.0,0.0,0.0,0.0,0.0,0.0,0.0,0.0,0.0,0.0,0.0,0.0,0.0,0.0,0.0,0.0,0.0,0.0,0.0,0.0,0.0,0.0,0.0,0.0,0.0,0.0,0.0,0.0,0.0,0.0,0.0,0.0,0.0,0.0,0.0,0.0,0.0,0.0,0.0,0.0,0.0,0.0,0.0,0.0,0.0,0.0,0.0,0.0,0.0,0.0,0.0,0.0,0.0,0.0,0.0,0.0,0.0,0.0,0.0,0.0,0.0,0.0,0.0,0.0,0.0,0.0,0.0,0.0,0.0,0.3984,0.0,0.0,0.0,-0.0316,0.0,0.0,0.0,0.0,0.0,0.0,0.0,0.0,0.0,0.0,0.0,0.0,0.0,0.0,0.0,0.0,0.0,0.0,0.0,0.0,0.0,0.0,0.0,0.0,0.0,0.0,0.0,0.0,0.0,0.0,0.0,0.0,0.0,0.0,0.0,0.0,0.0,0.0,0.0,0.0,0.0,0.0,0.0,0.0,0.0,0.0,0.0,0.0,0.0,0.0,0.0,0.0,0.0,0.0,0.0,0.0,0.0,0.0,0.0,0.0,0.0,0.0,0.0,0.0,0.0,0.0,0.0,0.0,0.0,0.0,0.0,0.0,0.0,0.0,0.0,0.0,0.0,0.0,0.0,0.0,0.0,0.0,0.0,0.0,0.0,0.0,0.0,0.0,0.0,0.0,0.0,0.0,0.0,0.0,0.0,0.0,0.0,0.0,0.0,0.0,0.0,0.0,0.0,0.0,0.0,0.0,0.0,0.0,0.0,0.0,0.3809,0.2984,0.1883,0.0719,-0.0483,0.0,0.0,0.0,0.0,0.0,0.0,0.0,0.0,0.0,0.0,0.0,0.0,0.0,0.0,0.0,0.0,0.0,0.0,0.0,0.0,0.0,0.0,0.0,0.0,0.0,0.0,0.0,0.0,0.0,0.0,0.0,0.0,0.0,0.0,0.0,0.0,0.0,0.0,0.0,0.0,0.0,0.0,0.0,0.0,0.0,0.0,0.0,0.0,0.0,0.0,0.0,0.0,0.0,0.0,0.0,0.0,0.0,0.0,0.0,0.0,0.0,0.0,0.0,0.0,0.0,0.0,0.0,0.0,0.0,0.0,0.0,0.0,0.0,0.0,0.0,0.0,0.0,0.0,0.0,0.0,0.0,0.0,0.0,0.0,0.0,0.0,0.0,0.0,0.0,0.0,0.0,0.0,0.0,0.0,0.0,0.0,0.0,0.0,0.0,0.0,0.0,0.0,0.0,0.0,0.0,0.0,0.0,0.0,0.0,0.0,0.0,0.0,0.1535,0.0349,-0.0907,0.0,0.0,0.0,0.0,0.0,0.0,0.0,0.0,0.0,0.0,0.0,0.0,0.0,0.0,0.0,0.0,0.0,0.0,0.0,0.0,0.0,0.0,0.0,0.0,0.0,0.0,0.0,0.0,0.0,0.0,0.0,0.0,0.0,0.0,0.0,0.0,0.0,0.0,0.0,0.0,0.0,0.0,0.0,0.0,0.0,0.0,0.0,0.0,0.0,0.0,0.0,0.0,0.0,0.0,0.0,0.0,0.0,0.0,0.0,0.0,0.0,0.0,0.0,0.0,0.0,0.0,0.0,0.0,0.0,0.0,0.0,0.0,0.0,0.0,0.0,0.0,0.0,0.0,0.0,0.0,0.0,0.0,0.0,0.0,0.0,0.0,0.0,0.0,0.0,0.0,0.0,0.0,0.0,0.0,0.0,0.0,0.0,0.0,0.0,0.0,0.0,0.0,0.0,0.0,0.0,0.0,0.0,0.0,0.0,0.0,0.3022,0.2087,0.1019,0.0,-0.1848,0.0,0.0,0.0,0.0,0.0,0.0,0.0,0.0,0.0,0.0,0.0,0.0,0.0,0.0,0.0,0.0,0.0,0.0,0.0,0.0,0.0,0.0,0.0,0.0,0.0,0.0,0.0,0.0,0.0,0.0,0.0,0.0,0.0,0.0,0.0,0.0,0.0,0.0,0.0,0.0,0.0,0.0,0.0,0.0,0.0,0.0,0.0,0.0,0.0,0.0,0.0,0.0,0.0,0.0,0.0,0.0,0.0,0.0,0.0,0.0,0.0,0.0,0.0,0.0,0.0,0.0,0.0,0.0,0.0,0.0,0.0,0.0,0.0,0.0,0.0,0.0,0.0,0.0,0.0,0.0,0.0,0.0,0.0,0.0,0.0,0.0,0.0,0.0,0.0,0.0,0.0,0.0,0.0,0.0,0.0,0.0,0.0,0.0,0.0,0.0,0.0,0.0,0.0,0.0,0.0,0.0,0.0,0.0,0.0,0.0,0.2485,0.1846,0.028,-0.1004,0.0,0.0,0.0,0.0,0.0,0.0,0.0,0.0,0.0,0.0,0.0,0.0,0.0,0.0,0.0,0.0,0.0,0.0,0.0,0.0,0.0,0.0,0.0,0.0,0.0,0.0,0.0,0.0,0.0,0.0,0.0,0.0,0.0,0.0,0.0,0.0,0.0,0.0,0.0,0.0,0.0,0.0,0.0,0.0,0.0,0.0,0.0,0.0,0.0,0.0,0.0,0.0,0.0,0.0,0.0,0.0,0.0,0.0,0.0,0.0,0.0,0.0,0.0,0.0,0.0,0.0,0.0,0.0,0.0,0.0,0.0,0.0,0.0,0.0,0.0,0.0,0.0,0.0,0.0,0.0,0.0,0.0,0.0,0.0,0.0,0.0,0.0,0.0,0.0,0.0,0.0,0.0,0.0,0.0,0.0,0.0,0.0,0.0,0.0,0.0,0.0,0.0,0.0,0.0,0.0,0.0,0.0,0.0,0.0,0.0,0.2578,0.1986,0.1179,-0.0412,-0.1483,-0.1883,0.0,0.0,0.0,0.0,0.0,0.0,0.0,0.0,0.0,0.0,0.0,0.0,0.0,0.0,0.0,0.0,0.0,0.0,0.0,0.0,0.0,0.0,0.0,0.0,0.0,0.0,0.0,0.0,0.0,0.0,0.0,0.0,0.0,0.0,0.0,0.0,0.0,0.0,0.0,0.0,0.0,0.0,0.0,0.0,0.0,0.0,0.0,0.0,0.0,0.0,0.0,0.0,0.0,0.0,0.0,0.0,0.0,0.0,0.0,0.0,0.0,0.0,0.0,0.0,0.0,0.0,0.0,0.0,0.0,0.0,0.0,0.0,0.0,0.0,0.0,0.0,0.0,0.0,0.0,0.0,0.0,0.0,0.0,0.0,0.0,0.0,0.0,0.0,0.0,0.0,0.0,0.0,0.0,0.0,0.0,0.0,0.0,0.0,0.0,0.0,0.0,0.0,0.0,0.0,0.0,0.0,0.0,0.0,0.2798,0.241,0.1503,0.0068,-0.0958,-0.1617,0.0,0.0,0.0,0.0,0.0,0.0,0.0,0.0,0.0,0.0,0.0,0.0,0.0,0.0,0.0,0.0,0.0,0.0,0.0,0.0,0.0,0.0,0.0,0.0,0.0,0.0,0.0,0.0,0.0,0.0,0.0,0.0,0.0,0.0,0.0,0.0,0.0,0.0,0.0,0.0,0.0,0.0,0.0,0.0,0.0,0.0,0.0,0.0,0.0,0.0,0.0,0.0,0.0,0.0,0.0,0.0,0.0,0.0,0.0,0.0,0.0,0.0,0.0,0.0,0.0,0.0,0.0,0.0,0.0,0.0,0.0,0.0,0.0,0.0,0.0,0.0,0.0,0.0,0.0,0.0,0.0,0.0,0.0,0.0,0.0,0.0,0.0,0.0,0.0,0.0,0.0,0.0,0.0,0.0,0.0,0.0,0.0,0.0,0.0,0.0,0.0,0.0,0.0,0.0,0.0,0.0,0.0,0.0,0.0,0.2378,0.1818,0.1011,-0.0015,-0.0894,-0.1503,0.0,0.0,0.0,0.0,0.0,0.0,0.0,0.0,0.0,0.0,0.0,0.0,0.0,0.0,0.0,0.0,0.0,0.0,0.0,0.0,0.0,0.0,0.0,0.0,0.0,0.0,0.0,0.0,0.0,0.0,0.0,0.0,0.0,0.0,0.0,0.0,0.0,0.0,0.0,0.0,0.0,0.0,0.0,0.0,0.0,0.0,0.0,0.0,0.0,0.0,0.0,0.0,0.0,0.0,0.0,0.0,0.0,0.0,0.0,0.0,0.0,0.0,0.0,0.0,0.0,0.0,0.0,0.0,0.0,0.0,0.0,0.0,0.0,0.0,0.0,0.0,0.0,0.0,0.0,0.0,0.0,0.0,0.0,0.0,0.0,0.0,0.0,0.0,0.0,0.0,0.0,0.0,0.0,0.0,0.0,0.0,0.0,0.0,0.0,0.0,0.0,0.0,0.0,0.0,0.0,0.0,0.0,0.0,0.0,0.1979,0.1361,0.0645,-0.0108,-0.0989,-0.1583,0.0,0.0,0.0,0.0,0.0,0.0,0.0,0.0,0.0,0.0,0.0,0.0,0.0,0.0,0.0,0.0,0.0,0.0,0.0,0.0,0.0,0.0,0.0,0.0,0.0,0.0,0.0,0.0,0.0,0.0,0.0,0.0,0.0,0.0,0.0,0.0,0.0,0.0,0.0,0.0,0.0,0.0,0.0,0.0,0.0,0.0,0.0,0.0,0.0,0.0,0.0,0.0,0.0,0.0,0.0,0.0,0.0,0.0,0.0,0.0,0.0,0.0,0.0,0.0,0.0,0.0,0.0,0.0,0.0,0.0,0.0,0.0,0.0,0.0,0.0,0.0,0.0,0.0,0.0,0.0,0.0,0.0,0.0,0.0,0.0,0.0,0.0,0.0,0.0,0.0,0.0,0.0,0.0,0.0,0.0,0.0,0.0,0.0,0.0,0.0,0.0,0.0,0.0,0.0,0.0,0.0,0.0,0.0,0.1987,0.1598,0.1074,0.0374,-0.0388,-0.1304,-0.1864,0.0,0.0,0.0,0.0,0.0,0.0,0.0,0.0,0.0,0.0,0.0,0.0,0.0,0.0,0.0,0.0,0.0,0.0,0.0,0.0,0.0,0.0,0.0,0.0,0.0,0.0,0.0,0.0,0.0,0.0,0.0,0.0,0.0,0.0,0.0,0.0,0.0,0.0,0.0,0.0,0.0,0.0,0.0,0.0,0.0,0.0,0.0,0.0,0.0,0.0,0.0,0.0,0.0,0.0,0.0,0.0,0.0,0.0,0.0,0.0,0.0,0.0,0.0,0.0,0.0,0.0,0.0,0.0,0.0,0.0,0.0,0.0,0.0,0.0,0.0,0.0,0.0,0.0,0.0,0.0,0.0,0.0,0.0,0.0,0.0,0.0,0.0,0.0,0.0,0.0,0.0,0.0,0.0,0.0,0.0,0.0,0.0,0.0,0.0,0.0,0.0,0.0,0.0,0.0,0.0,0.0,0.0,0.0,0.0,0.1109,0.0555,-0.0103,-0.0855,-0.1529,-0.1976,0.0,0.0,0.0,0.0,0.0,0.0,0.0,0.0,0.0,0.0,0.0,0.0,0.0,0.0,0.0,0.0,0.0,0.0,0.0,0.0,0.0,0.0,0.0,0.0,0.0,0.0,0.0,0.0,0.0,0.0,0.0,0.0,0.0,0.0,0.0,0.0,0.0,0.0,0.0,0.0,0.0,0.0,0.0,0.0,0.0,0.0,0.0,0.0,0.0,0.0,0.0,0.0,0.0,0.0,0.0,0.0,0.0,0.0,0.0,0.0,0.0,0.0,0.0,0.0,0.0,0.0,0.0,0.0,0.0,0.0,0.0,0.0,0.0,0.0,0.0,0.0,0.0,0.0,0.0,0.0,0.0,0.0,0.0,0.0,0.0,0.0,0.0,0.0,0.0,0.0,0.0,0.0,0.0,0.0,0.0,0.0,0.0,0.0,0.0,0.0,0.0,0.0,0.0,0.0,0.0,0.0,0.0,0.0,0.0,0.0255,-0.0146,-0.0716,-0.148,-0.2004,-0.2347,-0.2505,0.0,0.0,0.0,0.0,0.0,0.0,0.0,0.0,0.0,0.0,0.0,0.0,0.0,0.0,0.0,0.0,0.0,0.0,0.0,0.0,0.0,0.0,0.0,0.0,0.0,0.0,0.0,0.0,0.0,0.0,0.0,0.0,0.0,0.0,0.0,0.0,0.0,0.0,0.0,0.0,0.0,0.0,0.0,0.0,0.0,0.0,0.0,0.0,0.0,0.0,0.0,0.0,0.0,0.0,0.0,0.0,0.0,0.0,0.0,0.0,0.0,0.0,0.0,0.0,0.0,0.0,0.0,0.0,0.0,0.0,0.0,0.0,0.0,0.0,0.0,0.0,0.0,0.0,0.0,0.0,0.0,0.0,0.0,0.0,0.0,0.0,0.0,0.0,0.0,0.0,0.0,0.0,0.0,0.0,0.0,0.0,0.0,0.0,0.0,0.0,0.0,0.0,0.0,0.0,0.0,0.0,0.0,0.0,-0.0925,-0.0978,-0.1411,-0.2211,-0.2697,-0.292,0.0,0.0,0.0,0.0,0.0,0.0,0.0,0.0,0.0,0.0,0.0,0.0,0.0,0.0,0.0,0.0,0.0,0.0,0.0,0.0,0.0,0.0,0.0,0.0,0.0,0.0,0.0,0.0,0.0,0.0,0.0,0.0,0.0,0.0,0.0,0.0,0.0,0.0,0.0,0.0,0.0,0.0,0.0,0.0,0.0,0.0,0.0,0.0,0.0,0.0,0.0,0.0,0.0,0.0,0.0,0.0,0.0,0.0,0.0,0.0,0.0,0.0,0.0,0.0,0.0,0.0,0.0,0.0,0.0,0.0,0.0,0.0,0.0,0.0,0.0,0.0,0.0,0.0,0.0,0.0,0.0,0.0,0.0,0.0,0.0,0.0,0.0,0.0,0.0,0.0,0.0,0.0,0.0,0.0,0.0,0.0,0.0,0.0,0.0,0.0,0.0,0.0,0.0,0.0,0.0,0.0,0.0,0.0,0.0,-0.1317,-0.2033,-0.2509,-0.2806,-0.315,-0.3252,0.0,0.0,0.0,0.0,0.0,0.0,0.0,0.0,0.0,0.0,0.0,0.0,0.0,0.0,0.0,0.0,0.0,0.0,0.0,0.0,0.0,0.0,0.0,0.0,0.0,0.0,0.0,0.0,0.0,0.0,0.0,0.0,0.0,0.0,0.0,0.0,0.0,0.0,0.0,0.0,0.0,0.0,0.0,0.0,0.0,0.0,0.0,0.0,0.0,0.0,0.0,0.0,0.0,0.0,0.0,0.0,0.0,0.0,0.0,0.0,0.0,0.0,0.0,0.0,0.0,0.0,0.0,0.0,0.0,0.0,0.0,0.0,0.0,0.0,0.0,0.0,0.0,0.0,0.0,0.0,0.0,0.0,0.0,0.0,0.0,0.0,0.0,0.0,0.0,0.0,0.0,0.0,0.0,0.0,0.0,0.0,0.0,0.0,0.0,0.0,0.0,0.0,0.0,0.0,0.0,0.0,0.0,0.0,-0.095,-0.1778,-0.2701,-0.327,-0.3487,-0.358,-0.353,0.0,0.0,0.0,0.0,0.0,0.0,0.0,0.0,0.0,0.0,0.0,0.0,0.0,0.0,0.0,0.0,0.0,0.0,0.0,0.0,0.0,0.0,0.0,0.0,0.0,0.0,0.0,0.0,0.0,0.0,0.0,0.0,0.0,0.0,0.0,0.0,0.0,0.0,0.0,0.0,0.0,0.0,0.0,0.0,0.0,0.0,0.0,0.0,0.0,0.0,0.0,0.0,0.0,0.0,0.0,0.0,0.0,0.0,0.0,0.0,0.0,0.0,0.0,0.0,0.0,0.0,0.0,0.0,0.0,0.0,0.0,0.0,0.0,0.0,0.0,0.0,0.0,0.0,0.0,0.0,0.0,0.0,0.0,0.0,0.0,0.0,0.0,0.0,0.0,0.0,0.0,0.0,0.0,0.0,0.0,0.0,0.0,0.0,0.0,0.0,0.0,0.0,0.0,0.0,0.0,0.0,0.0,0.0,-0.1375,-0.222,-0.3152,-0.3825,-0.4219,-0.4015,-0.3778,0.0,0.0,0.0,0.0,0.0,0.0,0.0,0.0,0.0,0.0,0.0,0.0,0.0,0.0,0.0,0.0,0.0,0.0,0.0,0.0,0.0,0.0,0.0,0.0,0.0,0.0,0.0,0.0,0.0,0.0,0.0,0.0,0.0,0.0,0.0,0.0,0.0,0.0,0.0,0.0,0.0,0.0,0.0,0.0,0.0,0.0,0.0,0.0,0.0,0.0,0.0,0.0,0.0,0.0,0.0,0.0,0.0,0.0,0.0,0.0,0.0,0.0,0.0,0.0,0.0,0.0,0.0,0.0,0.0,0.0,0.0,0.0,0.0,0.0,0.0,0.0,0.0,0.0,0.0,0.0,0.0,0.0,0.0,0.0,0.0,0.0,0.0,0.0,0.0,0.0,0.0,0.0,0.0,0.0,0.0,0.0,0.0,0.0,0.0,0.0,0.0,0.0,0.0,0.0,0.0,0.0,0.0,0.0,-0.1721,-0.2292,-0.3307,-0.4042,-0.4501,-0.4461,-0.4119,0.0,0.0,0.0,0.0,0.0,0.0,0.0,0.0,0.0,0.0,0.0,0.0,0.0,0.0,0.0,0.0,0.0,0.0,0.0,0.0,0.0,0.0,0.0,0.0,0.0,0.0,0.0,0.0,0.0,0.0,0.0,0.0,0.0,0.0,0.0,0.0,0.0,0.0,0.0,0.0,0.0,0.0,0.0,0.0,0.0,0.0,0.0,0.0,0.6663,0.0,0.0,0.0,0.0,0.0,0.0,0.0,0.0,0.0,0.0,0.0,0.0,0.0,0.0,0.0,0.0,0.0,0.0,0.0,0.0,0.0,0.0,0.0,0.0,0.0,0.0,0.0,0.0,0.0,0.0,0.0,0.0,0.0,0.0,0.0,0.0,0.0,0.0,0.0,0.0,0.0,0.0,0.0,0.0,0.0,0.0,0.0,0.0,0.0,0.0,0.0,0.0,0.0,0.0,0.0,0.0,0.0,0.0,0.0,-0.1967,-0.2641,-0.3581,-0.4306,-0.4715,-0.4694,-0.4269,0.0,0.0,0.0,0.0,0.0,0.0,0.0,0.0,0.0,0.0,0.0,0.0,0.0,0.0,0.0,0.0,0.0,0.0,0.0,0.0,0.0,0.0,0.0,0.0,0.0,0.0,0.0,0.0,0.0,0.0,0.0,0.0,0.0,0.0,0.0,0.0,0.0,0.0,0.0,0.0,0.0,0.0,0.0,0.0,0.0,0.0,0.0,0.0,0.0,0.0,0.0,0.0,0.0,0.0,0.0,0.0,0.0,0.0,0.0,0.0,0.0,0.0,0.0,0.0,0.0,0.0,0.0,0.0,0.0,0.0,0.0,0.0,0.0,0.0,0.0,0.0,0.0,0.0,0.0,0.0,0.0,0.0,0.0,0.0,0.0,0.0,0.0,0.0,0.0,0.0,0.0,0.0,0.0,0.0,0.0,0.0,0.0,0.0,0.0,0.0,0.0,0.0,0.0,0.0,0.0,0.0,0.0,-0.1608,-0.2193,-0.2997,-0.3898,-0.4548,-0.4912,-0.4766,-0.4261,-0.3393,0.0,0.0,0.0,0.0,0.0,0.0,0.0,0.0,0.0,0.0,0.0,0.0,0.0,0.0,0.0,0.0,0.0,0.0,0.0,0.0,0.0,0.0,0.0,0.0,0.0,0.0,0.0,0.0,0.0,0.0,0.0,0.0,0.0,0.0,0.0,0.0,0.0,0.0,0.4522,0.5212,0.0,0.0,0.0,0.0,0.0,0.0,0.0,0.0,0.6678,0.0,0.0,0.0,0.0,0.0,0.0,0.0,0.0,0.0,0.0,0.0,0.0,0.0,0.0,0.0,0.0,0.0,0.0,0.0,0.0,0.0,0.0,0.0,0.0,0.0,0.0,0.0,0.0,0.0,0.0,0.0,0.0,0.0,0.0,0.0,0.0,0.0,0.0,0.0,0.0,0.0,0.0,0.0,0.0,0.0,0.0,0.0,0.0,0.0,0.0,0.0,0.0,0.0,0.0,0.0,0.0,-0.153,-0.2048,-0.258,-0.3143,-0.4086,-0.4665,-0.487,-0.466,-0.4137,-0.3231,0.0,0.0,0.0,0.0,0.0,0.0,0.0,0.0,0.0,0.0,0.0,0.0,0.0,0.0,0.0,0.0,0.0,0.0,0.0,0.0,0.0,0.0,0.0,0.0,0.0,0.0,0.0,0.0,0.0,0.0,0.0,0.0,0.0,0.0,0.0,0.0,0.0,0.0,0.0,0.5715,0.6196,0.0,0.0,0.0,0.0,0.0,0.0,0.0,0.0,0.6642,0.0,0.0,0.0,0.0,0.0,0.0,0.0,0.0,0.0,0.0,0.0,0.0,0.0,0.0,0.0,0.0,0.0,0.0,0.0,0.0,0.0,0.0,0.0,0.0,0.0,0.0,0.0,0.0,0.0,0.0,0.0,0.0,0.0,0.0,0.0,0.0,0.0,0.0,0.0,0.0,0.0,0.0,0.0,0.0,0.0,0.0,0.0,0.0,0.0,0.0,0.0,0.0,0.0,0.0,0.0,-0.2202,-0.2811,-0.3466,-0.4126,-0.4798,-0.5208,-0.5342,-0.4794,-0.401,0.0,0.0,0.0,0.0,0.0,0.0,0.0,0.0,0.0,0.0,0.0,0.0,0.0,0.0,0.0,0.0,0.0,0.0,0.0,0.0,0.0,0.0,0.0,0.0,0.0,0.0,0.0,0.0,0.0,0.0,0.0,0.0,0.0,0.0,0.0,0.0,0.0,0.0,0.0,0.0,0.6347,0.6989,0.756,0.0,0.0,0.0,0.0,0.0,0.0,0.7829,0.7287,0.0,0.0,0.0,0.0,0.0,0.0,0.0,0.0,0.0,0.0,0.0,0.0,0.0,0.0,0.0,0.0,0.0,0.0,0.0,0.0,0.0,0.0,0.0,0.0,0.0,0.0,0.0,0.0,0.0,0.0,0.0,0.0,0.0,0.0,0.0,0.0,0.0,0.0,0.0,0.0,0.0,0.0,0.0,0.0,0.0,0.0,0.0,0.0,0.0,0.0,0.0,0.0,0.0,0.0,0.0,-0.2966,-0.3717,-0.4483,-0.5206,-0.5635,-0.5837,-0.577,-0.5002,-0.3983,0.0,0.0,0.0,0.0,0.0,0.0,0.0,0.0,0.0,0.0,0.0,0.0,0.0,0.0,0.0,0.0,0.0,0.0,0.0,0.0,0.0,0.0,0.0,0.0,0.0,0.0,0.0,0.0,0.0,0.0,0.0,0.0,0.0,0.0,0.0,0.0,0.0,0.0,0.0,0.0,0.0,0.7839,0.846,0.8601,0.0,0.0,0.0,0.0,0.8577,0.837,0.0,0.0,0.0,0.0,0.0,0.0,0.0,0.0,0.0,0.0,0.0,0.0,0.0,0.0,0.0,0.0,0.0,0.0,0.0,0.0,0.0,0.0,0.0,0.0,0.0,0.0,0.0,0.0,0.0,0.0,0.0,0.0,0.0,0.0,0.0,0.0,0.0,0.0,0.0,0.0,0.0,0.0,0.0,0.0,0.0,0.0,0.0,0.0,0.0,0.0,0.0,0.0,0.0,0.0,0.0,0.0,-0.3584,-0.4595,-0.5404,-0.5958,-0.6464,-0.6441,-0.5806,-0.5139,-0.4016,0.0,0.0,0.0,0.0,0.0,0.0,0.0,0.0,0.0,0.0,0.0,0.0,0.0,0.0,0.0,0.0,0.0,0.0,0.0,0.0,0.0,0.0,0.0,0.0,0.0,0.0,0.0,0.0,0.0,0.0,0.0,0.0,0.0,0.0,0.0,0.0,0.0,0.0,0.0,0.0,0.0,0.8528,0.897,0.9338,0.9548,0.0,0.0,1.0056,0.9504,0.8945,0.0,0.0,0.0,0.0,0.0,0.0,0.0,0.0,0.0,0.0,0.0,0.0,0.0,0.0,0.0,0.0,0.0,0.0,0.0,0.0,0.0,0.0,0.0,0.0,0.0,0.0,0.0,0.0,0.0,0.0,0.0,0.0,0.0,0.0,0.0,0.0,0.0,0.0,0.0,0.0,0.0,0.0,0.0,0.0,0.0,0.0,0.0,0.0,0.0,0.0,0.0,0.0,0.0,0.0,0.0,-0.3368,-0.4504,-0.5774,-0.6693,-0.7212,-0.7592,-0.7309,-0.638,-0.5372,-0.4075,0.0,0.0,0.0,0.0,0.0,0.0,0.0,0.0,0.0,0.0,0.0,0.0,0.0,0.0,0.0,0.0,0.0,0.0,0.0,0.0,0.0,0.0,0.0,0.0,0.0,0.0,0.0,0.0,0.0,0.0,0.0,0.0,0.0,0.0,0.0,0.0,0.0,0.0,0.0,0.0,0.0,0.0,0.8881,0.9635,0.0,0.0,0.0,1.0027,0.9661,0.0,0.0,0.0,0.0,0.0,0.0,0.0,0.0,0.0,0.0,0.0,0.0,0.0,0.0,0.0,0.0,0.0,0.0,0.0,0.0,0.0,0.0,0.0,0.0,0.0,0.0,0.0,0.0,0.0,0.0,0.0,0.0,0.0,0.0,0.0,0.0,0.0,0.0,0.0,0.0,0.0,0.0,0.0,0.0,0.0,0.0,0.0,0.0,0.0,0.0,0.0,0.0,0.0,0.0,0.0,0.0,0.0,-0.534,-0.6873,-0.7917,-0.8423,-0.8672,-0.8165,-0.6912,-0.5675,0.0,0.0,0.0,0.0,0.0,0.0,0.0,0.0,0.0,0.0,0.0,0.0,0.0,0.0,0.0,0.0,0.0,0.0,0.0,0.0,0.0,0.0,0.0,0.0,0.0,0.0,0.0,0.5108,0.0,0.0,0.0,0.0,0.0,0.0,0.0,0.0,0.0,0.0,0.0,0.0,0.0,0.0,0.8496,0.9018,1.0028,1.0538,0.0,0.0,0.9855,0.9688,0.9429,0.9028,0.0,0.0,0.0,0.0,0.0,0.0,0.0,0.0,0.0,0.0,0.0,0.0,0.0,0.0,0.0,0.0,0.0,0.0,0.0,0.0,0.0,0.0,0.0,0.0,0.0,0.0,0.0,0.0,0.0,0.0,0.0,0.0,0.0,0.0,0.0,0.0,0.0,0.0,0.0,0.0,0.0,0.0,0.0,0.0,0.0,0.0,0.0,0.0,0.0,0.0,0.0,0.0,0.0,0.0,0.0,-0.6039,-0.772,-0.8865,-0.9405,-0.9674,-0.8909,-0.7122,-0.6045,-0.4309,0.0,0.0,0.0,0.0,0.0,0.0,0.0,0.0,0.0,0.0,0.0,0.0,0.0,0.0,0.0,0.0,0.0,0.0,0.0,0.0,0.0,0.0,0.0,0.0,0.0,0.0,0.0,0.0,0.0,0.0,0.0,0.0,0.0,0.0,0.0,0.0,0.0,0.0,0.0,0.0,0.0,0.9099,0.9815,1.0695,1.1022,0.0,0.0,0.974,0.9781,0.9554,0.9109,0.8334,0.0,0.0,0.0,0.0,0.0,0.0,0.0,0.0,0.0,0.0,0.0,0.0,0.0,0.0,0.0,0.0,0.0,0.0,0.0,0.0,0.0,0.0,0.0,0.0,0.0,0.0,0.0,0.0,0.0,0.0,0.0,0.0,0.0,0.0,0.0,0.0,0.0,0.0,0.0,0.0,0.0,0.0,0.0,0.0,0.0,0.0,0.0,0.0,0.0,0.0,0.0,0.0,0.0,-0.4846,-0.6514,-0.8246,-0.946,-1.0135,-1.0366,-0.9638,-0.7979,-0.6641,-0.4769,0.0,0.0,0.0,0.0,0.0,0.0,0.0,0.0,0.0,0.0,0.0,0.0,0.0,0.0,0.0,0.0,0.0,0.0,0.0,0.0,0.0,0.0,0.0,0.0,0.0,0.0,0.0,0.0,0.7737,0.7772,0.6864,0.0,0.0,0.0,0.0,0.0,0.0,0.0,0.0,0.0,0.0,0.9066,0.9579,1.0787,0.0,0.0,0.9712,0.9192,0.9522,0.9201,0.8824,0.8598,0.7975,0.0,0.0,0.0,0.0,0.0,0.0,0.0,0.0,0.0,0.0,0.0,0.0,0.0,0.0,0.0,0.0,0.0,0.0,0.0,0.0,0.0,0.0,0.0,0.0,0.0,0.0,0.0,0.0,0.0,0.0,0.0,0.0,0.0,0.0,0.0,0.0,0.0,0.0,0.0,0.0,0.0,0.0,0.0,0.0,0.0,0.0,0.0,0.0,0.0,0.0,0.0,0.0,-0.5168,-0.6986,-0.8646,-0.9888,-1.0736,-1.0912,-1.0239,-0.8712,-0.7193,-0.5243,0.0,0.0,0.0,0.0,0.0,0.0,0.0,0.0,0.0,0.0,0.0,0.0,0.0,0.0,0.0,0.0,0.0,0.0,0.0,0.0,0.0,0.0,0.0,0.0,0.0,0.0,0.0,0.0,0.7997,0.7608,0.6535,0.0,0.0,0.0,0.0,0.0,0.0,0.0,0.0,0.0,0.0,0.8945,0.9492,1.0655,1.1133,1.0091,0.9162,0.8701,0.9021,0.8738,0.8523,0.8628,0.0,0.0,0.0,0.0,0.0,0.0,0.0,0.0,0.0,0.0,0.0,0.0,0.0,0.0,0.0,0.0,0.0,0.0,0.0,0.0,0.0,0.0,0.0,0.0,0.0,0.0,0.0,0.0,0.0,0.0,-0.2184,0.0,0.0,0.0,0.0,0.0,0.0,0.0,0.0,0.0,0.0,0.0,0.0,0.0,0.0,0.0,0.0,0.0,0.0,0.0,0.0,0.0,0.0,-0.5429,-0.7464,-0.8937,-1.015,-1.1067,-1.1269,-1.0646,-0.915,-0.7622,-0.5632,-0.314,0.0,0.0,0.0,0.0,0.0,0.0,0.0,0.0,0.0,0.0,0.0,0.0,0.0,0.0,0.0,0.0,0.0,0.0,0.0,0.0,0.0,0.0,0.0,0.0,0.0,0.0,0.8155,0.79,0.7199,0.0,0.0,0.0,0.0,0.0,0.0,0.0,0.0,0.0,0.0,0.8219,0.8747,0.9714,1.0247,1.0058,0.8685,0.8366,0.8282,0.8327,0.8254,0.8227,0.0,0.0,0.0,0.0,0.0,0.0,0.0,0.0,0.0,0.0,0.0,0.0,0.0,0.0,0.0,0.0,0.0,0.0,0.0,0.0,0.0,0.0,0.0,0.0,0.0,0.0,0.0,-0.3379,-0.3472,0.0,0.0,0.0,0.0,0.0,0.0,0.0,0.0,0.0,0.0,0.0,-0.5492,-0.4983,0.0,0.0,0.0,0.0,0.0,0.0,0.0,0.0,0.0,0.0,0.0,0.0,-0.5642,-0.7488,-0.9056,-1.0314,-1.1279,-1.1631,-1.1286,-1.0265,-0.871,-0.6297,-0.2797,0.0,0.0,0.0,0.0,0.0,0.0,0.0,0.0,0.0,0.0,0.0,0.0,0.0,0.0,0.0,0.0,0.0,0.0,0.0,0.0,0.0,0.0,0.0,0.0,0.0,0.805,0.0,0.0,0.0,0.0,0.0,0.0,0.0,0.0,0.0,0.0,0.0,0.7014,0.7545,0.7828,0.8112,0.8444,0.9444,0.9565,0.0,0.0,0.0,0.0,0.0,0.0,0.0,0.0,0.0,0.0,0.0,0.0,0.0,0.0,0.983,0.9161,0.8594,0.8191,0.8087,0.0,0.0,0.0,0.0,0.0,0.0,0.0,0.0,0.0,0.0,0.0,0.0,0.0,0.0,0.0,0.0,-0.4797,0.0,0.0,0.0,0.0,0.0,0.0,0.0,0.0,-0.7007,-0.7369,-0.7443,-0.706,-0.6485,0.0,-0.4979,-0.391,0.0,0.0,0.0,0.0,0.0,0.0,0.0,0.0,-0.6036,-0.7763,-0.9277,-1.0469,-1.1354,-1.1781,-1.1669,-1.0875,-0.8954,-0.6339,-0.3041,-0.1362,-0.0065,0.0,0.0,0.0,0.0,0.0,0.0,0.0,0.0,0.0,0.0,0.0,0.0,0.0,0.0,0.0,0.0,0.0,0.0,0.0,0.0,0.0,0.0,0.0,0.8134,0.0,0.0,0.0,0.0,0.0,0.0,0.0,0.0,0.0,0.6082,0.6426,0.6734,0.6988,0.7082,0.7139,0.7157,0.0,0.0,0.0,0.0,0.0,0.0,0.0,0.6918,0.7503,0.7343,0.7267,0.7689,0.8437,0.9463,1.09,0.0,0.0,1.0076,0.9718,0.9444,0.9335,0.9234,0.8975,0.8451,0.8434,0.8386,0.0,0.0,0.0,0.0,0.0,0.0,0.0,0.0,-0.7419,-0.7496,0.0,-0.6891,0.0,0.0,0.0,0.0,0.0,0.0,0.0,0.0,-0.8993,-0.9479,-0.9727,-0.9288,-0.8916,-0.8637,-0.7581,-0.6974,-0.6623,-0.4244,0.0,0.0,0.0,0.0,0.0,0.0,-0.6671,-0.8331,-0.9637,-1.0694,-1.1409,-1.1817,-1.17,-1.1038,-0.8388,-0.594,-0.3863,-0.2278,-0.0893,0.0319,0.1102,0.0,0.0,0.0,0.0,0.0,0.0,0.0,0.0,0.0,0.0,0.0,0.0,0.0,0.0,0.0,0.0,0.0,0.0,0.0,0.0,0.8602,0.0,0.0,0.0,0.0,0.0,0.0,0.0,0.0,0.0,0.0,0.574,0.5843,0.5952,0.6204,0.0,0.0,0.0,0.0,0.6988,0.6094,0.5811,0.5813,0.6219,0.6076,0.6209,0.713,0.0,0.0,0.7771,0.8502,0.9277,1.0325,1.0084,1.0073,1.0814,1.0864,1.083,1.0562,1.0218,0.9887,0.9112,0.8549,0.858,-0.9156,0.0,0.0,0.0,0.0,-0.8842,-0.9292,-0.9477,-0.9723,-0.9835,-0.9803,-0.9258,0.0,0.0,0.0,0.0,0.0,0.0,-0.9524,-1.0595,-1.1051,-1.1408,-1.1678,-1.1168,-1.0755,-1.0422,-0.9609,-0.9058,-0.8732,-0.7733,-0.6467,-0.5044,0.0,0.0,0.0,0.0,-0.7629,-0.8991,-1.0091,-1.1006,-1.1772,-1.2038,-1.1795,-1.0912,-0.9056,-0.7196,-0.5332,-0.349,-0.1786,-0.0324,0.0764,0.0,0.0,0.0,0.0,0.0,0.0,0.0,0.0,0.0,0.0,0.0,0.0,0.0,0.0,0.0,0.0,0.0,0.0,0.0,0.8593,0.9106,0.8806,0.0,0.0,0.0,0.0,0.0,0.0,0.0,0.0,0.0,0.444,0.4897,0.5229,0.0,0.0,0.4126,0.3818,0.4826,0.5195,0.3984,0.0,0.0,0.0,0.4276,0.4507,0.5162,0.5689,0.6497,0.788,0.8155,0.8397,0.9006,0.8562,0.8163,0.8229,0.9131,0.9624,0.9311,0.8855,0.8223,0.7367,0.6995,0.7138,-1.2439,-1.0983,-1.0409,-1.0299,-1.0575,-1.1265,-1.1756,-1.2079,-1.2253,-1.2295,-1.2251,-1.161,-1.1158,-1.092,-1.026,0.0,0.0,0.0,-1.1817,-1.2893,-1.3206,-1.3482,-1.377,-1.3218,-1.2871,-1.2649,-1.1842,-1.1352,-1.1114,-1.0636,-0.9692,-0.8348,0.0,0.0,-0.7373,-0.8012,-0.8821,-0.9841,-1.0699,-1.1437,-1.2006,-1.2115,-1.1763,-1.0953,-0.9734,-0.8264,-0.649,-0.4739,-0.2967,-0.1193,0.01,0.1179,0.0,0.0,0.0,0.0,0.0,0.0,0.0,0.0,0.0,0.0,0.0,0.4384,0.5525,0.0,0.0,0.0,0.7645,0.871,0.9601,0.9781,0.0,0.0,0.0,0.0,0.0,0.0,0.0,0.5912,0.5005,0.3994,0.2901,0.2247,0.2111,0.2622,0.1887,0.1369,0.156,0.0,0.2886,0.1219,0.037,0.0312,0.1369,0.1635,0.1944,0.2559,0.3394,0.483,0.6888,0.6412,0.5947,0.6473,0.5894,0.4736,0.3607,0.4621,0.6055,0.6843,0.6568,0.5829,0.4757,0.4405,0.4744,-1.5419,-1.4979,-1.2824,-1.251,-1.3461,-1.3525,-1.4015,-1.4729,-1.4729,-1.4747,-1.4673,-1.3894,-1.3525,-1.3415,-1.2539,0.0,0.0,-1.3442,-1.4067,-1.5129,-1.5253,-1.5488,-1.5808,-1.525,-1.4983,-1.4965,-1.4046,-1.3629,-1.3582,-1.2902,-1.2443,-1.2167,-0.9903,-0.8796,-0.8911,-0.9495,-1.014,-1.076,-1.1443,-1.1957,-1.2295,-1.2128,-1.1769,-1.12,-1.0364,-0.9097,-0.7385,-0.5995,-0.4302,-0.2224,-0.0792,0.0535,0.1823,0.0,0.0,0.0,0.0,0.0,0.0,0.0,0.0,0.0,0.0,0.0,0.0,0.0,0.0,0.0,0.866,0.0,1.0739,1.0431,0.0,0.0,0.0,0.814,0.7647,0.7422,0.6953,0.6187,0.0,0.0,0.0,0.0,-0.2791,-0.1356,-0.2044,-0.2203,-0.0997,0.0029,0.0,-0.234,-0.3934,-0.4204,-0.2321,-0.1723,-0.1345,-0.0722,0.0226,0.1766,0.4303,0.3193,0.2344,0.3172,0.208,0.0098,-0.2306,-0.1434,0.0358,0.2992,0.3359,0.2747,0.1449,0.1128,0.1528,-1.6464,-1.6522,-1.5662,-1.5164,-1.495,-1.5522,-1.5861,-1.6042,-1.6042,-1.6042,-1.6023,-1.5659,-1.5282,-1.4874,-1.4438,-1.4495,-1.4872,-1.515,-1.5603,-1.6144,-1.6195,-1.6252,-1.6306,-1.5939,-1.5733,-1.5696,-1.5047,-1.4717,-1.469,-1.3843,-1.3387,-1.3285,-1.2375,-1.1388,-1.0414,-1.0646,-1.0978,-1.1451,-1.2171,-1.2664,-1.2926,-1.2785,-1.2418,-1.1795,-1.0864,-0.9661,-0.8232,-0.6672,-0.4925,-0.3091,-0.1526,-0.0111,0.1178,0.2063,0.0,0.0,0.0,0.0,0.0,0.0,0.0,0.0,0.0,0.5838,0.6614,0.0,0.6982,0.0,0.8686,0.9576,1.0086,1.0029,0.0,0.0,0.9478,0.9232,0.8567,0.8129,0.7166,0.5266,0.2863,0.0238,-0.2632,-0.5743,-0.8169,-0.9322,-0.7708,-0.6006,-0.4912,-0.4129,-0.4591,-0.7101,-0.9181,-0.9445,-0.6824,-0.5631,-0.5064,-0.4766,-0.4115,-0.2695,0.0066,-0.1219,-0.2561,-0.2428,-0.3988,-0.599,-0.774,-0.631,-0.4919,-0.4417,-0.2783,-0.141,-0.2385,-0.2766,-0.2464,-1.7346,-1.7484,-1.7251,-1.6921,-1.658,-1.6799,-1.6999,-1.7164,-1.7174,-1.7164,-1.7154,-1.6863,-1.644,-1.5985,-1.5829,-1.5963,-1.6284,-1.6471,-1.6776,-1.7154,-1.7164,-1.7164,-1.7154,-1.6808,-1.6605,-1.6596,-1.6069,-1.5807,-1.5779,-1.5144,-1.4687,-1.4453,-1.4056,-1.3286,-1.222,-1.2062,-1.2192,-1.2524,-1.2989,-1.3309,-1.347,-1.3076,-1.2562,-1.1892,-1.1083,-0.9999,-0.8648,-0.7189,-0.559,-0.3825,-0.2257,-0.088,0.0313,0.1287,0.1986,0.0,0.0,0.0,0.0,0.0,0.0,0.0,0.0,0.0,0.0,0.0,0.7339,0.0,0.8603,0.0,0.9529,0.9449,0.9288,0.8954,0.8823,0.8698,0.863,0.7082,0.5111,0.277,-0.0208,-0.3341,-0.6513,-0.9728,-1.2523,-1.4599,-1.3764,-1.2022,-0.9822,-0.9143,-1.0109,-1.309,-1.4478,-1.4019,-1.0774,-0.9709,-0.9173,-0.8906,-0.8479,-0.7426,-0.5445,-0.5718,-0.6647,-0.779,-0.8877,-1.0164,-1.1874,-1.0564,-0.9189,-0.9263,-0.8384,-0.7176,-0.6567,-0.6606,-0.6302,-1.8008,-1.8008,-1.8008,-1.8008,-1.7988,-1.7617,-1.7666,-1.8008,-1.8008,-1.8008,-1.7988,-1.7627,-1.7256,-1.6872,-1.6863,-1.7067,-1.7461,-1.7461,-1.7666,-1.7998,-1.8008,-1.8008,-1.7998,-1.7637,-1.7461,-1.7474,-1.7021,-1.6785,-1.6775,-1.6421,-1.6012,-1.5535,-1.5195,-1.4722,-1.4143,-1.3727,-1.3611,-1.3805,-1.3935,-1.4,-1.3977,-1.3441,-1.2746,-1.1929,-1.1292,-1.0299,-0.8923,-0.7792,-0.6423,-0.4699,-0.3265,-0.198,-0.0841,0.0057,0.068,0.0,0.1415,0.0,0.0,0.0,0.0,0.0,0.0,0.0,0.0,0.6988,0.7128,0.7653,0.7831,0.8,0.8288,0.8079,0.7754,0.7336,0.6797,0.6949,0.7965,0.488,0.1308,-0.179,-0.463,-0.7547,-1.066,-1.365,-1.6239,-1.799,-1.8902,-1.8097,-1.5397,-1.4658,-1.5715,-1.8965,-1.8948,-1.7131,-1.4524,-1.3603,-1.3279,-1.2983,-1.263,-1.2048,-1.0857,-1.0155,-1.0499,-1.2593,-1.2868,-1.3365,-1.5419,-1.4194,-1.292,-1.2816,-1.2825,-1.2279,-1.0552,-0.9976,-0.9876,-1.8008,-1.8008,-1.8008,-1.8008,-1.7998,-1.793,-1.7939,-1.8008,-1.8008,-1.8008,-1.8008,-1.793,-1.7818,-1.7773,-1.773,-1.7803,-1.7891,-1.7891,-1.7939,-1.8008,-1.8008,-1.8008,-1.8008,-1.793,-1.7891,-1.7861,-1.7461,-1.7288,-1.7256,-1.6703,-1.6395,-1.6287,-1.5963,-1.5799,-1.5839,0.0,0.0,0.0,-1.4922,-1.4911,-1.4919,-1.4482,-1.384,-1.2936,-1.2194,0.0,-0.9964,-0.8939,-0.7734,-0.6383,-0.517,0.0,0.0,0.0,0.0,0.0,0.0,0.0,0.0,0.0,0.0,0.0,0.0557,0.2036,0.4694,0.4801,0.467,0.458,0.4292,0.4101,0.3992,0.3563,0.3196,0.3015,0.2499,0.357,0.6809,0.1826,-0.4687,-1.1663,-1.1662,-1.2105,-1.4937,-1.7383,-1.9283,-2.0642,-2.1523,-2.1675,-2.105,-1.9838,-1.9813,-2.0955,-1.9991,-1.8708,-1.7596,-1.7027,-1.6607,-1.6524,-1.6199,-1.5607,-1.479,-1.4313,-1.4695,-1.6581,-1.6444,-1.6279,-1.7672,-1.6662,-1.5437,-1.5419,-1.5226,-1.4553,-1.2777,-1.2458,-1.2552,-1.8008,0.0,-1.8008,-1.8008,0.0,-1.8008,-1.8008,-1.8008,-1.8008,-1.8008,-1.8008,-1.8008,-1.8008,-1.8008,-1.8008,-1.8008,-1.8008,-1.8008,-1.8008,-1.8008,-1.8008,-1.8042,-1.8134,-1.8134,-1.8168,-1.8236,-1.8028,-1.7929,-1.7909,-1.7649,-1.7399,-1.7182,-1.7129,-1.7062,-1.6963,-1.7154,-1.689,-1.614,-1.607,-1.6,-1.5903,-1.5498,-1.4851,-1.3918,0.0,0.0,0.0,0.0,0.0,0.0,0.0,0.0,0.0,0.0,0.0,-0.5412,-0.4998,-0.4724,-0.4643,-0.4357,-0.4244,-0.4436,-0.4837,-0.3262,0.0994,0.1073,0.0705,0.0293,-0.0149,-0.0573,-0.099,-0.1551,-0.2058,-0.2437,-0.3034,-0.1983,0.0603,-0.3872,-1.0565,-1.6651,-1.662,-1.6362,-1.8578,-2.0106,-2.1383,-2.2317,-2.2703,-2.2979,-2.3098,-2.2406,-2.1846,-2.1921,-2.0977,-2.0042,-1.9646,-1.9245,-1.8893,-1.867,-1.8362,-1.7943,-1.7468,-1.7252,-1.7544,-1.8658,-1.8543,-1.8504,-1.875,-1.8054,-1.7191,-1.6838,-1.6528,-1.5987,-1.4855,-1.4392,-1.4222,-1.8008,-1.8008,-1.8008,-1.8008,-1.8008,-1.8008,-1.8008,-1.8008,0.0,0.0,0.0,-1.8008,-1.8008,-1.8032,-1.8042,-1.8076,-1.8086,-1.8066,-1.8042,-1.8042,-1.8008,-1.81,-1.8303,-1.8313,-1.8405,-1.8549,-1.8549,-1.8573,-1.864,-1.861,-1.8494,-1.8243,-1.8338,-1.8318,-1.8084,-1.842,-1.8345,-1.7813,-1.7404,-1.7182,-1.6975,-1.6636,-1.6018,-1.5157,-1.4751,-1.4094,-1.3194,-1.2578,-1.1932,-1.1211,-1.0653,-1.0231,-1.0049,-0.9835,-0.9759,-0.9823,-0.9591,-0.9413,-0.9281,-0.9164,-0.9267,-0.9727,-1.0599,-0.8856,-0.3604,-0.3663,-0.4154,-0.4657,-0.5234,-0.5787,-0.6379,-0.7021,-0.7666,-0.8246,-0.9003,-0.8444,-0.6368,-1.0345,-1.5727,-2.0392,-2.0196,-1.986,-2.1261,-2.2127,-2.283,-2.3216,-2.3304,-2.3414,-2.3486,-2.3157,-2.2686,-2.2244,-2.1714,-2.1331,-2.1102,-2.0758,-2.0446,-2.0156,-1.9825,-1.9514,-1.9291,-1.9172,-1.9317,-1.9592,-1.9798,-1.9643,-1.9448,-1.8895,-1.8333,-1.7826,-1.7429,-1.7028,-1.6552,-1.5923,-1.541,-1.8008,-1.8008,-1.8008,-1.8008,-1.8008,-1.8008,-1.8008,-1.8008,-1.8008,-1.8008,-1.8008,-1.8008,-1.8076,-1.8269,-1.8269,-1.8313,-1.8414,-1.8313,-1.8269,0.0,-1.8076,-1.811,-1.8313,-1.8313,-1.8472,-1.8751,-1.8741,-1.8898,-1.9154,-1.9199,-1.9234,-1.9345,-1.9375,-1.9519,-1.9738,-2.0074,-2.0301,-2.0323,-1.9156,-1.8523,-1.8499,-1.8267,-1.7833,-1.7226,-1.6796,-1.6251,-1.5626,-1.5173,-1.4755,-1.4285,-1.4011,-1.3778,-1.3601,-1.3711,-1.376,-1.3809,-1.3859,-1.3878,-1.3847,-1.393,-1.4411,-1.5337,-1.588,-1.4018,-0.9153,-0.942,-1.0026,-1.02,-1.0952,-1.1765,-1.2261,-1.2848,-1.3411,-1.4017,-1.4731,-1.4699,-1.3489,-1.6229,-1.9471,-2.2457,-2.2317,-2.2007,-2.2719,-2.3135,-2.3348,-2.3501,-2.3508,-2.3566,-2.353,-2.3356,-2.3023,-2.2709,-2.2558,-2.2429,-2.2189,-2.1969,-2.1612,-2.1554,-2.0858,-2.0258,-1.9965,-1.9759,-1.9669,-1.9773,-1.9798,-1.9773,-1.9708,-1.9486,-1.904,-1.8598,-1.8143,-1.7694,-1.7134,-1.6599,-1.6181,-1.8008,-1.8008,-1.8008,-1.8008,-1.8008,-1.8008,-1.8008,-1.8008,-1.8008,-1.8008,-1.8008,-1.811,-1.8236,-1.8405,-1.8506,-1.8674,-1.8808,-1.864,-1.8573,-1.8583,-1.8347,-1.8448,-1.8707,-1.8831,-1.9021,-1.9374,-1.9594,-1.9737,-1.9901,-2.015,-2.0323,-2.0442,-2.0581,-2.0826,-2.1092,-2.1239,-2.1388,-2.158,-2.0581,-1.9977,-1.989,-1.9814,-1.9531,-1.9083,-1.8897,-1.8545,-1.8061,-1.7874,-1.7653,-1.7398,-1.7379,-1.7384,-1.7399,-1.7697,-1.7997,-1.8164,-1.8333,-1.8459,-1.8542,-1.8841,-1.9399,-2.0221,-2.0388,-1.954,-1.7198,-1.5719,-1.5042,-1.5154,-1.5888,-1.6552,-1.7096,-1.7638,-1.8126,-1.8496,-1.9005,-1.9207,-1.922,-2.0234,-2.1811,-2.3165,-2.3157,-2.3091,-2.3414,-2.3523,-2.3566,-2.3595,-2.3595,-2.3595,-2.3595,-2.3501,-2.3341,-2.315,-2.3016,-2.2912,-2.2822,-2.2472,-2.2184,-2.1949,-2.1251,-2.0635,-2.0271,-1.9965,-1.9824,-1.9798,-1.9798,-1.9798,-1.9798,-1.9591,-1.9263,-1.8866,-1.8425,-1.7897,-1.7368,-1.6751,-1.6124,-1.8061,-1.8008,-1.8008,-1.8008,-1.8008,-1.8008,-1.8008,-1.8008,-1.8042,-1.8076,-1.8144,-1.8279,-1.8472,-1.8707,-1.8931,-1.9142,-1.9297,-1.9164,-1.9065,-1.8975,-1.8818,-1.8908,-1.9198,-1.9386,-1.9671,-2.0053,-2.041,-2.0581,-2.0752,-2.1092,-2.1313,-2.1388,-2.1639,-2.1846,-2.1982,-2.2075,-2.218,-2.2309,-2.1827,-2.1396,-2.1132,-2.1132,-2.0983,-2.076,-2.0728,-2.0589,-2.0299,-2.0267,-2.0234,-2.0181,-2.0288,-2.0458,-2.0692,-2.1155,-2.1529,-2.1815,-2.2091,-2.2365,-2.2565,-2.2942,-2.3414,-2.3979,-2.3843,-2.3662,-2.3327,-2.1106,-1.9422,-1.9368,-1.9674,-2.02,-2.0607,-2.1075,-2.1469,-2.1697,-2.1946,-2.2081,-2.2543,-2.2785,-2.3068,-2.3523,-2.356,-2.3538,-2.3588,-2.3595,-2.3595,-2.3595,-2.3595,-2.3595,-2.3595,-2.3595,-2.3588,-2.3516,-2.3341,-2.3238,-2.3179,-2.2799,-2.2449,-2.217,-2.1407,-2.0809,-2.0372,-2.0042,-1.9824,-1.9798,-1.9798,-1.9798,-1.9773,-1.963,-1.9316,-1.8919,-1.8479,-1.7936,-1.7228,-1.662,-1.6009,-1.8325,-1.8027,-1.8018,-1.8008,-1.8008,-1.8008,-1.8008,-1.8042,-1.8212,-1.8347,-1.8448,-1.8482,-1.8764,-1.9243,-1.9573,-1.9835,-1.9998,-1.9966,-1.9824,-1.9572,-1.9506,-1.9539,-1.9605,-1.9879,-2.0193,-2.0539,-2.0912,-2.123,-2.1514,-2.1733,-2.1932,-2.2092,-2.2235,-2.2316,-2.2389,-2.2622,-2.2818,-2.286,-2.2896,-2.2641,-2.2123,-2.2061,-2.2049,-2.2018,-2.2018,-2.2006,-2.1944,-2.1987,-2.2006,-2.2149,-2.2224,-2.2445,-2.2779,-2.3242,-2.3555,-2.3732,-2.4257,-2.4784,-2.5162,-2.5398,-2.5576,-2.5943,-2.5512,-2.5094,-2.479,-2.3937,-2.298,-2.2152,-2.2156,-2.234,-2.2634,-2.2762,-2.2807,-2.2793,-2.3068,-2.3341,-2.3297,-2.3421,-2.3566,-2.3573,-2.3588,-2.3595,-2.3595,-2.3595,-2.3595,-2.3595,-2.3595,-2.3595,-2.3595,-2.3595,-2.3595,-2.3573,-2.353,-2.3545,-2.3443,-2.3157,-2.2731,-2.2397,-2.1609,-2.0944,-2.0523,-2.0118,-1.9798,-1.9798,-1.9798,-1.9798,-1.9773,-1.9656,-1.9434,-1.8972,-1.8479,-1.7897,-1.6994,-1.6477,-1.6163,-1.85,-1.8315,-1.8081,-1.8008,-1.8008,-1.8008,-1.8008,-1.8008,-1.8212,-1.8506,-1.8875,-1.9121,-1.9452,-1.9802,-2.0237,-2.056,-2.072,-2.0709,-2.056,-2.0345,-2.0248,-2.0248,-2.041,-2.072,-2.1008,-2.1262,-2.1651,-2.1944,-2.213,-2.2377,-2.2549,-2.2714,-2.2805,-2.2805,-2.2805,-2.2927,-2.3017,-2.3017,-2.3078,-2.2987,-2.2757,-2.2714,-2.2726,-2.2726,-2.2714,-2.2787,-2.2878,-2.2921,-2.3012,-2.3271,-2.3501,-2.3741,-2.4105,-2.4624,-2.5021,-2.5245,-2.5701,-2.6122,-2.6392,-2.6472,-2.663,-2.6933,-2.6385,-2.5854,-2.5375,-2.4733,-2.3976,-2.3252,-2.315,-2.3216,-2.3304,-2.3355,-2.3377,-2.3399,-2.3501,-2.356,-2.3523,-2.3566,-2.3595,-2.3595,-2.3595,-2.3595,-2.3595,-2.3595,-2.3595,-2.3595,-2.3595,-2.3595,-2.3595,-2.3595,-2.3595,-2.3588,-2.3501,-2.3458,-2.348,-2.3179,-2.2777,-2.2319,-2.1599,-2.0908,-2.0511,-2.0118,-1.9798,-1.9798,-1.9798,-1.9798,-1.9798,-1.9604,-1.9368,-1.8866,-1.7963,-1.719,-1.6591,-1.6288,-1.6058,-1.8802,-1.8559,-1.8149,-1.8008,-1.8008,-1.8008,-1.8042,-1.81,-1.8337,-1.8764,-1.933,-1.9846,-2.0291,-2.0613,-2.1008,-2.1273,-2.1443,-2.1463,-2.1325,-2.1178,-2.1083,-2.1094,-2.121,-2.1494,-2.1745,-2.1932,-2.2316,-2.2531,-2.2604,-2.2818,-2.303,-2.3078,-2.3095,-2.3183,-2.3333,-2.3364,-2.3409,-2.3547,-2.3434,-2.3346,-2.3321,-2.3243,-2.3168,-2.3168,-2.3228,-2.3318,-2.3522,-2.3522,-2.37,-2.4054,-2.4347,-2.4666,-2.5076,-2.5633,-2.6084,-2.6433,-2.6724,-2.6959,-2.7144,-2.717,-2.7248,-2.7367,-2.6842,-2.6197,-2.5636,-2.4993,-2.4321,-2.3678,-2.356,-2.3538,-2.3573,-2.3595,-2.3595,-2.3595,-2.3595,-2.3595,-2.3595,-2.3595,-2.3595,-2.3595,-2.3595,-2.3595,-2.3595,-2.3595,-2.3595,-2.3595,-2.3595,-2.3595,-2.3595,-2.3595,-2.3595,-2.3566,-2.3363,-2.3275,-2.3363,-2.3061,-2.2655,-2.2156,-2.1455,-2.0809,-2.0448,-2.008,-1.9798,-1.9798,-1.9798,-1.9798,-1.9811,-1.9591,-1.9119,-1.8479,-1.7617,-1.6715,-1.6316,-1.6,-1.5817,-1.9348,-1.8588,-1.8149,-1.8008,-1.8008,-1.8008,-1.811,-1.8269,-1.8607,-1.9164,-1.9813,-2.0539,-2.1198,-2.1753,-2.1827,-2.1963,-2.2123,-2.2266,-2.2118,-2.1858,-2.2018,-2.2006,-2.1889,-2.2192,-2.2359,-2.2389,-2.2696,-2.2909,-2.3047,-2.3078,-2.3108,-2.3095,-2.3145,-2.3396,-2.3841,-2.3941,-2.4217,-2.4512,-2.4192,-2.3941,-2.391,-2.3591,-2.3428,-2.3433,-2.3522,-2.3658,-2.3861,-2.3891,-2.4083,-2.4465,-2.4793,-2.523,-2.5797,-2.6244,-2.6736,-2.7233,-2.7335,-2.7412,-2.7524,-2.7549,-2.7549,-2.75,-2.7036,-2.6333,-2.5749,-2.5083,-2.441,-2.3684,-2.364,-2.3595,-2.3595,-2.3595,-2.3595,-2.3595,-2.3595,-2.3595,-2.3595,-2.3595,-2.3595,-2.3595,-2.3595,-2.3595,-2.3595,-2.3595,-2.3595,-2.3595,-2.3595,-2.3573,-2.3588,-2.3595,-2.3566,-2.3429,-2.3209,-2.3016,-2.3172,-2.2881,-2.2449,-2.1921,-2.1299,-2.0709,-2.041,-2.0131,-1.9939,-1.9798,-1.9798,-1.9798,-1.9785,-1.9448,-1.8869,-1.8193,-1.7378,-1.6636,-1.6279,-1.577,-1.5694,-1.9377,-1.8568,-1.8184,-1.8008,-1.8008,-1.8008,-1.811,-1.8337,-1.8808,-1.9363,-2.0063,-2.088,-2.1588,-2.2211,-2.2457,-2.2531,-2.2525,-2.2665,-2.2604,-2.2451,-2.2494,-2.2494,-2.2439,-2.2635,-2.2726,-2.2757,-2.2939,-2.3047,-2.3095,-2.3095,-2.3095,-2.3183,-2.3484,-2.3803,-2.4029,-2.4356,-2.46,-2.477,-2.469,-2.4532,-2.4185,-2.4208,-2.412,-2.3861,-2.3789,-2.3953,-2.429,-2.4276,-2.4523,-2.5049,-2.5328,-2.5688,-2.6258,-2.6788,-2.7192,-2.7473,-2.7539,-2.7549,-2.76,-2.7585,-2.7585,-2.757,-2.739,-2.6916,-2.6273,-2.563,-2.4971,-2.4335,-2.3819,-2.3625,-2.3595,-2.3595,-2.3595,-2.3595,-2.3595,-2.3595,-2.3595,-2.3595,-2.3595,-2.3595,-2.3595,-2.3595,-2.3595,-2.3595,-2.3595,-2.3595,-2.3566,-2.3538,-2.3538,-2.3566,-2.3523,-2.3216,-2.2814,-2.2495,-2.2563,-2.2486,-2.2161,-2.1565,-2.0981,-2.0573,-2.0207,-2.0016,-1.9824,-1.9798,-1.9798,-1.9669,-1.9578,-1.9139,-1.8565,-1.8016,-1.7173,-1.6807,-1.6356,-1.6108,-1.6194,-1.9492,-1.8828,-1.8389,-1.8135,-1.8008,-1.8066,-1.8236,-1.8506,-1.9075,-1.9748,-2.0484,-2.1305,-2.2006,-2.2543,-2.2848,-2.2909,-2.2848,-2.2909,-2.2909,-2.283,-2.2818,-2.2818,-2.2848,-2.2909,-2.2957,-2.2969,-2.3047,-2.3095,-2.3095,-2.3095,-2.3095,-2.3133,-2.3715,-2.4092,-2.4318,-2.4795,-2.5134,-2.5305,-2.5367,-2.5173,-2.4804,-2.469,-2.4628,-2.4455,-2.4275,-2.4361,-2.4694,-2.478,-2.5063,-2.5618,-2.5865,-2.6204,-2.6762,-2.7218,-2.7514,-2.7575,-2.7585,-2.7585,-2.7585,-2.7585,-2.7585,-2.7585,-2.757,-2.7315,-2.6671,-2.5974,-2.533,-2.4649,-2.3992,-2.3595,-2.3595,-2.3595,-2.3595,-2.3595,-2.3595,-2.3595,-2.3595,-2.3595,-2.3595,-2.3595,-2.3595,-2.3595,-2.3595,-2.3595,-2.3595,-2.3595,-2.3523,-2.3487,-2.3451,-2.3458,-2.337,-2.2971,-2.2356,-2.203,-2.1912,-2.1793,-2.166,-2.1153,-2.0772,-2.0372,-2.0093,-1.9914,-1.9798,-1.9798,-1.9695,-1.9514,-1.9208,-1.8743,-1.8322,-1.7829,-1.7535,-1.7193,-1.687,-1.6631,-1.6723,-1.9668,-1.9248,-1.8783,-1.8354,-1.8086,-1.8221,-1.8472,-1.8875,-1.9495,-2.0226,-2.104,-2.1862,-2.2389,-2.2848,-2.3017,-2.3108,-2.3078,-2.3078,-2.3078,-2.3078,-2.3078,-2.3078,-2.3078,-2.3078,-2.3078,-2.3078,-2.3108,-2.3095,-2.3095,-2.3095,-2.3095,-2.3195,-2.3766,-2.4305,-2.4775,-2.531,-2.5862,-2.6181,-2.6071,-2.5897,-2.5815,-2.5228,-2.501,-2.5097,-2.4954,-2.4946,-2.5202,-2.5314,-2.566,-2.6203,-2.6404,-2.6762,-2.7233,-2.7514,-2.7585,-2.7585,-2.7585,-2.7585,-2.7585,-2.7585,-2.7585,-2.7585,-2.7585,-2.7345,-2.6791,-2.6093,-2.5412,-2.4784,-2.4133,-2.367,-2.3625,-2.3595,-2.3595,-2.3595,-2.3595,-2.3595,-2.3595,-2.3595,-2.3595,-2.3595,-2.3595,-2.3595,-2.3595,-2.3595,-2.3595,-2.3573,-2.3516,-2.3444,-2.3341,-2.3297,-2.3075,-2.2578,-2.1935,-2.1434,-2.1264,-2.108,-2.0932,-2.0721,-2.0472,-2.0156,-2.0016,-1.9862,-1.9798,-1.9773,-1.9514,-1.9303,-1.888,-1.8453,-1.8334,-1.7966,-1.7742,-1.7523,-1.7261,-1.7076,-1.7112,-1.9834,-1.9629,-1.889,-1.8529,-1.8398,-1.834,-1.8573,-1.9075,-1.9715,-2.0516,-2.1325,-2.2037,-2.2543,-2.2878,-2.3047,-2.3095,-2.3095,-2.3095,-2.3095,-2.3095,-2.3095,-2.3095,-2.3095,-2.3095,-2.3095,-2.3095,-2.3095,-2.3095,-2.3095,-2.3095,-2.3095,-2.3271,-2.4061,-2.4587,-2.485,-2.5699,-2.637,-2.6607,-2.6676,-2.6609,-2.6486,-2.6289,-2.6021,-2.5627,-2.5652,-2.5696,-2.5674,-2.5715,-2.6042,-2.6592,-2.6686,-2.6937,-2.731,-2.7524,-2.7585,-2.7585,-2.7585,-2.7585,-2.7585,-2.7585,-2.7585,-2.7585,-2.7585,-2.7525,-2.727,-2.6632,-2.5989,-2.536,-2.4679,-2.4126,-2.3729,-2.3595,-2.3595,-2.3595,-2.3595,-2.3595,-2.3595,-2.3595,-2.3595,-2.3595,-2.3595,-2.3595,-2.3595,-2.3595,-2.3595,-2.3551,-2.3407,-2.3253,-2.3297,-2.3031,-2.2586,-2.2053,-2.1372,-2.0921,-2.0833,-2.0709,-2.0523,-2.0409,-2.0195,-2.0042,-1.9914,-1.9837,-1.9798,-1.9592,-1.9331,-1.8958,-1.8504,-1.8287,-1.8155,-1.8089,-1.7874,-1.7691,-1.7556,-1.752,-1.7533,-2.0059,-1.9826,-1.9299,-1.905,-1.9,-1.8959,-1.9377,-1.9948,-2.0522,-2.1229,-2.1941,-2.24,-2.2726,-2.2927,-2.3047,-2.3095,-2.3095,-2.3095,-2.3095,-2.3095,-2.3095,-2.3095,-2.3095,-2.3095,-2.3095,-2.3095,-2.3095,-2.3095,-2.3095,-2.3108,-2.3208,-2.3559,-2.4349,-2.4901,-2.5159,-2.5996,-2.6555,-2.6726,-2.6964,-2.71,-2.7125,-2.7133,-2.6934,-2.6546,-2.6323,-2.6257,-2.6272,-2.6143,-2.634,-2.6858,-2.7026,-2.7233,-2.7463,-2.7549,-2.7585,-2.7585,-2.7585,-2.7585,-2.7585,-2.7585,-2.7585,-2.7585,-2.7585,-2.7585,-2.748,-2.7001,-2.6378,-2.5989,-2.5136,-2.4425,-2.4036,-2.3714,-2.3625,-2.3595,-2.3595,-2.3595,-2.3595,-2.3595,-2.3595,-2.3595,-2.3595,-2.3595,-2.3595,-2.3595,-2.3573,-2.3523,-2.3304,-2.3068,-2.3105,-2.276,-2.217,-2.1541,-2.0908,-2.0623,-2.056,-2.0372,-2.0105,-2.0054,-1.9978,-1.9914,-1.9824,-1.9798,-1.9773,-1.9305,-1.8963,-1.8508,-1.8068,-1.8046,-1.7965,-1.7937,-1.8021,-1.8006,-1.7893,-1.7849,-1.7852,-2.0322,-1.9961,-1.9912,-1.9787,-1.9726,-2.0007,-2.054,-2.1255,-2.1756,-2.2278,-2.2863,-2.3064,-2.3156,-2.3228,-2.3308,-2.3246,-2.3158,-2.3095,-2.3095,-2.3095,-2.3095,-2.3095,-2.3095,-2.3095,-2.3095,-2.3095,-2.3095,-2.3095,-2.3095,-2.3108,-2.3396,-2.3941,-2.4474,-2.5084,-2.5548,-2.621,-2.6589,-2.6816,-2.7134,-2.7477,-2.7762,-2.7675,-2.7642,-2.7776,-2.7065,-2.6719,-2.675,-2.6559,-2.6606,-2.7115,-2.7397,-2.7509,-2.7575,-2.7585,-2.7585,-2.7585,-2.7585,-2.7585,-2.7585,-2.7585,-2.7585,-2.7585,-2.7585,-2.7585,-2.751,-2.7136,-2.6692,-2.6452,-2.5525,-2.4754,-2.4515,-2.4081,-2.3744,-2.361,-2.3595,-2.3595,-2.3595,-2.3595,-2.3595,-2.3595,-2.3595,-2.3595,-2.3595,-2.3595,-2.3566,-2.3473,-2.326,-2.3061,-2.2844,-2.2457,-2.1769,-2.108,-2.0422,-2.0346,-2.0271,-2.0156,-1.9939,-1.9914,-1.9837,-1.9811,-1.9773,-1.9747,-1.9162,-1.8724,-1.8391,-1.797,-1.7805,-1.7797,-1.7937,-1.8083,-1.8177,-1.8291,-1.8202,-1.8066,-1.7998,-2.0624,-2.0611,-2.0276,-2.0302,-2.0541,-2.0643,-2.109,-2.1781,-2.2456,-2.3103,-2.3648,-2.404,-2.4159,-2.4299,-2.3929,-2.3778,-2.3672,-2.3321,-2.3095,-2.3095,-2.3095,-2.3095,-2.3095,-2.3095,-2.3095,-2.3095,-2.3095,-2.3095,-2.3095,-2.3133,-2.3464,-2.3991,-2.4594,-2.5096,-2.5611,-2.6223,-2.6714,-2.71,-2.7335,-2.7789,-2.83,-2.8424,-2.8333,-2.8081,-2.795,-2.7474,-2.6962,-2.6831,-2.691,-2.7167,-2.7463,-2.7585,-2.7585,-2.7585,-2.7585,-2.7585,-2.7585,-2.7585,-2.7585,-2.7585,-2.7585,-2.7585,-2.7585,-2.7585,-2.7585,-2.745,-2.7106,-2.6707,-2.6183,-2.563,-2.4859,-2.444,-2.4126,-2.3684,-2.3595,-2.3595,-2.3595,-2.3595,-2.3595,-2.3595,-2.3625,-2.3655,-2.367,-2.3655,-2.3596,-2.3466,-2.3194,-2.2904,-2.2663,-2.2133,-2.1423,-2.056,-1.9978,-2.0003,-2.0003,-1.9914,-1.985,-1.9824,-1.9785,-1.9734,-1.9708,-1.9708,-1.8632,-1.7567,-1.739,-1.704,-1.7387,-1.7593,-1.7859,-1.8124,-1.8134,-1.8144,-1.81,-1.7998,-1.7974,-2.0731,-2.0886,-2.0675,-2.0964,-2.1543,-2.1685,-2.2232,-2.3015,-2.3454,-2.396,-2.4471,-2.4648,-2.4736,-2.4738,-2.4481,-2.4356,-2.4293,-2.396,-2.3884,-2.3965,-2.4052,-2.3725,-2.3276,-2.3095,-2.3095,-2.3095,-2.3108,-2.3168,-2.3261,-2.3442,-2.3901,-2.4532,-2.5012,-2.5522,-2.6097,-2.6319,-2.676,-2.7235,-2.7536,-2.802,-2.8748,-2.9022,-2.9122,-2.8901,-2.8785,-2.8087,-2.7089,-2.6953,-2.7067,-2.7258,-2.7488,-2.7585,-2.7585,-2.7585,-2.7585,-2.7585,-2.7585,-2.7585,-2.7585,-2.7585,-2.7585,-2.7585,-2.7585,-2.7585,-2.7585,-2.7585,-2.7375,-2.7106,-2.6806,-2.6228,-2.5585,-2.4963,-2.4321,-2.3744,-2.3588,-2.3566,-2.3573,-2.3595,-2.3759,-2.3909,-2.4007,-2.4007,-2.4029,-2.4029,-2.3769,-2.343,-2.3038,-2.2746,-2.2411,-2.1769,-2.1106,-2.0321,-1.9824,-1.9862,-1.9914,-1.985,-1.9798,-1.9773,-1.9578,-1.9552,-1.9526,-1.9474,-1.8309,-1.7207,-1.6684,-1.6485,-1.7032,-1.745,-1.7713,-1.7889,-1.7948,-1.7964,-1.793,-1.7862,-1.7906,-2.0701,-2.0952,-2.1223,-2.1807,-2.2569,-2.2979,-2.3641,-2.4566,-2.4644,-2.4922,-2.5255,-2.5078,-2.5139,-2.4983,-2.4996,-2.4895,-2.4928,-2.4739,-2.4887,-2.4995,-2.5058,-2.4712,-2.3809,-2.3636,-2.3563,-2.3538,-2.3369,-2.3571,-2.3882,-2.4249,-2.4758,-2.5345,-2.5799,-2.6209,-2.6591,-2.6645,-2.6863,-2.7403,-2.7789,-2.8346,-2.9067,-2.9446,-2.9685,-2.9771,-2.9201,-2.8377,-2.7485,-2.718,-2.721,-2.7376,-2.7499,-2.756,-2.7585,-2.7585,-2.7585,-2.7585,-2.7585,-2.7585,-2.7585,-2.7585,-2.7585,-2.7585,-2.7585,-2.7585,-2.7585,-2.7585,-2.7555,-2.748,-2.7046,-2.6707,-2.624,-2.5344,-2.4403,-2.3821,-2.3592,-2.348,-2.3523,-2.3611,-2.3895,-2.4477,-2.4597,-2.4686,-2.4672,-2.4582,-2.4268,-2.3651,-2.313,-2.2572,-2.2203,-2.1674,-2.0995,-2.0258,-1.9939,-1.9798,-1.9824,-1.9798,-1.9773,-1.9721,-1.9396,-1.9239,-1.9225,-1.8922,-1.7995,-1.7123,-1.6343,-1.6345,-1.6938,-1.73,-1.756,-1.777,-1.7875,-1.7838,-1.7784,-1.7725,-1.7725,-2.0652,-2.1327,-2.1916,-2.2703,-2.3556,-2.3973,-2.4504,-2.5182,-2.5472,-2.5689,-2.5977,-2.607,-2.6097,-2.6072,-2.5644,-2.5501,-2.5595,-2.5356,-2.5199,-2.5516,-2.5686,-2.567,-2.5273,-2.5099,-2.4797,-2.4728,-2.4941,-2.5053,-2.5198,-2.5387,-2.5808,-2.6316,-2.646,-2.6587,-2.7077,-2.7066,-2.7201,-2.7776,-2.817,-2.872,-2.9383,-2.9803,-3.0019,-3.0054,-2.9481,-2.8796,-2.8097,-2.7784,-2.758,-2.7406,-2.7448,-2.7585,-2.7585,-2.7585,-2.7585,-2.7585,-2.7585,-2.7585,-2.7585,-2.7585,-2.7585,-2.7585,-2.7585,-2.7585,-2.7585,-2.7585,-2.7585,-2.7585,-2.745,-2.7071,-2.6426,-2.5147,-2.4412,-2.405,-2.3591,-2.3238,-2.3304,-2.3725,-2.4147,-2.4535,-2.4959,-2.5274,-2.5329,-2.4866,-2.4438,-2.3875,-2.3181,-2.2482,-2.1969,-2.1506,-2.0896,-2.0195,-1.9939,-1.9798,-1.9798,-1.9747,-1.963,-1.95,-1.916,-1.8907,-1.8881,-1.8294,-1.7335,-1.656,-1.5855,-1.6168,-1.6693,-1.7093,-1.7308,-1.7572,-1.7783,-1.7741,-1.7716,-1.7623,-1.7382,-2.0834,-2.1711,-2.225,-2.3139,-2.4215,-2.4576,-2.5087,-2.5688,-2.5933,-2.6166,-2.6327,-2.6465,-2.6487,-2.6474,-2.6185,-2.6101,-2.6319,-2.6472,-2.6608,-2.6942,-2.7255,-2.7484,-2.7616,-2.7386,-2.6995,-2.5944,-2.5728,-2.5928,-2.6228,-2.6632,-2.6966,-2.7363,-2.7368,-2.7576,-2.7756,-2.7623,-2.7822,-2.8287,-2.8656,-2.9135,-2.9851,-3.0097,-3.0189,-3.0074,-2.9631,-2.9057,-2.8712,-2.8145,-2.7808,-2.7612,-2.7561,-2.7585,-2.7585,-2.7585,-2.7585,-2.7585,-2.7585,-2.7585,-2.7585,-2.7585,-2.7585,-2.7585,-2.7585,-2.7585,-2.7585,-2.7585,-2.7585,-2.7585,-2.7515,-2.7255,-2.6406,-2.5639,-2.4911,-2.4321,-2.3841,-2.3392,-2.3276,-2.3635,-2.4209,-2.4626,-2.5246,-2.5599,-2.5558,-2.5088,-2.4399,-2.3786,-2.2901,-2.2194,-2.1578,-2.1155,-2.0785,-2.0258,-1.9965,-1.9798,-1.9773,-1.9682,-1.9448,-1.9186,-1.8815,-1.8614,-1.8479,-1.7639,-1.6673,-1.6046,-1.5556,-1.5812,-1.6315,-1.6692,-1.7106,-1.7432,-1.7633,-1.7668,-1.7588,-1.7314,-1.7038,-2.1122,-2.2171,-2.2573,-2.3554,-2.4779,-2.5123,-2.5606,-2.6166,-2.6236,-2.6339,-2.6465,-2.6487,-2.6521,-2.6508,-2.6496,-2.6611,-2.7082,-2.7743,-2.815,-2.8361,-2.898,-2.926,-2.9554,-2.9647,-2.9224,-2.7193,-2.7323,-2.7511,-2.7837,-2.8002,-2.8498,-2.8654,-2.8592,-2.8607,-2.8551,-2.8352,-2.8417,-2.8931,-2.9184,-2.9605,-3.0266,-3.0417,-3.0447,-3.0316,-3.0072,-2.9608,-2.9247,-2.8663,-2.8123,-2.7976,-2.7739,-2.7594,-2.7585,-2.7585,-2.7585,-2.7585,-2.7585,-2.7585,-2.7585,-2.7585,-2.7585,-2.7585,-2.7575,-2.7575,-2.7564,-2.7524,-2.7524,-2.7524,-2.7469,-2.7204,-2.6419,-2.5741,-2.5279,-2.4694,-2.4146,-2.3604,-2.3298,-2.3459,-2.3863,-2.4586,-2.5246,-2.5785,-2.5606,-2.5199,-2.4418,-2.3617,-2.2696,-2.1912,-2.1326,-2.0873,-2.0561,-2.0283,-1.9965,-1.9708,-1.9668,-1.9422,-1.9251,-1.8815,-1.8425,-1.8236,-1.8018,-1.7179,-1.6332,-1.5816,-1.5517,-1.5763,-1.6008,-1.6418,-1.6836,-1.7236,-1.744,-1.7456,-1.725,-1.6985,-1.6656,-2.1563,-2.2902,-2.3445,-2.4459,-2.5604,-2.591,-2.6119,-2.643,-2.643,-2.6465,-2.6487,-2.6487,-2.6555,-2.6645,-2.6645,-2.7053,-2.7796,-2.861,-2.9153,-2.9471,-3.0153,-3.0658,-3.0871,-3.1375,-3.1354,-3.1297,-3.0767,-3.0521,-3.0417,-3.0577,-3.0219,-3.0307,-2.9746,-2.9435,-2.9341,-2.9135,-2.9153,-2.9591,-2.9808,-3.019,-3.0598,-3.0821,-3.0821,-3.0717,-3.0631,-3.0382,-2.9842,-2.9351,-2.885,-2.8329,-2.7857,-2.7649,-2.7585,-2.7585,-2.7585,-2.7585,-2.7585,-2.7585,-2.7585,-2.7585,-2.7585,-2.7575,-2.7514,-2.7437,-2.7412,-2.7361,-2.7335,-2.7361,-2.731,-2.7108,-2.6868,-2.5923,-2.5216,-2.4659,-2.4015,-2.3303,-2.3167,-2.3187,-2.3295,-2.3831,-2.4864,-2.5639,-2.5157,-2.469,-2.3946,-2.3122,-2.2325,-2.1671,-2.1131,-2.0761,-2.0472,-2.0195,-1.9952,-1.9694,-1.9499,-1.9198,-1.8907,-1.8387,-1.8018,-1.7815,-1.7429,-1.6758,-1.6075,-1.5613,-1.542,-1.5527,-1.5831,-1.6162,-1.6424,-1.6753,-1.6983,-1.7235,-1.6881,-1.6538,-1.6149,-2.2004,-2.3425,-2.38,-2.4762,-2.5941,-2.6166,-2.6339,-2.6487,-2.6487,-2.6487,-2.6521,-2.6555,-2.6692,-2.685,-2.7053,-2.761,-2.8468,-2.9341,-2.9777,-3.0135,-3.0993,-3.1698,-3.1924,-3.2643,-3.3184,-3.342,-3.3394,-3.2843,-3.2169,-3.1616,-3.1521,-3.1306,-3.0659,-3.0221,-3.0176,-3.0007,-3.0052,-3.0296,-3.0417,-3.0657,-3.1014,-3.1176,-3.1102,-3.1043,-3.1043,-3.0867,-3.0572,-3.0052,-2.9512,-2.8916,-2.8379,-2.7979,-2.7705,-2.7585,-2.7585,-2.7585,-2.7585,-2.76,-2.76,-2.7585,-2.7585,-2.7575,-2.7463,-2.7361,-2.7299,-2.7196,-2.7119,-2.7144,-2.7067,-2.6896,-2.6616,-2.5756,-2.5214,-2.4778,-2.4094,-2.3486,-2.3151,-2.313,-2.3069,-2.3003,-2.3643,-2.4181,-2.4211,-2.3735,-2.3267,-2.2622,-2.1882,-2.1363,-2.0886,-2.0611,-2.0346,-1.9965,-1.9694,-1.9408,-1.9131,-1.8774,-1.8398,-1.7897,-1.7551,-1.7329,-1.7022,-1.64,-1.5931,-1.5497,-1.542,-1.542,-1.5586,-1.5918,-1.6091,-1.628,-1.6561,-1.6717,-1.6412,-1.606,-1.5625,-2.2539,-2.3968,-2.4079,-2.4948,-2.6136,-2.6248,-2.6374,-2.6452,-2.6487,-2.6521,-2.6555,-2.6714,-2.6905,-2.7242,-2.7762,-2.8384,-2.9107,-2.9931,-3.0342,-3.0772,-3.1777,-3.2532,-3.3002,-3.3785,-3.4454,-3.4636,-3.4838,-3.4581,-3.3527,-3.2792,-3.2429,-3.2118,-3.1513,-3.0969,-3.085,-3.0657,-3.0821,-3.0851,-3.091,-3.1058,-3.1248,-3.1336,-3.1292,-3.119,-3.1176,-3.1176,-3.1013,-3.0494,-2.987,-2.926,-2.8702,-2.8211,-2.7684,-2.7575,-2.7575,-2.7549,-2.7534,-2.7549,-2.7524,-2.7549,-2.7524,-2.7524,-2.7401,-2.7273,-2.7078,-2.6896,-2.6765,-2.6817,-2.6712,-2.658,-2.6285,-2.5687,-2.5161,-2.4739,-2.4255,-2.3787,-2.3316,-2.3044,-2.2716,-2.2721,-2.2763,-2.2897,-2.3175,-2.2807,-2.2336,-2.1857,-2.1128,-2.0977,-2.0536,-2.0435,-2.0144,-1.9708,-1.9382,-1.9066,-1.8694,-1.8251,-1.7815,-1.729,-1.6955,-1.6712,-1.6457,-1.6095,-1.5749,-1.5449,-1.542,-1.5439,-1.5557,-1.5605,-1.5758,-1.5952,-1.6207,-1.6117,-1.5682,-1.5309,-1.4955,-2.3147,-2.4508,-2.4521,-2.5261,-2.6343,-2.6465,-2.6452,-2.6487,-2.6487,-2.6555,-2.6679,-2.6918,-2.7276,-2.7908,-2.8862,-2.9512,-3.0023,-3.0509,-3.0955,-3.1353,-3.2526,-3.3242,-3.3585,-3.4735,-3.5106,-3.5309,-3.5407,-3.5282,-3.4631,-3.4178,-3.378,-3.3227,-3.2421,-3.1857,-3.1368,-3.1132,-3.1102,-3.1205,-3.1234,-3.1322,-3.1453,-3.1482,-3.1453,-3.1453,-3.1424,-3.1351,-3.1189,-3.0685,-3.0033,-2.9197,-2.8655,-2.8081,-2.7556,-2.7524,-2.7514,-2.7463,-2.7412,-2.7361,-2.731,-2.7335,-2.7386,-2.7335,-2.717,-2.6974,-2.6657,-2.6392,-2.6231,-2.6363,-2.6258,-2.6138,-2.5921,-2.5439,-2.495,-2.4478,-2.4015,-2.3734,-2.3407,-2.3038,-2.2719,-2.2555,-2.2698,-2.2462,-2.2482,-2.1957,-2.1419,-2.0924,-2.0524,-2.0372,-2.0207,-2.0067,-1.9708,-1.9212,-1.8948,-1.8629,-1.8209,-1.7733,-1.729,-1.674,-1.6457,-1.62,-1.6009,-1.5836,-1.572,-1.5478,-1.542,-1.5332,-1.5332,-1.5379,-1.5434,-1.543,-1.5444,-1.524,-1.4904,-1.4555,-1.4158,-2.4126,-2.4728,-2.5015,-2.5657,-2.6449,-2.6487,-2.6487,-2.6521,-2.6589,-2.6714,-2.6939,-2.731,-2.7941,-2.8876,-2.9682,-3.0144,-3.0552,-3.0999,-3.1427,-3.1976,-3.299,-3.3709,-3.4218,-3.4981,-3.5474,-3.5489,-3.5489,-3.5457,-3.5215,-3.4829,-3.4309,-3.3948,-3.302,-3.2288,-3.1856,-3.1529,-3.1395,-3.138,-3.1424,-3.1438,-3.1467,-3.1496,-3.1496,-3.1496,-3.1496,-3.1409,-3.1232,-3.107,-3.0256,-2.9389,-2.884,-2.829,-2.7565,-2.7321,-2.731,-2.7196,-2.7093,-2.7067,-2.7093,-2.7119,-2.7144,-2.7078,-2.687,-2.6498,-2.6068,-2.5756,-2.5605,-2.5646,-2.5633,-2.5564,-2.5411,-2.4921,-2.4536,-2.4115,-2.3763,-2.3526,-2.3335,-2.3144,-2.2836,-2.2715,-2.2531,-2.2296,-2.1979,-2.1533,-2.1056,-2.0515,-2.022,-2.0131,-1.9862,-1.9578,-1.9133,-1.8587,-1.8387,-1.8186,-1.7678,-1.7179,-1.6775,-1.6332,-1.6085,-1.5865,-1.5681,-1.5546,-1.5478,-1.542,-1.5303,-1.5216,-1.5137,-1.5077,-1.5062,-1.4842,-1.459,-1.4285,-1.3971,-1.3595,-1.3165,-2.5008,-2.5059,-2.5435,-2.5959,-2.6487,-2.6521,-2.6568,-2.6555,-2.6794,-2.6985,-2.7343,-2.7954,-2.8917,-2.9924,-3.0553,-3.1065,-3.1483,-3.1708,-3.2095,-3.2735,-3.3363,-3.3993,-3.4533,-3.5115,-3.5489,-3.5489,-3.5489,-3.5489,-3.5355,-3.504,-3.4743,-3.4488,-3.3634,-3.2841,-3.2422,-3.2034,-3.1735,-3.1467,-3.1467,-3.1496,-3.1496,-3.1496,-3.1496,-3.1496,-3.1467,-3.1395,-3.1234,-3.1146,-3.0423,-2.9124,-2.8887,-2.8299,-2.7328,-2.7181,-2.717,-2.7015,-2.6884,-2.6738,-2.6738,-2.6765,-2.6806,-2.6674,-2.6406,-2.5906,-2.5328,-2.5062,-2.4963,-2.4978,-2.4935,-2.4878,-2.4765,-2.4436,-2.4144,-2.3865,-2.3569,-2.336,-2.3155,-2.305,-2.2957,-2.2844,-2.2573,-2.2074,-2.1726,-2.1275,-2.0728,-2.0129,-1.9914,-1.9862,-1.9552,-1.9186,-1.8587,-1.803,-1.7854,-1.7667,-1.7196,-1.6712,-1.6275,-1.5989,-1.5778,-1.5604,-1.5507,-1.5449,-1.5449,-1.5332,-1.5216,-1.4795,-1.4529,-1.4606,-1.4654,-1.4255,-1.3843,-1.337,-1.3004,-1.2641,-1.2359,-2.5548,-2.5548,-2.5598,-2.5971,-2.6487,-2.6611,-2.6692,-2.6714,-2.7087,-2.749,-2.8006,-2.8967,-3.008,-3.1046,-3.1638,-3.2268,-3.3029,-3.3258,-3.3274,-3.3543,-3.4068,-3.4399,-3.4803,-3.5175,-3.5489,-3.5489,-3.5489,-3.5489,-3.5489,-3.5385,-3.4981,-3.4533,-3.4173,-3.3484,-3.2841,-3.2288,-3.1869,-3.16,-3.1496,-3.1496,-3.1496,-3.1496,-3.1496,-3.1496,-3.1467,-3.1307,-3.0895,-3.0881,-3.0236,-2.8656,-2.8582,-2.8213,-2.7292,-2.7059,-2.7029,-2.6963,-2.6724,-2.6539,-2.6433,-2.6338,-2.6258,-2.6069,-2.5729,-2.5273,-2.4694,-2.4465,-2.4379,-2.4379,-2.4321,-2.4292,-2.4218,-2.4086,-2.3806,-2.3658,-2.345,-2.33,-2.3138,-2.3125,-2.3032,-2.2982,-2.2619,-2.2108,-2.1528,-2.1098,-2.0584,-1.9988,-1.9591,-1.9526,-1.92,-1.8789,-1.8073,-1.7545,-1.7368,-1.7095,-1.6729,-1.6314,-1.5999,-1.5797,-1.5594,-1.5507,-1.5449,-1.542,-1.542,-1.5303,-1.5147,-1.4529,-1.3992,-1.4022,-1.3932,-1.3541,-1.3114,-1.2663,-1.2155,-1.176,-1.1581,-2.616,-2.616,-2.6227,-2.6354,-2.6487,-2.6624,-2.6748,-2.6973,-2.7477,-2.8254,-2.9071,-3.0188,-3.1032,-3.1771,-3.2503,-3.2986,-3.3392,-3.3454,-3.3739,-3.4069,-3.4399,-3.4743,-3.5055,-3.5295,-3.5489,-3.5489,-3.5489,-3.5489,-3.5489,-3.5489,-3.54,-3.507,-3.4758,-3.4024,-3.3245,-3.2392,-3.1809,-3.163,-3.1496,-3.1496,-3.1496,-3.1496,-3.1496,-3.1496,-3.1496,-3.1322,-3.1043,-3.0895,-3.006,-2.9203,-2.8642,-2.795,-2.7283,-2.7053,-2.6954,-2.6951,-2.6698,-2.6445,-2.619,-2.6028,-2.5743,-2.5328,-2.5006,-2.4666,-2.4203,-2.3998,-2.391,-2.3852,-2.3839,-2.3839,-2.3822,-2.3717,-2.3552,-2.345,-2.333,-2.3198,-2.3138,-2.3108,-2.2895,-2.2744,-2.2481,-2.2108,-2.154,-2.0961,-2.0425,-1.9898,-1.9536,-1.9146,-1.8789,-1.8321,-1.759,-1.7071,-1.6881,-1.6655,-1.6285,-1.5999,-1.572,-1.5594,-1.5478,-1.5449,-1.542,-1.542,-1.5391,-1.5274,-1.4971,-1.4312,-1.3833,-1.3502,-1.323,-1.2934,-1.2474,-1.1949,-1.1411,-1.0965,-1.088,-2.6487,-2.6521,-2.6645,-2.6658,-2.6589,-2.6884,-2.7108,-2.741,-2.8091,-2.898,-3.0097,-3.0879,-3.1667,-3.2402,-3.2986,-3.3734,-3.4052,-3.4233,-3.4442,-3.4666,-3.4891,-3.51,-3.5355,-3.5489,-3.5489,-3.5489,-3.5489,-3.5489,-3.5489,-3.5489,-3.5459,-3.531,-3.5026,-3.4457,-3.3649,-3.2512,-3.172,-3.154,-3.1496,-3.1496,-3.1496,-3.1496,-3.1496,-3.1467,-3.1438,-3.1263,-3.0969,-3.0703,-3.0115,-2.9345,-2.8712,-2.8126,-2.7579,-2.7128,-2.6956,-2.689,-2.6791,-2.6551,-2.627,-2.5729,-2.5202,-2.4721,-2.4463,-2.4157,-2.3848,-2.3611,-2.3599,-2.3467,-2.3437,-2.345,-2.348,-2.336,-2.333,-2.3271,-2.3228,-2.3138,-2.3138,-2.3083,-2.2732,-2.2456,-2.2171,-2.1766,-2.1036,-2.0407,-1.9887,-1.947,-1.9223,-1.8762,-1.8278,-1.776,-1.7078,-1.6666,-1.6371,-1.6142,-1.5912,-1.571,-1.5565,-1.5536,-1.5449,-1.542,-1.542,-1.542,-1.5391,-1.5294,-1.4854,-1.4133,-1.3532,-1.2995,-1.2658,-1.2359,-1.1864,-1.1341,-1.1122,-1.0744,-1.0555,-2.6499,-2.6521,-2.6645,-2.6714,-2.685,-2.7443,-2.7809,-2.8039,-2.8853,-2.9747,-3.0552,-3.1013,-3.1928,-3.2971,-3.3467,-3.4171,-3.5011,-3.522,-3.5295,-3.5295,-3.528,-3.5444,-3.5474,-3.5489,-3.5489,-3.5489,-3.5489,-3.5489,-3.5489,-3.5489,-3.5489,-3.5489,-3.5325,-3.4936,-3.4384,-3.3125,-3.2153,-3.16,-3.1511,-3.1496,-3.1496,-3.1496,-3.1496,-3.1467,-3.138,-3.1205,-3.0881,-3.0582,-2.9978,-2.9279,-2.8917,-2.8323,-2.7568,-2.7504,-2.7304,-2.6995,-2.6951,-2.675,-2.6416,-2.5425,-2.475,-2.4287,-2.407,-2.3806,-2.3509,-2.339,-2.333,-2.3258,-2.3198,-2.3168,-2.3138,-2.3138,-2.3138,-2.3138,-2.3108,-2.3095,-2.3095,-2.3095,-2.2782,-2.2468,-2.1866,-2.1249,-2.0467,-1.9783,-1.9272,-1.8946,-1.8801,-1.8414,-1.7854,-1.7329,-1.6722,-1.6363,-1.6095,-1.5884,-1.571,-1.5565,-1.5449,-1.542,-1.542,-1.542,-1.542,-1.542,-1.5352,-1.5294,-1.4579,-1.3683,-1.2995,-1.2398,-1.2019,-1.1677,-1.131,-1.087,-1.0688,-1.0581,-1.041,-2.6726,-2.6875,-2.7121,-2.7356,-2.7577,-2.7809,-2.8105,-2.8573,-2.9512,-3.0372,-3.1087,-3.159,-3.2391,-3.3303,-3.3962,-3.4577,-3.531,-3.5489,-3.5489,-3.5489,-3.5489,-3.5489,-3.5489,-3.5489,-3.5489,-3.5489,-3.5489,-3.5489,-3.5489,-3.5489,-3.5489,-3.5489,-3.5415,-3.4846,-3.3903,-3.2901,-3.2153,-3.1615,-3.1496,-3.1496,-3.1496,-3.1496,-3.1496,-3.1496,-3.138,-3.1146,-3.0791,-3.0477,-2.9972,-2.9428,-2.9136,-2.8518,-2.7897,-2.7809,-2.7326,-2.7006,-2.6832,-2.6351,-2.5851,-2.509,-2.4563,-2.4141,-2.3789,-2.3569,-2.3258,-2.3198,-2.3138,-2.3138,-2.3095,-2.3095,-2.3108,-2.3108,-2.3138,-2.3138,-2.3095,-2.3095,-2.3095,-2.3095,-2.2945,-2.2631,-2.2142,-2.0838,-1.9866,-1.9388,-1.8909,-1.8402,-1.8226,-1.797,-1.7479,-1.705,-1.6552,-1.6163,-1.5875,-1.5691,-1.5546,-1.5449,-1.542,-1.542,-1.542,-1.542,-1.542,-1.542,-1.5391,-1.5352,-1.4273,-1.3199,-1.2474,-1.1778,-1.1341,-1.0933,-1.0782,-1.0719,-1.0656,-1.0519,-1.038,-2.6964,-2.7214,-2.7536,-2.7908,-2.8254,-2.8417,-2.8803,-2.9512,-3.0312,-3.0925,-3.1382,-3.1842,-3.2407,-3.314,-3.3844,-3.4517,-3.513,-3.5429,-3.5489,-3.5489,-3.5489,-3.5489,-3.5489,-3.5489,-3.5489,-3.5489,-3.5489,-3.5489,-3.5489,-3.5489,-3.5489,-3.5489,-3.5474,-3.4906,-3.4008,-3.3245,-3.2542,-3.2019,-3.175,-3.1496,-3.1496,-3.1496,-3.1496,-3.1438,-3.1292,-3.1087,-3.0762,-3.0447,-3.0099,-2.9726,-2.932,-2.8796,-2.8379,-2.7968,-2.7492,-2.7194,-2.6652,-2.6138,-2.5522,-2.5118,-2.4591,-2.3979,-2.37,-2.342,-2.3155,-2.3138,-2.3138,-2.3108,-2.3095,-2.3095,-2.3095,-2.3095,-2.3095,-2.3095,-2.3095,-2.3095,-2.3078,-2.3078,-2.289,-2.2602,-2.2039,-2.0686,-1.9473,-1.9044,-1.8635,-1.8109,-1.7621,-1.7342,-1.711,-1.6722,-1.6381,-1.6048,-1.5759,-1.5575,-1.5478,-1.5449,-1.542,-1.542,-1.5391,-1.5391,-1.542,-1.542,-1.542,-1.5177,-1.3914,-1.2742,-1.1856,-1.1216,-1.0965,-1.0782,-1.0681,-1.0618,-1.0586,-1.0487,-1.0348,-2.7281,-2.7583,-2.7921,-2.8352,-2.8853,-2.9233,-2.9979,-3.097,-3.1161,-3.1351,-3.1511,-3.1586,-3.2153,-3.2691,-3.332,-3.4053,-3.4711,-3.528,-3.5429,-3.5489,-3.5489,-3.5489,-3.5489,-3.5489,-3.5489,-3.5489,-3.5489,-3.5489,-3.5489,-3.5489,-3.5489,-3.5489,-3.5489,-3.507,-3.4472,-3.3724,-3.3036,-3.2348,-3.178,-3.1555,-3.1496,-3.1496,-3.1496,-3.1409,-3.1278,-3.1014,-3.0717,-3.0371,-3.0021,-2.9777,-2.958,-2.9259,-2.887,-2.8452,-2.8011,-2.7366,-2.6599,-2.5908,-2.5328,-2.4935,-2.4549,-2.3907,-2.3611,-2.333,-2.3168,-2.3095,-2.3095,-2.3095,-2.3095,-2.3095,-2.3095,-2.3095,-2.3095,-2.3095,-2.3095,-2.3065,-2.3047,-2.2935,-2.268,-2.2284,-2.1762,-2.0742,-1.9627,-1.9005,-1.8419,-1.7727,-1.7233,-1.6908,-1.6678,-1.6467,-1.6153,-1.5961,-1.5672,-1.5478,-1.542,-1.542,-1.542,-1.542,-1.5371,-1.5342,-1.5362,-1.5294,-1.5147,-1.4608,-1.3411,-1.2382,-1.1584,-1.109,-1.0814,-1.0663,-1.064,-1.0649,-1.0657,-1.0531,-1.0392,-2.8531,-2.9031,-2.8866,-2.9166,-2.9777,-3.0418,-3.094,-3.1219,-3.1292,-3.138,-3.154,-3.2004,-3.2497,-3.3245,-3.3949,-3.4547,-3.5026,-3.5385,-3.5459,-3.5489,-3.5489,-3.5489,-3.5489,-3.5489,-3.5489,-3.5489,-3.5489,-3.5489,-3.5489,-3.5489,-3.5489,-3.5489,-3.5489,-3.531,-3.4861,-3.4098,-3.3305,-3.2557,-3.1884,-3.1585,-3.1496,-3.1496,-3.1496,-3.1409,-3.1249,-3.0984,-3.0642,-3.0325,-2.9974,-2.9571,-2.9602,-2.9307,-2.8566,-2.8436,-2.8103,-2.6563,-2.5798,-2.5118,-2.4694,-2.4465,-2.416,-2.3806,-2.3509,-2.3318,-2.3168,-2.3095,-2.3095,-2.3095,-2.3095,-2.3095,-2.3095,-2.3095,-2.3095,-2.3095,-2.3095,-2.3047,-2.3017,-2.2864,-2.2611,-2.2005,-2.1506,-2.0747,-1.9667,-1.8881,-1.8261,-1.7452,-1.6884,-1.6531,-1.6289,-1.6128,-1.6009,-1.5817,-1.5633,-1.5449,-1.542,-1.542,-1.542,-1.542,-1.5342,-1.5254,-1.5186,-1.5069,-1.4824,-1.4004,-1.2742,-1.2011,-1.1421,-1.1048,-1.0782,-1.0745,-1.0722,-1.0744,-1.0725,-1.0594,-1.0425,-2.9625,-3.0058,-2.9935,-3.008,-3.0507,-3.1043,-3.1307,-3.138,-3.138,-3.1557,-3.1914,-3.2303,-3.2871,-3.3514,-3.4174,-3.4698,-3.5011,-3.5355,-3.5489,-3.5489,-3.5489,-3.5489,-3.5489,-3.5489,-3.5489,-3.5489,-3.5489,-3.5489,-3.5489,-3.5489,-3.5489,-3.5489,-3.5489,-3.5489,-3.5175,-3.4457,-3.3649,-3.2856,-3.2123,-3.1645,-3.1496,-3.1496,-3.1496,-3.1438,-3.1278,-3.0984,-3.0612,-3.028,-2.9898,-2.9477,-2.9509,-2.9244,-2.854,-2.8315,-2.7533,-2.6163,-2.5569,-2.4934,-2.4427,-2.4144,-2.3852,-2.3628,-2.345,-2.33,-2.3168,-2.3095,-2.3095,-2.3095,-2.3095,-2.3095,-2.3095,-2.3095,-2.3095,-2.3095,-2.3078,-2.3017,-2.2927,-2.2848,-2.2396,-2.1788,-2.1172,-2.0511,-1.9714,-1.8882,-1.8133,-1.7451,-1.6739,-1.6168,-1.6007,-1.5905,-1.5836,-1.5759,-1.5575,-1.542,-1.542,-1.542,-1.5391,-1.5362,-1.5284,-1.5196,-1.5049,-1.4775,-1.4469,-1.3411,-1.2073,-1.1522,-1.1153,-1.1022,-1.0827,-1.0815,-1.0844,-1.0888,-1.0852,-1.0726,-1.0538,-3.076,-3.107,-3.1085,-3.1029,-3.1043,-3.1248,-3.1409,-3.157,-3.163,-3.1899,-3.2422,-3.2662,-3.3125,-3.3799,-3.4412,-3.4713,-3.5011,-3.5325,-3.5489,-3.5489,-3.5489,-3.5489,-3.5489,-3.5489,-3.5489,-3.5489,-3.5489,-3.5489,-3.5489,-3.5489,-3.5489,-3.5489,-3.5489,-3.5489,-3.5355,-3.4758,-3.3963,-3.3245,-3.2348,-3.169,-3.154,-3.1496,-3.1496,-3.1438,-3.1292,-3.1058,-3.0628,-3.0296,-2.9976,-2.9557,-2.9306,-2.9153,-2.8616,-2.789,-2.6825,-2.6099,-2.5492,-2.4856,-2.4288,-2.3955,-2.3671,-2.3492,-2.336,-2.3271,-2.3168,-2.3095,-2.3095,-2.3095,-2.3095,-2.3095,-2.3095,-2.3095,-2.3108,-2.3047,-2.2987,-2.2836,-2.2665,-2.2439,-2.1923,-2.1358,-2.0843,-2.0176,-1.9447,-1.8637,-1.7823,-1.7307,-1.6778,-1.6058,-1.5743,-1.5682,-1.5691,-1.5672,-1.5546,-1.542,-1.542,-1.542,-1.5391,-1.5342,-1.5225,-1.4902,-1.4597,-1.4359,-1.4121,-1.2903,-1.1646,-1.1286,-1.0975,-1.0916,-1.0895,-1.0877,-1.0894,-1.0991,-1.0928,-1.0697,-1.0472,-3.2421,-3.294,-3.2258,-3.1722,-3.1278,-3.138,-3.1765,-3.2243,-3.2287,-3.2378,-3.2691,-3.3514,-3.4114,-3.4414,-3.4966,-3.525,-3.5355,-3.5489,-3.5489,-3.5489,-3.5489,-3.5489,-3.5489,-3.5489,-3.5489,-3.5489,-3.5489,-3.5489,-3.5489,-3.5489,-3.5489,-3.5489,-3.5489,-3.5489,-3.5459,-3.4878,-3.4247,-3.3604,-3.2826,-3.2004,-3.1645,-3.1511,-3.1482,-3.1351,-3.1205,-3.0896,-3.0538,-3.0249,-2.9668,-2.9135,-2.9149,-2.8894,-2.8422,-2.748,-2.6871,-2.6335,-2.5538,-2.4905,-2.4288,-2.3867,-2.3552,-2.3313,-2.3198,-2.3168,-2.3138,-2.3108,-2.3095,-2.3095,-2.3095,-2.3095,-2.3095,-2.3078,-2.3047,-2.2987,-2.2939,-2.2665,-2.2432,-2.1951,-2.1479,-2.1005,-2.0505,-1.9845,-1.9147,-1.8375,-1.7571,-1.7038,-1.6623,-1.6095,-1.5684,-1.5507,-1.5536,-1.5507,-1.5478,-1.542,-1.542,-1.5391,-1.5362,-1.5186,-1.502,-1.4627,-1.4181,-1.3601,-1.3086,-1.229,-1.1404,-1.1066,-1.0928,-1.0958,-1.0962,-1.0923,-1.0936,-1.1003,-1.058,-1.0262,-1.0115,-3.3527,-3.3768,-3.2792,-3.2169,-3.1886,-3.1915,-3.2153,-3.2542,-3.3125,-3.3559,-3.3799,-3.4354,-3.4818,-3.5282,-3.5789,-3.5938,-3.5953,-3.5953,-3.5759,-3.5594,-3.5549,-3.5489,-3.5489,-3.5489,-3.5489,-3.5489,-3.5489,-3.5489,-3.5489,-3.5489,-3.5489,-3.5489,-3.5489,-3.5489,-3.5444,-3.504,-3.4577,-3.3963,-3.326,-3.2602,-3.1929,-3.1676,-3.1468,-3.1307,-3.1131,-3.0836,-3.0477,-3.0189,-2.9637,-2.8962,-2.8656,-2.8346,-2.7966,-2.7544,-2.7098,-2.6647,-2.5996,-2.5236,-2.452,-2.3954,-2.3546,-2.3286,-2.3095,-2.3108,-2.3108,-2.3095,-2.3095,-2.3095,-2.3095,-2.3095,-2.3095,-2.3095,-2.3017,-2.2957,-2.2818,-2.2586,-2.2173,-2.1694,-2.1325,-2.0976,-2.0375,-1.9587,-1.8817,-1.7966,-1.721,-1.6616,-1.6255,-1.5968,-1.5586,-1.5391,-1.542,-1.5352,-1.5323,-1.5391,-1.542,-1.5391,-1.5371,-1.5137,-1.4843,-1.4231,-1.3653,-1.272,-1.1926,-1.1435,-1.1122,-1.0972,-1.086,-1.096,-1.1036,-1.1026,-1.1013,-1.101,-1.0444,-0.9723,-0.9343,-3.4226,-3.4087,-3.3184,-3.2721,-3.2602,-3.2602,-3.2721,-3.3006,-3.4053,-3.4998,-3.5444,-3.51,-3.5654,-3.6252,-3.6611,-3.6611,-3.6596,-3.6596,-3.6237,-3.5848,-3.5714,-3.5639,-3.5549,-3.5489,-3.5489,-3.5489,-3.5489,-3.5489,-3.5489,-3.5489,-3.5489,-3.5489,-3.5489,-3.5489,-3.5489,-3.5415,-3.507,-3.4367,-3.3694,-3.311,-3.2482,-3.1869,-3.1513,-3.1307,-3.119,-3.0896,-3.0477,-3.0083,-2.9637,-2.8931,-2.817,-2.7822,-2.7689,-2.7531,-2.7367,-2.6942,-2.6686,-2.5797,-2.4952,-2.4369,-2.3804,-2.3331,-2.3188,-2.3095,-2.3095,-2.3095,-2.3095,-2.3095,-2.3095,-2.3095,-2.3095,-2.3108,-2.3017,-2.2744,-2.2574,-2.234,-2.1831,-2.136,-2.1063,-2.0807,-2.0117,-1.9328,-1.8486,-1.7598,-1.6957,-1.6356,-1.593,-1.5635,-1.542,-1.5391,-1.5381,-1.5235,-1.5118,-1.5206,-1.5362,-1.5303,-1.5254,-1.4931,-1.4567,-1.3863,-1.3108,-1.2197,-1.1459,-1.0965,-1.0688,-1.0719,-1.0852,-1.0962,-1.1034,-1.0972,-1.082,-1.0601,-0.9873,-0.9185,-0.8447,-3.4762,-3.441,-3.4188,-3.3799,-3.3365,-3.332,-3.3589,-3.4219,-3.4936,-3.5684,-3.6297,-3.6791,-3.709,-3.7225,-3.7225,-3.724,-3.724,-3.7225,-3.6851,-3.6387,-3.6193,-3.5923,-3.5669,-3.5564,-3.5504,-3.5489,-3.5489,-3.5489,-3.5489,-3.5489,-3.5489,-3.5489,-3.5489,-3.5489,-3.5489,-3.54,-3.5205,-3.4562,-3.3873,-3.32,-3.2557,-3.1959,-3.1455,-3.119,-3.0984,-3.0582,-3.0219,-2.9896,-2.932,-2.8638,-2.7921,-2.7536,-2.7469,-2.7556,-2.7492,-2.7348,-2.7105,-2.6329,-2.5478,-2.4763,-2.4144,-2.3351,-2.3208,-2.3095,-2.3095,-2.3095,-2.3095,-2.3095,-2.3095,-2.3095,-2.3095,-2.3095,-2.3017,-2.2427,-2.2068,-2.1726,-2.1285,-2.0903,-2.055,-2.0215,-1.9726,-1.8982,-1.8218,-1.745,-1.6778,-1.6262,-1.5851,-1.5576,-1.542,-1.5381,-1.5352,-1.5089,-1.4883,-1.5089,-1.5274,-1.5167,-1.5049,-1.4725,-1.424,-1.342,-1.2566,-1.1709,-1.1028,-1.0719,-1.0624,-1.0624,-1.0788,-1.0857,-1.0776,-1.0676,-1.0465,-1.011,-0.9377,-0.8661,-0.794]},{"header":{"parameterUnit":"m.s-1","parameterCategory":1,"la1":31.0,"la2":29.5877,"lo1":-88.7671,"lo2":-86.6584,"dx":0.0162,"dy":0.0185,"nx":115,"ny":88,"refTime":"2023-01-07T06:00:00:Z","depth":0,"parameterNumber":3,"parameterNumberName":"V-component_of_WINDS"},"data":[0.0,0.0,0.0,0.0,0.0,0.0,0.0,0.0,0.0,0.0,0.0,0.0,0.0,0.0,0.0,0.0,0.0,0.0,0.0,0.0,0.0,0.0,0.0,0.0,0.0,0.0,0.0,0.0,0.0,0.0,0.0,0.0,0.0,0.0,0.0,0.0,0.0,0.0,0.0,0.0,0.0,0.0,0.0,0.0,0.0,0.0,0.0,0.0,0.0,0.0,0.0,0.0,0.0,0.0,0.0,0.0,0.0,0.0,0.0,0.0,0.0,0.0,0.0,0.0,0.0,0.0,0.0,0.0,0.0,0.0,0.0,0.0,0.0,0.0,0.0,0.0,0.0,0.0,0.0,0.0,0.0,0.0,0.0,0.0,0.0,0.0,0.0,0.0,0.0,0.0,0.0,0.0,0.0,0.0,0.0,0.0,0.0,0.0,0.0,0.0,0.0,0.0,0.0,0.0,0.0,0.0,0.0,0.0,0.0,0.0,0.0,0.0,0.0,0.0,0.0,0.0,0.0,0.0,0.0,0.0,0.0,0.0,0.0,0.0,0.0,0.0,0.0,0.0,0.0,0.0,0.0,0.0,0.0,0.0,0.0,0.0,0.0,0.0,0.0,0.0,0.0,0.0,0.0,0.0,0.0,0.0,0.0,0.0,0.0,0.0,0.0,0.0,0.0,0.0,0.0,0.0,0.0,0.0,0.0,0.0,0.0,0.0,0.0,0.0,0.0,0.0,0.0,0.0,0.0,0.0,0.0,0.0,0.0,0.0,0.0,0.0,0.0,0.0,0.0,0.0,0.0,0.0,0.0,0.0,0.0,0.0,0.0,0.0,0.0,0.0,0.0,0.0,0.0,0.0,0.0,0.0,0.0,0.0,0.0,0.0,0.0,0.0,0.0,0.0,0.0,0.0,0.0,0.0,0.0,0.0,0.0,0.0,0.0,0.0,0.0,0.0,0.0,0.0,0.0,0.0,0.0,0.0,0.0,0.0,0.0,0.0,0.0,0.0,0.0,0.0,0.0,0.0,0.0,0.0,0.0,0.0,0.0,0.0,0.0,0.0,0.0,0.0,0.0,0.0,0.0,0.0,0.0,0.0,0.0,0.0,0.0,0.0,0.0,0.0,0.0,0.0,0.0,0.0,0.0,0.0,0.0,0.0,0.0,0.0,0.0,0.0,0.0,0.0,0.0,0.0,0.0,0.0,0.0,0.0,0.0,0.0,0.0,0.0,0.0,0.0,0.0,0.0,0.0,0.0,0.0,0.0,0.0,0.0,0.0,0.0,0.0,0.0,0.0,0.0,0.0,0.0,0.0,0.0,0.0,0.0,0.0,0.0,0.0,0.0,0.0,0.0,0.0,0.0,0.0,0.0,0.0,0.0,0.0,0.0,0.0,0.0,0.0,0.0,0.0,0.0,0.0,0.0,0.0,0.0,0.0,0.0,0.0,0.0,0.0,0.0,0.0,0.0,0.0,0.0,0.0,0.0,0.0,0.0,0.0,0.0,0.0,0.0,0.0,0.0,0.0,0.0,0.0,0.0,0.0,0.0,0.0,0.0,0.0,0.0,0.0,0.0,0.0,0.0,0.0,0.0,0.0,0.0,0.0,0.0,0.0,0.0,0.0,0.0,0.0,0.0,0.0,0.0,0.0,0.0,0.0,0.0,0.0,0.0,0.0,0.0,0.0,0.0,0.0,0.0,0.0,0.0,0.0,0.0,0.0,0.0,0.0,0.0,0.0,0.0,0.0,0.0,0.0,0.0,0.0,0.0,0.0,0.0,0.0,0.0,0.0,0.0,0.0,0.0,0.0,0.0,0.0,0.0,0.0,0.0,0.0,0.0,0.0,0.0,0.0,0.0,0.0,0.0,0.0,0.0,0.0,0.0,0.0,0.0,0.0,0.0,0.0,0.0,0.0,0.0,0.0,0.0,0.0,0.0,0.0,0.0,0.0,0.0,0.0,0.0,0.0,0.0,0.0,0.0,0.0,0.0,0.0,0.0,0.0,0.0,0.0,0.0,0.0,0.0,0.0,0.0,0.0,0.0,0.0,0.0,0.0,0.0,0.0,0.0,0.0,0.0,0.0,0.0,0.0,0.0,0.0,0.0,0.0,0.0,0.0,0.0,0.0,0.0,0.0,0.0,0.0,0.0,0.0,0.0,0.0,0.0,0.0,0.0,0.0,0.0,0.0,0.0,0.0,0.0,0.0,0.0,0.0,0.0,0.0,0.0,0.0,0.0,0.0,0.0,0.0,0.0,0.0,0.0,0.0,0.0,0.0,0.0,0.0,0.0,0.0,0.0,0.0,0.0,0.0,0.0,0.0,0.0,0.0,0.0,0.0,0.0,0.0,0.0,0.0,0.0,0.0,0.0,0.0,0.0,0.0,0.0,0.0,0.0,0.0,0.0,0.0,0.0,0.0,0.0,0.0,0.0,0.0,0.0,0.0,0.0,0.0,0.0,0.0,0.0,0.0,0.0,0.0,0.0,0.0,0.0,0.0,0.0,0.0,0.0,0.0,0.0,0.0,0.0,0.0,0.0,0.0,0.0,0.0,0.0,0.0,0.0,0.0,0.0,0.0,0.0,0.0,0.0,0.0,0.0,0.0,0.0,0.0,0.0,0.0,0.0,0.0,0.0,0.0,0.0,0.0,0.0,0.0,0.0,0.0,0.0,0.0,0.0,0.0,0.0,0.0,0.0,0.0,0.0,0.0,0.0,0.0,0.0,0.0,0.0,0.0,0.0,0.0,0.0,0.0,0.0,0.0,0.0,0.0,0.0,0.0,0.0,0.0,0.0,0.0,0.0,0.0,0.0,0.0,0.0,0.0,0.0,0.0,0.0,0.0,0.0,0.0,0.0,0.0,0.0,0.0,0.0,0.0,0.0,0.0,0.0,0.0,0.0,0.0,0.0,0.0,0.0,0.0,0.0,0.0,0.0,0.0,0.0,0.0,0.0,0.0,0.0,0.0,0.0,0.0,0.0,0.0,0.0,0.0,0.0,0.0,0.0,0.0,0.0,0.0,0.0,0.0,0.0,0.0,0.0,0.0,0.0,0.0,0.0,0.0,0.0,0.0,0.0,0.0,0.0,0.0,0.0,0.0,0.0,0.0,0.0,0.0,0.0,0.0,0.0,0.0,0.0,0.0,0.0,0.0,0.0,0.0,0.0,0.0,0.0,0.0,0.0,0.0,0.0,0.0,0.0,0.0,0.0,0.0,0.0,0.0,0.0,0.0,0.0,0.0,0.0,0.0,0.0,0.0,0.0,0.0,0.0,0.0,0.0,0.0,0.0,0.0,0.0,0.0,0.0,0.0,0.0,0.0,0.0,0.0,0.0,0.0,0.0,0.0,0.0,0.0,0.0,0.0,0.0,0.0,0.0,0.0,0.0,0.0,0.0,0.0,0.0,0.0,0.0,0.0,0.0,0.0,0.0,0.0,0.0,0.0,0.0,0.0,0.0,0.0,0.0,0.0,0.0,0.0,0.0,0.0,0.0,0.0,0.0,0.0,0.0,0.0,0.0,0.0,0.0,0.0,0.0,0.0,0.0,0.0,0.0,0.0,0.0,0.0,0.0,0.0,0.0,0.0,0.0,0.0,0.0,0.0,0.0,0.0,0.0,0.0,0.0,0.0,0.0,0.0,0.0,0.0,0.0,0.0,0.0,0.0,0.0,0.0,0.0,0.0,0.0,0.0,0.0,0.0,0.0,0.0,0.0,0.0,0.0,0.0,0.0,0.0,0.0,0.0,0.0,0.0,0.0,0.0,0.0,0.0,0.0,0.0,0.0,0.0,0.0,0.0,0.0,0.0,0.0,0.0,0.0,0.0,0.0,0.0,0.0,0.0,0.0,0.0,0.0,0.0,0.0,0.0,0.0,0.0,0.0,0.0,0.0,0.0,0.0,0.0,0.0,0.0,0.0,0.0,0.0,0.0,0.0,0.0,0.0,0.0,0.0,0.0,0.0,0.0,0.0,0.0,0.0,0.0,0.0,0.0,0.0,0.0,0.0,0.0,0.0,0.0,0.0,0.0,0.0,0.0,0.0,0.0,0.0,0.0,0.0,0.0,0.0,0.0,0.0,0.0,0.0,0.0,0.0,0.0,0.0,0.0,0.0,0.0,0.0,0.0,0.0,0.0,0.0,0.0,0.0,0.0,0.0,0.0,0.0,0.0,0.0,0.0,0.0,0.0,0.0,0.0,0.0,0.0,0.0,0.0,0.0,0.0,0.0,0.0,0.0,0.0,0.0,0.0,0.0,0.9385,0.0,0.0,0.0,0.9995,0.0,0.0,0.0,0.0,0.0,0.0,0.0,0.0,0.0,0.0,0.0,0.0,0.0,0.0,0.0,0.0,0.0,0.0,0.0,0.0,0.0,0.0,0.0,0.0,0.0,0.0,0.0,0.0,0.0,0.0,0.0,0.0,0.0,0.0,0.0,0.0,0.0,0.0,0.0,0.0,0.0,0.0,0.0,0.0,0.0,0.0,0.0,0.0,0.0,0.0,0.0,0.0,0.0,0.0,0.0,0.0,0.0,0.0,0.0,0.0,0.0,0.0,0.0,0.0,0.0,0.0,0.0,0.0,0.0,0.0,0.0,0.0,0.0,0.0,0.0,0.0,0.0,0.0,0.0,0.0,0.0,0.0,0.0,0.0,0.0,0.0,0.0,0.0,0.0,0.0,0.0,0.0,0.0,0.0,0.0,0.0,0.0,0.0,0.0,0.0,0.0,0.0,0.0,0.0,0.0,0.0,0.0,0.0,0.0,0.0,0.9457,0.9647,0.9861,0.9974,1.0047,0.0,0.0,0.0,0.0,0.0,0.0,0.0,0.0,0.0,0.0,0.0,0.0,0.0,0.0,0.0,0.0,0.0,0.0,0.0,0.0,0.0,0.0,0.0,0.0,0.0,0.0,0.0,0.0,0.0,0.0,0.0,0.0,0.0,0.0,0.0,0.0,0.0,0.0,0.0,0.0,0.0,0.0,0.0,0.0,0.0,0.0,0.0,0.0,0.0,0.0,0.0,0.0,0.0,0.0,0.0,0.0,0.0,0.0,0.0,0.0,0.0,0.0,0.0,0.0,0.0,0.0,0.0,0.0,0.0,0.0,0.0,0.0,0.0,0.0,0.0,0.0,0.0,0.0,0.0,0.0,0.0,0.0,0.0,0.0,0.0,0.0,0.0,0.0,0.0,0.0,0.0,0.0,0.0,0.0,0.0,0.0,0.0,0.0,0.0,0.0,0.0,0.0,0.0,0.0,0.0,0.0,0.0,0.0,0.0,0.0,0.0,0.0,1.0119,1.0326,1.0371,0.0,0.0,0.0,0.0,0.0,0.0,0.0,0.0,0.0,0.0,0.0,0.0,0.0,0.0,0.0,0.0,0.0,0.0,0.0,0.0,0.0,0.0,0.0,0.0,0.0,0.0,0.0,0.0,0.0,0.0,0.0,0.0,0.0,0.0,0.0,0.0,0.0,0.0,0.0,0.0,0.0,0.0,0.0,0.0,0.0,0.0,0.0,0.0,0.0,0.0,0.0,0.0,0.0,0.0,0.0,0.0,0.0,0.0,0.0,0.0,0.0,0.0,0.0,0.0,0.0,0.0,0.0,0.0,0.0,0.0,0.0,0.0,0.0,0.0,0.0,0.0,0.0,0.0,0.0,0.0,0.0,0.0,0.0,0.0,0.0,0.0,0.0,0.0,0.0,0.0,0.0,0.0,0.0,0.0,0.0,0.0,0.0,0.0,0.0,0.0,0.0,0.0,0.0,0.0,0.0,0.0,0.0,0.0,0.0,0.0,0.9696,0.9979,1.0831,0.0,1.1196,0.0,0.0,0.0,0.0,0.0,0.0,0.0,0.0,0.0,0.0,0.0,0.0,0.0,0.0,0.0,0.0,0.0,0.0,0.0,0.0,0.0,0.0,0.0,0.0,0.0,0.0,0.0,0.0,0.0,0.0,0.0,0.0,0.0,0.0,0.0,0.0,0.0,0.0,0.0,0.0,0.0,0.0,0.0,0.0,0.0,0.0,0.0,0.0,0.0,0.0,0.0,0.0,0.0,0.0,0.0,0.0,0.0,0.0,0.0,0.0,0.0,0.0,0.0,0.0,0.0,0.0,0.0,0.0,0.0,0.0,0.0,0.0,0.0,0.0,0.0,0.0,0.0,0.0,0.0,0.0,0.0,0.0,0.0,0.0,0.0,0.0,0.0,0.0,0.0,0.0,0.0,0.0,0.0,0.0,0.0,0.0,0.0,0.0,0.0,0.0,0.0,0.0,0.0,0.0,0.0,0.0,0.0,0.0,0.0,0.0,0.9565,1.0741,1.1676,1.193,0.0,0.0,0.0,0.0,0.0,0.0,0.0,0.0,0.0,0.0,0.0,0.0,0.0,0.0,0.0,0.0,0.0,0.0,0.0,0.0,0.0,0.0,0.0,0.0,0.0,0.0,0.0,0.0,0.0,0.0,0.0,0.0,0.0,0.0,0.0,0.0,0.0,0.0,0.0,0.0,0.0,0.0,0.0,0.0,0.0,0.0,0.0,0.0,0.0,0.0,0.0,0.0,0.0,0.0,0.0,0.0,0.0,0.0,0.0,0.0,0.0,0.0,0.0,0.0,0.0,0.0,0.0,0.0,0.0,0.0,0.0,0.0,0.0,0.0,0.0,0.0,0.0,0.0,0.0,0.0,0.0,0.0,0.0,0.0,0.0,0.0,0.0,0.0,0.0,0.0,0.0,0.0,0.0,0.0,0.0,0.0,0.0,0.0,0.0,0.0,0.0,0.0,0.0,0.0,0.0,0.0,0.0,0.0,0.0,0.0,0.8566,0.9601,1.1581,1.2571,1.2648,1.1804,0.0,0.0,0.0,0.0,0.0,0.0,0.0,0.0,0.0,0.0,0.0,0.0,0.0,0.0,0.0,0.0,0.0,0.0,0.0,0.0,0.0,0.0,0.0,0.0,0.0,0.0,0.0,0.0,0.0,0.0,0.0,0.0,0.0,0.0,0.0,0.0,0.0,0.0,0.0,0.0,0.0,0.0,0.0,0.0,0.0,0.0,0.0,0.0,0.0,0.0,0.0,0.0,0.0,0.0,0.0,0.0,0.0,0.0,0.0,0.0,0.0,0.0,0.0,0.0,0.0,0.0,0.0,0.0,0.0,0.0,0.0,0.0,0.0,0.0,0.0,0.0,0.0,0.0,0.0,0.0,0.0,0.0,0.0,0.0,0.0,0.0,0.0,0.0,0.0,0.0,0.0,0.0,0.0,0.0,0.0,0.0,0.0,0.0,0.0,0.0,0.0,0.0,0.0,0.0,0.0,0.0,0.0,0.0,0.8455,0.8655,0.9985,1.2558,1.3482,1.3537,0.0,0.0,0.0,0.0,0.0,0.0,0.0,0.0,0.0,0.0,0.0,0.0,0.0,0.0,0.0,0.0,0.0,0.0,0.0,0.0,0.0,0.0,0.0,0.0,0.0,0.0,0.0,0.0,0.0,0.0,0.0,0.0,0.0,0.0,0.0,0.0,0.0,0.0,0.0,0.0,0.0,0.0,0.0,0.0,0.0,0.0,0.0,0.0,0.0,0.0,0.0,0.0,0.0,0.0,0.0,0.0,0.0,0.0,0.0,0.0,0.0,0.0,0.0,0.0,0.0,0.0,0.0,0.0,0.0,0.0,0.0,0.0,0.0,0.0,0.0,0.0,0.0,0.0,0.0,0.0,0.0,0.0,0.0,0.0,0.0,0.0,0.0,0.0,0.0,0.0,0.0,0.0,0.0,0.0,0.0,0.0,0.0,0.0,0.0,0.0,0.0,0.0,0.0,0.0,0.0,0.0,0.0,0.0,0.0,0.781,1.0052,1.2008,1.3535,1.3877,1.3589,0.0,0.0,0.0,0.0,0.0,0.0,0.0,0.0,0.0,0.0,0.0,0.0,0.0,0.0,0.0,0.0,0.0,0.0,0.0,0.0,0.0,0.0,0.0,0.0,0.0,0.0,0.0,0.0,0.0,0.0,0.0,0.0,0.0,0.0,0.0,0.0,0.0,0.0,0.0,0.0,0.0,0.0,0.0,0.0,0.0,0.0,0.0,0.0,0.0,0.0,0.0,0.0,0.0,0.0,0.0,0.0,0.0,0.0,0.0,0.0,0.0,0.0,0.0,0.0,0.0,0.0,0.0,0.0,0.0,0.0,0.0,0.0,0.0,0.0,0.0,0.0,0.0,0.0,0.0,0.0,0.0,0.0,0.0,0.0,0.0,0.0,0.0,0.0,0.0,0.0,0.0,0.0,0.0,0.0,0.0,0.0,0.0,0.0,0.0,0.0,0.0,0.0,0.0,0.0,0.0,0.0,0.0,0.0,0.0,0.8282,1.1718,1.3735,1.4101,1.4595,1.417,0.0,0.0,0.0,0.0,0.0,0.0,0.0,0.0,0.0,0.0,0.0,0.0,0.0,0.0,0.0,0.0,0.0,0.0,0.0,0.0,0.0,0.0,0.0,0.0,0.0,0.0,0.0,0.0,0.0,0.0,0.0,0.0,0.0,0.0,0.0,0.0,0.0,0.0,0.0,0.0,0.0,0.0,0.0,0.0,0.0,0.0,0.0,0.0,0.0,0.0,0.0,0.0,0.0,0.0,0.0,0.0,0.0,0.0,0.0,0.0,0.0,0.0,0.0,0.0,0.0,0.0,0.0,0.0,0.0,0.0,0.0,0.0,0.0,0.0,0.0,0.0,0.0,0.0,0.0,0.0,0.0,0.0,0.0,0.0,0.0,0.0,0.0,0.0,0.0,0.0,0.0,0.0,0.0,0.0,0.0,0.0,0.0,0.0,0.0,0.0,0.0,0.0,0.0,0.0,0.0,0.0,0.0,0.0,0.7414,1.0089,1.3453,1.4898,1.4233,1.5688,1.5317,0.0,0.0,0.0,0.0,0.0,0.0,0.0,0.0,0.0,0.0,0.0,0.0,0.0,0.0,0.0,0.0,0.0,0.0,0.0,0.0,0.0,0.0,0.0,0.0,0.0,0.0,0.0,0.0,0.0,0.0,0.0,0.0,0.0,0.0,0.0,0.0,0.0,0.0,0.0,0.0,0.0,0.0,0.0,0.0,0.0,0.0,0.0,0.0,0.0,0.0,0.0,0.0,0.0,0.0,0.0,0.0,0.0,0.0,0.0,0.0,0.0,0.0,0.0,0.0,0.0,0.0,0.0,0.0,0.0,0.0,0.0,0.0,0.0,0.0,0.0,0.0,0.0,0.0,0.0,0.0,0.0,0.0,0.0,0.0,0.0,0.0,0.0,0.0,0.0,0.0,0.0,0.0,0.0,0.0,0.0,0.0,0.0,0.0,0.0,0.0,0.0,0.0,0.0,0.0,0.0,0.0,0.0,0.0,0.0,1.1921,1.413,1.5761,1.6658,1.606,1.5007,0.0,0.0,0.0,0.0,0.0,0.0,0.0,0.0,0.0,0.0,0.0,0.0,0.0,0.0,0.0,0.0,0.0,0.0,0.0,0.0,0.0,0.0,0.0,0.0,0.0,0.0,0.0,0.0,0.0,0.0,0.0,0.0,0.0,0.0,0.0,0.0,0.0,0.0,0.0,0.0,0.0,0.0,0.0,0.0,0.0,0.0,0.0,0.0,0.0,0.0,0.0,0.0,0.0,0.0,0.0,0.0,0.0,0.0,0.0,0.0,0.0,0.0,0.0,0.0,0.0,0.0,0.0,0.0,0.0,0.0,0.0,0.0,0.0,0.0,0.0,0.0,0.0,0.0,0.0,0.0,0.0,0.0,0.0,0.0,0.0,0.0,0.0,0.0,0.0,0.0,0.0,0.0,0.0,0.0,0.0,0.0,0.0,0.0,0.0,0.0,0.0,0.0,0.0,0.0,0.0,0.0,0.0,0.0,0.0,1.5584,1.6679,1.7739,1.8809,1.7424,1.5941,1.4393,0.0,0.0,0.0,0.0,0.0,0.0,0.0,0.0,0.0,0.0,0.0,0.0,0.0,0.0,0.0,0.0,0.0,0.0,0.0,0.0,0.0,0.0,0.0,0.0,0.0,0.0,0.0,0.0,0.0,0.0,0.0,0.0,0.0,0.0,0.0,0.0,0.0,0.0,0.0,0.0,0.0,0.0,0.0,0.0,0.0,0.0,0.0,0.0,0.0,0.0,0.0,0.0,0.0,0.0,0.0,0.0,0.0,0.0,0.0,0.0,0.0,0.0,0.0,0.0,0.0,0.0,0.0,0.0,0.0,0.0,0.0,0.0,0.0,0.0,0.0,0.0,0.0,0.0,0.0,0.0,0.0,0.0,0.0,0.0,0.0,0.0,0.0,0.0,0.0,0.0,0.0,0.0,0.0,0.0,0.0,0.0,0.0,0.0,0.0,0.0,0.0,0.0,0.0,0.0,0.0,0.0,0.0,0.0,2.0663,2.0836,2.0831,2.0604,1.966,1.7928,0.0,0.0,0.0,0.0,0.0,0.0,0.0,0.0,0.0,0.0,0.0,0.0,0.0,0.0,0.0,0.0,0.0,0.0,0.0,0.0,0.0,0.0,0.0,0.0,0.0,0.0,0.0,0.0,0.0,0.0,0.0,0.0,0.0,0.0,0.0,0.0,0.0,0.0,0.0,0.0,0.0,0.0,0.0,0.0,0.0,0.0,0.0,0.0,0.0,0.0,0.0,0.0,0.0,0.0,0.0,0.0,0.0,0.0,0.0,0.0,0.0,0.0,0.0,0.0,0.0,0.0,0.0,0.0,0.0,0.0,0.0,0.0,0.0,0.0,0.0,0.0,0.0,0.0,0.0,0.0,0.0,0.0,0.0,0.0,0.0,0.0,0.0,0.0,0.0,0.0,0.0,0.0,0.0,0.0,0.0,0.0,0.0,0.0,0.0,0.0,0.0,0.0,0.0,0.0,0.0,0.0,0.0,0.0,0.0,2.3185,2.5133,2.5188,2.3269,2.1726,1.9694,0.0,0.0,0.0,0.0,0.0,0.0,0.0,0.0,0.0,0.0,0.0,0.0,0.0,0.0,0.0,0.0,0.0,0.0,0.0,0.0,0.0,0.0,0.0,0.0,0.0,0.0,0.0,0.0,0.0,0.0,0.0,0.0,0.0,0.0,0.0,0.0,0.0,0.0,0.0,0.0,0.0,0.0,0.0,0.0,0.0,0.0,0.0,0.0,0.0,0.0,0.0,0.0,0.0,0.0,0.0,0.0,0.0,0.0,0.0,0.0,0.0,0.0,0.0,0.0,0.0,0.0,0.0,0.0,0.0,0.0,0.0,0.0,0.0,0.0,0.0,0.0,0.0,0.0,0.0,0.0,0.0,0.0,0.0,0.0,0.0,0.0,0.0,0.0,0.0,0.0,0.0,0.0,0.0,0.0,0.0,0.0,0.0,0.0,0.0,0.0,0.0,0.0,0.0,0.0,0.0,0.0,0.0,0.0,2.1757,2.5837,2.8054,2.8426,2.6943,2.4505,2.1826,0.0,0.0,0.0,0.0,0.0,0.0,0.0,0.0,0.0,0.0,0.0,0.0,0.0,0.0,0.0,0.0,0.0,0.0,0.0,0.0,0.0,0.0,0.0,0.0,0.0,0.0,0.0,0.0,0.0,0.0,0.0,0.0,0.0,0.0,0.0,0.0,0.0,0.0,0.0,0.0,0.0,0.0,0.0,0.0,0.0,0.0,0.0,0.0,0.0,0.0,0.0,0.0,0.0,0.0,0.0,0.0,0.0,0.0,0.0,0.0,0.0,0.0,0.0,0.0,0.0,0.0,0.0,0.0,0.0,0.0,0.0,0.0,0.0,0.0,0.0,0.0,0.0,0.0,0.0,0.0,0.0,0.0,0.0,0.0,0.0,0.0,0.0,0.0,0.0,0.0,0.0,0.0,0.0,0.0,0.0,0.0,0.0,0.0,0.0,0.0,0.0,0.0,0.0,0.0,0.0,0.0,0.0,0.0,2.3319,2.8213,2.9991,3.0877,3.0747,2.7482,2.4021,0.0,0.0,0.0,0.0,0.0,0.0,0.0,0.0,0.0,0.0,0.0,0.0,0.0,0.0,0.0,0.0,0.0,0.0,0.0,0.0,0.0,0.0,0.0,0.0,0.0,0.0,0.0,0.0,0.0,0.0,0.0,0.0,0.0,0.0,0.0,0.0,0.0,0.0,0.0,0.0,0.0,0.0,0.0,0.0,0.0,0.0,0.0,0.0,0.0,0.0,0.0,0.0,0.0,0.0,0.0,0.0,0.0,0.0,0.0,0.0,0.0,0.0,0.0,0.0,0.0,0.0,0.0,0.0,0.0,0.0,0.0,0.0,0.0,0.0,0.0,0.0,0.0,0.0,0.0,0.0,0.0,0.0,0.0,0.0,0.0,0.0,0.0,0.0,0.0,0.0,0.0,0.0,0.0,0.0,0.0,0.0,0.0,0.0,0.0,0.0,0.0,0.0,0.0,0.0,0.0,0.0,0.0,0.0,2.541,2.9129,3.1467,3.2622,3.2542,2.9192,2.547,0.0,0.0,0.0,0.0,0.0,0.0,0.0,0.0,0.0,0.0,0.0,0.0,0.0,0.0,0.0,0.0,0.0,0.0,0.0,0.0,0.0,0.0,0.0,0.0,0.0,0.0,0.0,0.0,0.0,0.0,0.0,0.0,0.0,0.0,0.0,0.0,0.0,0.0,0.0,0.0,0.0,0.0,0.0,0.0,0.0,0.0,0.0,0.0,0.8943,0.0,0.0,0.0,0.0,0.0,0.0,0.0,0.0,0.0,0.0,0.0,0.0,0.0,0.0,0.0,0.0,0.0,0.0,0.0,0.0,0.0,0.0,0.0,0.0,0.0,0.0,0.0,0.0,0.0,0.0,0.0,0.0,0.0,0.0,0.0,0.0,0.0,0.0,0.0,0.0,0.0,0.0,0.0,0.0,0.0,0.0,0.0,0.0,0.0,0.0,0.0,0.0,0.0,0.0,0.0,0.0,0.0,0.0,0.0,2.6862,3.057,3.2695,3.3553,3.3024,3.05,2.7147,0.0,0.0,0.0,0.0,0.0,0.0,0.0,0.0,0.0,0.0,0.0,0.0,0.0,0.0,0.0,0.0,0.0,0.0,0.0,0.0,0.0,0.0,0.0,0.0,0.0,0.0,0.0,0.0,0.0,0.0,0.0,0.0,0.0,0.0,0.0,0.0,0.0,0.0,0.0,0.0,0.0,0.0,0.0,0.0,0.0,0.0,0.0,0.0,0.0,0.0,0.0,0.0,0.0,0.0,0.0,0.0,0.0,0.0,0.0,0.0,0.0,0.0,0.0,0.0,0.0,0.0,0.0,0.0,0.0,0.0,0.0,0.0,0.0,0.0,0.0,0.0,0.0,0.0,0.0,0.0,0.0,0.0,0.0,0.0,0.0,0.0,0.0,0.0,0.0,0.0,0.0,0.0,0.0,0.0,0.0,0.0,0.0,0.0,0.0,0.0,0.0,0.0,0.0,0.0,0.0,0.0,0.0,2.4126,2.7863,3.1851,3.3563,3.3974,3.3114,3.1418,2.8511,2.4335,0.0,0.0,0.0,0.0,0.0,0.0,0.0,0.0,0.0,0.0,0.0,0.0,0.0,0.0,0.0,0.0,0.0,0.0,0.0,0.0,0.0,0.0,0.0,0.0,0.0,0.0,0.0,0.0,0.0,0.0,0.0,0.0,0.0,0.0,0.0,0.0,0.0,0.0,1.0917,1.2279,0.0,0.0,0.0,0.0,0.0,0.0,0.0,0.0,1.0636,0.0,0.0,0.0,0.0,0.0,0.0,0.0,0.0,0.0,0.0,0.0,0.0,0.0,0.0,0.0,0.0,0.0,0.0,0.0,0.0,0.0,0.0,0.0,0.0,0.0,0.0,0.0,0.0,0.0,0.0,0.0,0.0,0.0,0.0,0.0,0.0,0.0,0.0,0.0,0.0,0.0,0.0,0.0,0.0,0.0,0.0,0.0,0.0,0.0,0.0,0.0,0.0,0.0,0.0,0.0,0.0,2.1547,2.4975,2.8418,3.1916,3.358,3.3998,3.3081,3.1414,2.853,2.4337,0.0,0.0,0.0,0.0,0.0,0.0,0.0,0.0,0.0,0.0,0.0,0.0,0.0,0.0,0.0,0.0,0.0,0.0,0.0,0.0,0.0,0.0,0.0,0.0,0.0,0.0,0.0,0.0,0.0,0.0,0.0,0.0,0.0,0.0,0.0,0.0,0.0,0.0,0.0,1.3424,1.3917,0.0,0.0,0.0,0.0,0.0,0.0,0.0,0.0,1.2106,0.0,0.0,0.0,0.0,0.0,0.0,0.0,0.0,0.0,0.0,0.0,0.0,0.0,0.0,0.0,0.0,0.0,0.0,0.0,0.0,0.0,0.0,0.0,0.0,0.0,0.0,0.0,0.0,0.0,0.0,0.0,0.0,0.0,0.0,0.0,0.0,0.0,0.0,0.0,0.0,0.0,0.0,0.0,0.0,0.0,0.0,0.0,0.0,0.0,0.0,0.0,0.0,0.0,0.0,0.0,2.2353,2.6197,2.9563,3.2434,3.4137,3.4334,3.3028,3.1374,2.8311,0.0,0.0,0.0,0.0,0.0,0.0,0.0,0.0,0.0,0.0,0.0,0.0,0.0,0.0,0.0,0.0,0.0,0.0,0.0,0.0,0.0,0.0,0.0,0.0,0.0,0.0,0.0,0.0,0.0,0.0,0.0,0.0,0.0,0.0,0.0,0.0,0.0,0.0,0.0,0.0,1.4598,1.5424,1.5631,0.0,0.0,0.0,0.0,0.0,0.0,1.4016,1.3998,0.0,0.0,0.0,0.0,0.0,0.0,0.0,0.0,0.0,0.0,0.0,0.0,0.0,0.0,0.0,0.0,0.0,0.0,0.0,0.0,0.0,0.0,0.0,0.0,0.0,0.0,0.0,0.0,0.0,0.0,0.0,0.0,0.0,0.0,0.0,0.0,0.0,0.0,0.0,0.0,0.0,0.0,0.0,0.0,0.0,0.0,0.0,0.0,0.0,0.0,0.0,0.0,0.0,0.0,0.0,2.2914,2.709,3.0453,3.2871,3.4603,3.4648,3.2936,3.1361,2.8118,0.0,0.0,0.0,0.0,0.0,0.0,0.0,0.0,0.0,0.0,0.0,0.0,0.0,0.0,0.0,0.0,0.0,0.0,0.0,0.0,0.0,0.0,0.0,0.0,0.0,0.0,0.0,0.0,0.0,0.0,0.0,0.0,0.0,0.0,0.0,0.0,0.0,0.0,0.0,0.0,0.0,1.7054,1.7539,1.688,0.0,0.0,0.0,0.0,1.5634,1.6121,0.0,0.0,0.0,0.0,0.0,0.0,0.0,0.0,0.0,0.0,0.0,0.0,0.0,0.0,0.0,0.0,0.0,0.0,0.0,0.0,0.0,0.0,0.0,0.0,0.0,0.0,0.0,0.0,0.0,0.0,0.0,0.0,0.0,0.0,0.0,0.0,0.0,0.0,0.0,0.0,0.0,0.0,0.0,0.0,0.0,0.0,0.0,0.0,0.0,0.0,0.0,0.0,0.0,0.0,0.0,0.0,2.2786,2.6915,3.0263,3.2744,3.4457,3.4541,3.2929,3.1339,2.8133,0.0,0.0,0.0,0.0,0.0,0.0,0.0,0.0,0.0,0.0,0.0,0.0,0.0,0.0,0.0,0.0,0.0,0.0,0.0,0.0,0.0,0.0,0.0,0.0,0.0,0.0,0.0,0.0,0.0,0.0,0.0,0.0,0.0,0.0,0.0,0.0,0.0,0.0,0.0,0.0,0.0,1.8393,1.829,1.8083,1.7862,0.0,0.0,1.9843,1.9115,1.8649,0.0,0.0,0.0,0.0,0.0,0.0,0.0,0.0,0.0,0.0,0.0,0.0,0.0,0.0,0.0,0.0,0.0,0.0,0.0,0.0,0.0,0.0,0.0,0.0,0.0,0.0,0.0,0.0,0.0,0.0,0.0,0.0,0.0,0.0,0.0,0.0,0.0,0.0,0.0,0.0,0.0,0.0,0.0,0.0,0.0,0.0,0.0,0.0,0.0,0.0,0.0,0.0,0.0,0.0,0.0,1.8981,2.2642,2.7166,3.0505,3.253,3.4247,3.4388,3.2823,3.1261,2.8104,0.0,0.0,0.0,0.0,0.0,0.0,0.0,0.0,0.0,0.0,0.0,0.0,0.0,0.0,0.0,0.0,0.0,0.0,0.0,0.0,0.0,0.0,0.0,0.0,0.0,0.0,0.0,0.0,0.0,0.0,0.0,0.0,0.0,0.0,0.0,0.0,0.0,0.0,0.0,0.0,0.0,0.0,1.8463,1.9115,0.0,0.0,0.0,2.1938,2.0601,0.0,0.0,0.0,0.0,0.0,0.0,0.0,0.0,0.0,0.0,0.0,0.0,0.0,0.0,0.0,0.0,0.0,0.0,0.0,0.0,0.0,0.0,0.0,0.0,0.0,0.0,0.0,0.0,0.0,0.0,0.0,0.0,0.0,0.0,0.0,0.0,0.0,0.0,0.0,0.0,0.0,0.0,0.0,0.0,0.0,0.0,0.0,0.0,0.0,0.0,0.0,0.0,0.0,0.0,0.0,0.0,0.0,2.246,2.7312,3.0614,3.2278,3.3989,3.4175,3.2695,3.1187,0.0,0.0,0.0,0.0,0.0,0.0,0.0,0.0,0.0,0.0,0.0,0.0,0.0,0.0,0.0,0.0,0.0,0.0,0.0,0.0,0.0,0.0,0.0,0.0,0.0,0.0,0.0,0.6935,0.0,0.0,0.0,0.0,0.0,0.0,0.0,0.0,0.0,0.0,0.0,0.0,0.0,0.0,1.8429,1.9285,2.0447,2.1545,0.0,0.0,2.3866,2.2282,2.1947,2.1269,0.0,0.0,0.0,0.0,0.0,0.0,0.0,0.0,0.0,0.0,0.0,0.0,0.0,0.0,0.0,0.0,0.0,0.0,0.0,0.0,0.0,0.0,0.0,0.0,0.0,0.0,0.0,0.0,0.0,0.0,0.0,0.0,0.0,0.0,0.0,0.0,0.0,0.0,0.0,0.0,0.0,0.0,0.0,0.0,0.0,0.0,0.0,0.0,0.0,0.0,0.0,0.0,0.0,0.0,0.0,2.2343,2.7146,3.0414,3.2006,3.3738,3.3988,3.263,3.1098,2.8405,0.0,0.0,0.0,0.0,0.0,0.0,0.0,0.0,0.0,0.0,0.0,0.0,0.0,0.0,0.0,0.0,0.0,0.0,0.0,0.0,0.0,0.0,0.0,0.0,0.0,0.0,0.0,0.0,0.0,0.0,0.0,0.0,0.0,0.0,0.0,0.0,0.0,0.0,0.0,0.0,0.0,2.0257,2.1412,2.2359,2.3436,0.0,0.0,2.6051,2.499,2.4177,2.2904,2.0563,0.0,0.0,0.0,0.0,0.0,0.0,0.0,0.0,0.0,0.0,0.0,0.0,0.0,0.0,0.0,0.0,0.0,0.0,0.0,0.0,0.0,0.0,0.0,0.0,0.0,0.0,0.0,0.0,0.0,0.0,0.0,0.0,0.0,0.0,0.0,0.0,0.0,0.0,0.0,0.0,0.0,0.0,0.0,0.0,0.0,0.0,0.0,0.0,0.0,0.0,0.0,0.0,0.0,1.9082,2.2168,2.6971,3.0234,3.1782,3.3512,3.4033,3.3235,3.1754,2.9084,0.0,0.0,0.0,0.0,0.0,0.0,0.0,0.0,0.0,0.0,0.0,0.0,0.0,0.0,0.0,0.0,0.0,0.0,0.0,0.0,0.0,0.0,0.0,0.0,0.0,0.0,0.0,0.0,1.0723,1.1414,1.0957,0.0,0.0,0.0,0.0,0.0,0.0,0.0,0.0,0.0,0.0,2.0976,2.1326,2.3265,0.0,0.0,2.7143,2.6415,2.5382,2.4125,2.2764,2.1214,1.9676,0.0,0.0,0.0,0.0,0.0,0.0,0.0,0.0,0.0,0.0,0.0,0.0,0.0,0.0,0.0,0.0,0.0,0.0,0.0,0.0,0.0,0.0,0.0,0.0,0.0,0.0,0.0,0.0,0.0,0.0,0.0,0.0,0.0,0.0,0.0,0.0,0.0,0.0,0.0,0.0,0.0,0.0,0.0,0.0,0.0,0.0,0.0,0.0,0.0,0.0,0.0,0.0,1.9119,2.2413,2.7009,3.0097,3.1626,3.3337,3.402,3.3535,3.2114,2.9737,0.0,0.0,0.0,0.0,0.0,0.0,0.0,0.0,0.0,0.0,0.0,0.0,0.0,0.0,0.0,0.0,0.0,0.0,0.0,0.0,0.0,0.0,0.0,0.0,0.0,0.0,0.0,0.0,1.1185,1.1359,1.077,0.0,0.0,0.0,0.0,0.0,0.0,0.0,0.0,0.0,0.0,2.2422,2.2916,2.4651,2.6549,2.8397,2.7683,2.6581,2.5564,2.4255,2.3024,2.2044,0.0,0.0,0.0,0.0,0.0,0.0,0.0,0.0,0.0,0.0,0.0,0.0,0.0,0.0,0.0,0.0,0.0,0.0,0.0,0.0,0.0,0.0,0.0,0.0,0.0,0.0,0.0,0.0,0.0,0.0,1.1235,0.0,0.0,0.0,0.0,0.0,0.0,0.0,0.0,0.0,0.0,0.0,0.0,0.0,0.0,0.0,0.0,0.0,0.0,0.0,0.0,0.0,0.0,1.933,2.3143,2.7202,3.0009,3.147,3.3198,3.3895,3.3418,3.2055,3.0202,2.7831,0.0,0.0,0.0,0.0,0.0,0.0,0.0,0.0,0.0,0.0,0.0,0.0,0.0,0.0,0.0,0.0,0.0,0.0,0.0,0.0,0.0,0.0,0.0,0.0,0.0,0.0,1.1433,1.1657,1.13,0.0,0.0,0.0,0.0,0.0,0.0,0.0,0.0,0.0,0.0,2.3051,2.4874,2.6872,2.6695,2.6724,2.7755,2.7363,2.6673,2.5819,2.4939,2.4062,0.0,0.0,0.0,0.0,0.0,0.0,0.0,0.0,0.0,0.0,0.0,0.0,0.0,0.0,0.0,0.0,0.0,0.0,0.0,0.0,0.0,0.0,0.0,0.0,0.0,0.0,0.0,1.4073,1.399,0.0,0.0,0.0,0.0,0.0,0.0,0.0,0.0,0.0,0.0,0.0,2.0144,2.0557,0.0,0.0,0.0,0.0,0.0,0.0,0.0,0.0,0.0,0.0,0.0,0.0,1.9838,2.3217,2.7163,2.9954,3.1415,3.3073,3.3975,3.3971,3.2647,3.011,2.6336,0.0,0.0,0.0,0.0,0.0,0.0,0.0,0.0,0.0,0.0,0.0,0.0,0.0,0.0,0.0,0.0,0.0,0.0,0.0,0.0,0.0,0.0,0.0,0.0,0.0,1.1578,0.0,0.0,0.0,0.0,0.0,0.0,0.0,0.0,0.0,0.0,0.0,1.9271,2.1529,2.3311,2.4965,2.6479,2.7526,2.7877,0.0,0.0,0.0,0.0,0.0,0.0,0.0,0.0,0.0,0.0,0.0,0.0,0.0,0.0,1.9608,1.7006,1.5424,1.444,1.4185,0.0,0.0,0.0,0.0,0.0,0.0,0.0,0.0,0.0,0.0,0.0,0.0,0.0,0.0,0.0,0.0,1.5157,0.0,0.0,0.0,0.0,0.0,0.0,0.0,0.0,2.0867,2.2023,2.2327,2.3003,2.3091,0.0,2.104,1.8797,0.0,0.0,0.0,0.0,0.0,0.0,0.0,0.0,2.0965,2.4072,2.7727,3.0189,3.1409,3.304,3.4011,3.4232,3.2702,2.9982,2.5936,2.2674,1.9883,0.0,0.0,0.0,0.0,0.0,0.0,0.0,0.0,0.0,0.0,0.0,0.0,0.0,0.0,0.0,0.0,0.0,0.0,0.0,0.0,0.0,0.0,0.0,1.2347,0.0,0.0,0.0,0.0,0.0,0.0,0.0,0.0,0.0,1.643,1.8465,2.0648,2.2678,2.42,2.5524,2.6593,0.0,0.0,0.0,0.0,0.0,0.0,0.0,2.3637,2.4072,2.3202,2.2118,2.1125,2.1908,2.3645,2.6477,0.0,0.0,2.0488,1.9073,1.8336,1.837,1.842,1.8505,1.8707,1.9929,2.0246,0.0,0.0,0.0,0.0,0.0,0.0,0.0,0.0,1.9202,1.9214,0.0,1.7606,0.0,0.0,0.0,0.0,0.0,0.0,0.0,0.0,2.3201,2.4374,2.5095,2.5261,2.5353,2.5263,2.3864,2.2723,2.1748,1.8384,0.0,0.0,0.0,0.0,0.0,0.0,2.2611,2.5736,2.8802,3.0731,3.1452,3.3028,3.3979,3.4098,3.2288,2.9864,2.6852,2.5092,2.2717,1.9509,1.77,0.0,0.0,0.0,0.0,0.0,0.0,0.0,0.0,0.0,0.0,0.0,0.0,0.0,0.0,0.0,0.0,0.0,0.0,0.0,0.0,1.3833,0.0,0.0,0.0,0.0,0.0,0.0,0.0,0.0,0.0,0.0,1.8628,2.0045,2.2022,2.454,0.0,0.0,0.0,0.0,2.7021,2.6395,2.5679,2.5178,2.506,2.4371,2.4338,2.5709,0.0,0.0,2.2174,2.3925,2.6199,2.8562,2.7611,2.5819,2.3661,2.3165,2.3094,2.3176,2.3222,2.3577,2.3971,2.4653,2.5097,2.3095,0.0,0.0,0.0,0.0,2.0094,2.0749,2.1222,2.1775,2.2025,2.1954,2.1041,0.0,0.0,0.0,0.0,0.0,0.0,2.1329,2.3589,2.4605,2.5472,2.6229,2.6471,2.662,2.6627,2.5787,2.497,2.4154,2.2538,2.059,1.8343,0.0,0.0,0.0,0.0,2.4197,2.7267,2.9307,3.0974,3.2234,3.3301,3.3657,3.3337,3.1843,3.041,2.9125,2.6509,2.4388,2.2869,2.0591,0.0,0.0,0.0,0.0,0.0,0.0,0.0,0.0,0.0,0.0,0.0,0.0,0.0,0.0,0.0,0.0,0.0,0.0,0.0,1.4772,1.5536,1.5213,0.0,0.0,0.0,0.0,0.0,0.0,0.0,0.0,0.0,2.2973,2.304,2.3467,0.0,0.0,2.5686,2.5931,2.5882,2.597,2.646,0.0,0.0,0.0,2.6809,2.6752,2.719,2.6765,2.6178,2.5673,2.6467,2.768,2.923,2.9139,2.8584,2.7893,2.6519,2.5656,2.5668,2.5808,2.618,2.7022,2.7926,2.8495,2.6525,2.41,2.2515,2.1898,2.2048,2.2842,2.3514,2.4095,2.4576,2.4795,2.4707,2.3739,2.3068,2.2576,2.1571,0.0,0.0,0.0,2.3767,2.6002,2.6414,2.704,2.777,2.7712,2.7681,2.7676,2.6754,2.6031,2.5559,2.483,2.3616,2.1963,0.0,0.0,2.2946,2.4032,2.5799,2.8278,2.9901,3.1317,3.2543,3.3398,3.3565,3.2974,3.2214,3.125,3.0049,2.8317,2.6553,2.4835,2.2968,2.0767,0.0,0.0,0.0,0.0,0.0,0.0,0.0,0.0,0.0,0.0,0.0,0.7909,1.0202,0.0,0.0,0.0,1.434,1.5917,1.7366,1.7646,0.0,0.0,0.0,0.0,0.0,0.0,0.0,1.98,2.1896,2.3867,2.546,2.5369,2.5401,2.604,2.6162,2.6116,2.5969,0.0,2.5835,2.7238,2.8279,2.8631,2.7876,2.7725,2.7803,2.8185,2.8411,2.848,2.8415,2.8627,2.9066,2.9813,2.9973,2.9901,2.992,2.8772,2.7885,2.7964,2.803,2.8332,2.9007,3.0149,3.1046,2.9229,2.8246,2.4899,2.416,2.5249,2.5304,2.6083,2.734,2.734,2.7374,2.7237,2.5926,2.5304,2.5163,2.377,0.0,0.0,2.5281,2.6387,2.8454,2.8388,2.875,2.942,2.8833,2.8554,2.8519,2.7126,2.6462,2.6442,2.5736,2.5441,2.5509,2.3909,2.3527,2.44,2.5913,2.7486,2.9068,3.0606,3.177,3.256,3.3435,3.3583,3.2995,3.3123,3.2257,3.0325,3.0311,2.8999,2.6077,2.5026,2.3353,2.0838,0.0,0.0,0.0,0.0,0.0,0.0,0.0,0.0,0.0,0.0,0.0,0.0,0.0,0.0,0.0,1.7135,0.0,2.0304,1.9826,0.0,0.0,0.0,1.7862,1.8015,1.9786,2.1399,2.2404,0.0,0.0,0.0,0.0,2.7417,2.7603,2.7502,2.7235,2.6876,2.6211,2.6426,2.8165,2.9386,2.9447,2.7931,2.7681,2.7995,2.876,2.955,2.9948,3.0144,3.0065,3.0202,3.0499,3.0221,2.9941,3.0146,2.9848,2.9861,2.9713,2.9772,2.9894,3.016,3.1327,3.2542,3.0087,2.9653,2.8254,2.7569,2.7464,2.793,2.8322,2.8646,2.8646,2.8646,2.8612,2.8323,2.7928,2.7394,2.6386,2.6489,2.7462,2.7332,2.7862,2.8902,2.8918,2.9021,2.9192,2.9127,2.9128,2.9059,2.8299,2.7899,2.7847,2.6593,2.5993,2.6002,2.5799,2.6036,2.6693,2.7734,2.9071,3.0729,3.1604,3.2461,3.3239,3.3524,3.3661,3.3657,3.3312,3.301,3.2711,3.1728,3.0662,2.9408,2.7399,2.539,2.3447,2.0266,0.0,0.0,0.0,0.0,0.0,0.0,0.0,0.0,0.0,1.1646,1.3376,0.0,1.5277,0.0,1.847,1.9798,2.0679,2.062,0.0,0.0,2.0858,2.0797,2.0,2.2565,2.4684,2.5317,2.6408,2.7245,2.7648,2.7313,2.7035,2.7073,2.6662,2.6275,2.6025,2.6635,2.7074,2.7335,2.7944,2.8433,2.829,2.8472,2.8717,2.9065,2.9282,2.9683,3.0469,3.019,3.0028,3.0431,2.9793,2.9276,2.9267,2.9369,2.9396,2.9337,2.9576,3.0045,3.0728,3.1225,3.221,3.0736,3.059,3.0183,2.9832,2.9531,2.9542,2.9743,3.0031,3.0048,3.0031,3.0014,2.973,2.9206,2.8544,2.8049,2.8287,2.9003,2.8965,2.9353,3.0014,3.0031,3.0031,3.0014,2.9784,2.9651,2.9634,2.8989,2.8665,2.8613,2.7892,2.7406,2.7111,2.7735,2.8091,2.8188,2.8765,2.9894,3.1592,3.2353,3.294,3.3339,3.3516,3.3712,3.3934,3.3734,3.3623,3.3592,3.2935,3.2115,3.1153,2.9504,2.7818,2.6072,2.3109,2.0627,0.0,0.0,0.0,0.0,0.0,0.0,0.0,0.0,0.0,0.0,0.0,1.8395,0.0,2.1633,0.0,2.3366,2.3461,2.3505,2.3634,2.4079,2.3979,2.3005,2.5216,2.6762,2.6634,2.7284,2.7709,2.7661,2.6909,2.6182,2.5738,2.5219,2.5275,2.6271,2.7031,2.7039,2.597,2.6119,2.6788,2.7705,2.8096,2.8337,2.8463,2.8512,2.8844,2.974,2.9589,2.9375,2.9456,2.8922,2.8309,2.806,2.8349,2.8599,2.8616,2.8764,2.9189,2.9932,3.0424,3.1325,3.119,3.119,3.119,3.119,3.1157,3.0514,3.0598,3.119,3.119,3.119,3.1157,3.0531,2.9888,2.9297,2.9281,2.9636,3.0243,3.0243,3.0598,3.1173,3.119,3.119,3.1173,3.0548,3.0243,3.019,2.9482,2.9145,2.9128,2.9172,2.8886,2.8391,2.9346,2.9608,2.924,2.9437,3.0392,3.2035,3.2829,3.3183,3.3129,3.3371,3.3643,3.3921,3.4117,3.4083,3.3742,3.3921,3.3432,3.2158,3.1393,3.0209,2.8542,2.6113,2.3975,0.0,2.0557,0.0,0.0,0.0,0.0,0.0,0.0,0.0,0.0,2.0585,2.2102,2.4271,2.5218,2.5963,2.659,2.6634,2.671,2.6908,2.7009,2.687,2.6464,2.75,2.786,2.6854,2.7484,2.7681,2.6806,2.5945,2.4946,2.3983,2.3447,2.3853,2.5816,2.6376,2.5898,2.422,2.4307,2.522,2.6406,2.6914,2.7075,2.7219,2.7319,2.7709,2.8469,2.8478,2.8269,2.7873,2.7596,2.7251,2.6573,2.7049,2.755,2.7642,2.766,2.7906,2.8604,2.9285,2.9731,3.119,3.119,3.119,3.119,3.1173,3.1055,3.1072,3.119,3.119,3.119,3.119,3.1055,3.0939,3.0784,3.0787,3.0835,3.0987,3.0987,3.1072,3.119,3.119,3.119,3.119,3.1055,3.0987,3.0937,3.0243,2.9869,2.9888,2.9372,2.9052,2.8934,2.9248,2.9713,3.0266,0.0,0.0,0.0,3.265,3.2719,3.2737,3.2912,3.3208,3.3591,3.3847,0.0,3.4325,3.4566,3.4355,3.3618,3.2877,0.0,0.0,0.0,0.0,0.0,0.0,0.0,0.0,0.0,0.0,0.0,2.4329,2.4505,2.2943,2.4136,2.5196,2.5649,2.6352,2.6837,2.6912,2.6835,2.6999,2.7531,2.7523,2.7819,2.8635,2.834,2.7454,2.6043,2.6193,2.6034,2.5044,2.409,2.3185,2.2331,2.1759,2.158,2.1893,2.3074,2.3352,2.2521,2.3303,2.4271,2.4898,2.5243,2.5451,2.5506,2.5736,2.6168,2.675,2.6919,2.6579,2.5841,2.5812,2.5801,2.5179,2.5719,2.6404,2.6505,2.6639,2.7013,2.7875,2.8147,2.8191,3.119,0.0,3.119,3.119,0.0,3.119,3.119,3.119,3.119,3.119,3.119,3.119,3.119,3.119,3.119,3.119,3.119,3.119,3.119,3.119,3.119,3.1171,3.1095,3.1095,3.1075,3.1035,3.0681,3.0513,3.0479,3.0111,2.976,2.9389,2.9893,3.0156,3.0212,3.0553,3.1189,3.2109,3.2144,3.2179,3.2249,3.2402,3.2682,3.309,0.0,0.0,0.0,0.0,0.0,0.0,0.0,0.0,0.0,0.0,0.0,2.752,2.6645,2.596,2.5518,2.5866,2.6241,2.6506,2.7785,2.7817,2.6016,2.656,2.6924,2.6815,2.7343,2.7631,2.7502,2.7319,2.7286,2.7509,2.743,2.7918,2.9076,2.7995,2.6149,2.4342,2.441,2.4372,2.3356,2.2527,2.176,2.1086,2.0758,2.051,2.0346,2.1077,2.1657,2.1636,2.2446,2.326,2.3569,2.3872,2.4128,2.4276,2.4534,2.4867,2.5297,2.5398,2.5173,2.4482,2.4496,2.45,2.4436,2.4906,2.5486,2.5744,2.5944,2.6281,2.6937,2.721,2.7321,3.119,3.119,3.119,3.119,3.119,3.119,3.119,3.119,0.0,0.0,0.0,3.119,3.119,3.1154,3.1171,3.1151,3.1168,3.1134,3.1171,3.1171,3.119,3.1114,3.0995,3.1012,3.0935,3.0871,3.0871,3.0834,3.0794,3.0744,3.0403,2.9916,3.052,3.0486,2.9875,3.0356,3.0834,3.1167,3.1397,3.1564,3.1675,3.1789,3.2039,3.2412,3.2556,3.2804,3.3176,3.331,3.3464,3.363,3.3032,3.2572,3.2362,3.0956,3.0036,2.9789,2.9084,2.865,2.8672,2.8628,2.8841,2.9389,2.9522,2.9194,2.8326,2.8063,2.7797,2.7459,2.7733,2.7822,2.7632,2.7396,2.7182,2.6971,2.681,2.7298,2.8576,2.695,2.4509,2.2401,2.2578,2.2745,2.1825,2.1229,2.0646,2.0271,2.0169,2.0042,1.9927,2.0308,2.0833,2.1248,2.1762,2.2137,2.2383,2.2703,2.3009,2.3238,2.3522,2.3831,2.4036,2.4156,2.4015,2.3767,2.3595,2.3724,2.3909,2.4349,2.4775,2.5166,2.5419,2.5666,2.6045,2.6434,2.6759,3.119,3.119,3.119,3.119,3.119,3.119,3.119,3.119,3.119,3.119,3.119,3.119,3.1151,3.1015,3.1015,3.1012,3.0952,3.1012,3.1015,0.0,3.1151,3.1131,3.1012,3.1012,3.0895,3.0749,3.0733,3.0613,3.0431,3.0356,3.0264,3.0147,3.0267,3.0128,2.9821,2.9691,2.9607,2.9639,3.036,3.0751,3.0788,3.0858,3.1043,3.1317,3.1506,3.1724,3.195,3.2081,3.219,3.2273,3.2222,3.1876,3.1187,3.0796,3.0282,2.9528,2.9138,2.8934,2.8949,2.88,2.8825,2.9074,2.8356,2.8039,2.8487,2.8256,2.7735,2.6922,2.6603,2.6425,2.622,2.5981,2.5761,2.5615,2.5324,2.5523,2.6402,2.4812,2.2848,2.0851,2.1086,2.1298,2.0682,2.0334,2.0118,1.9939,1.9901,1.9862,1.9875,2.0169,2.0549,2.0809,2.0944,2.1053,2.1334,2.1589,2.1945,2.203,2.2663,2.3201,2.348,2.3653,2.3702,2.3616,2.3595,2.3616,2.3696,2.3903,2.4261,2.4625,2.4914,2.5211,2.5642,2.5992,2.6277,3.119,3.119,3.119,3.119,3.119,3.119,3.119,3.119,3.119,3.119,3.119,3.1131,3.1035,3.0935,3.0875,3.0773,3.0692,3.0794,3.0834,3.0851,3.0992,3.0932,3.0753,3.0654,3.0514,3.0338,3.0172,3.0032,2.9924,2.9733,2.9639,2.9605,2.9461,2.9264,2.9097,2.8966,2.8904,2.8834,2.9461,2.9827,2.9838,2.9865,3.0004,3.0245,3.0315,3.0486,3.0662,3.0726,3.0809,3.0908,3.0874,3.0647,3.0211,2.9969,2.9585,2.9069,2.8847,2.8697,2.862,2.8331,2.8094,2.7895,2.6994,2.6287,2.6045,2.6487,2.6317,2.5346,2.4939,2.4598,2.4247,2.4001,2.3783,2.362,2.3313,2.3197,2.3263,2.2571,2.1387,2.027,2.0308,2.0384,2.0042,1.9914,1.9862,1.9798,1.9798,1.9798,1.9798,1.9939,2.0156,2.0346,2.0498,2.0585,2.0684,2.1093,2.1423,2.1664,2.2296,2.2867,2.3216,2.348,2.3573,2.3595,2.3595,2.3595,2.3595,2.3818,2.4109,2.4421,2.4731,2.5091,2.5508,2.5917,2.6312,3.1362,3.119,3.119,3.119,3.119,3.119,3.119,3.119,3.1171,3.1151,3.1112,3.1032,3.0895,3.0753,3.0593,3.0485,3.0363,3.0447,3.051,3.0589,3.0708,3.063,3.0426,3.0284,3.0075,2.987,2.9627,2.9461,2.9364,2.9097,2.8935,2.8904,2.8716,2.8535,2.8455,2.8383,2.8326,2.8299,2.8574,2.885,2.9019,2.9019,2.908,2.9239,2.9262,2.9336,2.9466,2.9488,2.951,2.957,2.945,2.9285,2.9143,2.8785,2.8506,2.8238,2.8023,2.7805,2.7618,2.728,2.6876,2.6399,2.5569,2.461,2.3738,2.4172,2.4307,2.3495,2.3086,2.2732,2.239,2.2112,2.1895,2.1697,2.1472,2.1277,2.093,2.0696,2.0409,1.9914,1.9901,1.9926,1.9837,1.9798,1.9798,1.9798,1.9798,1.9798,1.9798,1.9798,1.9837,1.9952,2.0156,2.0245,2.0283,2.0709,2.1118,2.141,2.2119,2.2709,2.3127,2.3414,2.3573,2.3595,2.3595,2.3595,2.3616,2.376,2.4067,2.438,2.469,2.5088,2.5602,2.6025,2.6382,3.1819,3.1224,3.1207,3.119,3.119,3.119,3.119,3.1171,3.1072,3.0992,3.0932,3.0912,3.0695,3.0351,3.014,2.9968,2.9859,2.9881,3.0022,3.021,3.0253,3.0231,3.0189,2.9962,2.9728,2.9538,2.925,2.902,2.8811,2.8646,2.8518,2.8468,2.8332,2.8244,2.821,2.7999,2.7865,2.7855,2.7775,2.7959,2.8444,2.8493,2.8477,2.8501,2.8501,2.8486,2.8534,2.8525,2.8486,2.835,2.8192,2.7966,2.7695,2.7333,2.7038,2.6883,2.6357,2.5889,2.5549,2.5287,2.5079,2.4727,2.4104,2.335,2.2468,2.1983,2.1664,2.1485,2.1256,2.1062,2.0832,2.0721,2.0671,2.0658,2.0409,2.0156,2.0207,2.0003,1.9862,1.9824,1.9837,1.9798,1.9798,1.9798,1.9798,1.9798,1.9798,1.9798,1.9798,1.9798,1.9798,1.9824,1.9875,1.9888,1.9978,2.0308,2.0784,2.1115,2.1894,2.2558,2.2994,2.3348,2.3595,2.3595,2.3595,2.3595,2.3616,2.3739,2.3946,2.4338,2.469,2.5091,2.5735,2.6115,2.6311,3.2124,3.1802,3.1396,3.119,3.119,3.119,3.119,3.119,3.1072,3.0875,3.0651,3.0452,3.0241,2.9989,2.9722,2.9499,2.9387,2.9371,2.9499,2.9671,2.9738,2.9738,2.9627,2.9387,2.9182,2.8997,2.8732,2.8534,2.8389,2.8195,2.8033,2.7925,2.785,2.785,2.785,2.775,2.7675,2.7675,2.7625,2.77,2.7915,2.7925,2.794,2.794,2.7925,2.789,2.7815,2.7806,2.773,2.7488,2.7214,2.6953,2.6654,2.6176,2.5797,2.5577,2.5091,2.4681,2.445,2.4363,2.4189,2.3881,2.3292,2.2624,2.1865,2.1264,2.0796,2.0437,2.0346,2.0271,2.0169,2.008,2.0055,2.0029,1.9939,1.9901,1.9914,1.9862,1.9798,1.9798,1.9798,1.9798,1.9798,1.9798,1.9798,1.9798,1.9798,1.9798,1.9798,1.9798,1.9798,1.9837,1.9939,1.9991,1.9965,2.0283,2.0734,2.1226,2.1931,2.2618,2.3031,2.3348,2.3595,2.3595,2.3595,2.3595,2.3595,2.3782,2.4024,2.4421,2.5068,2.5605,2.6043,2.6257,2.6398,3.2649,3.2226,3.1515,3.119,3.119,3.119,3.1171,3.1114,3.0975,3.0695,3.0342,2.9984,2.9661,2.9438,2.9182,2.9013,2.8912,2.8873,2.8951,2.9082,2.9152,2.9167,2.9059,2.885,2.8661,2.8518,2.8244,2.8073,2.8039,2.7865,2.769,2.7625,2.7585,2.769,2.7869,2.7844,2.7959,2.8124,2.7989,2.7884,2.7854,2.7639,2.7549,2.7549,2.7499,2.7423,2.7299,2.7299,2.7144,2.6832,2.6513,2.6163,2.5797,2.5244,2.4806,2.4434,2.4115,2.3852,2.37,2.3671,2.3582,2.3322,2.2824,2.2226,2.1559,2.1018,2.0453,1.9912,1.9901,1.9926,1.9824,1.9798,1.9798,1.9798,1.9798,1.9798,1.9798,1.9798,1.9798,1.9798,1.9798,1.9798,1.9798,1.9798,1.9798,1.9798,1.9798,1.9798,1.9798,1.9798,1.9798,1.9862,2.0131,2.0233,2.0131,2.0447,2.0896,2.1396,2.2072,2.2709,2.3112,2.3407,2.3595,2.3595,2.3595,2.3595,2.361,2.3818,2.4198,2.469,2.5336,2.5987,2.6239,2.6433,2.652,3.3596,3.2276,3.1515,3.119,3.119,3.119,3.1131,3.1015,3.0814,3.0447,3.0006,2.9538,2.9044,2.8606,2.8574,2.8494,2.8444,2.8308,2.8374,2.855,2.8501,2.8486,2.8527,2.8341,2.8235,2.821,2.7965,2.779,2.765,2.7625,2.76,2.7585,2.7645,2.7944,2.8412,2.8532,2.8861,2.9277,2.8831,2.8532,2.8431,2.7805,2.7431,2.7376,2.7299,2.7155,2.7029,2.7003,2.6806,2.6351,2.6069,2.5674,2.5076,2.458,2.4073,2.3569,2.345,2.336,2.3198,2.3168,2.3168,2.3075,2.2686,2.2096,2.1606,2.1094,2.0528,1.9874,1.9836,1.9798,1.9798,1.9798,1.9798,1.9798,1.9798,1.9798,1.9798,1.9798,1.9798,1.9798,1.9798,1.9798,1.9798,1.9798,1.9798,1.9798,1.9798,1.9824,1.9837,1.9798,1.9862,2.0054,2.0309,2.0498,2.0321,2.0648,2.1118,2.1636,2.2249,2.2799,2.312,2.3363,2.3501,2.3595,2.3595,2.3595,2.3631,2.3909,2.4369,2.4926,2.5643,2.6176,2.6629,2.6639,2.691,3.3647,3.2242,3.1495,3.119,3.119,3.119,3.1131,3.0975,3.0692,3.0321,2.9815,2.9273,2.8779,2.8301,2.8107,2.8073,2.8128,2.7989,2.8039,2.8162,2.8152,2.8152,2.8146,2.8014,2.794,2.7915,2.7765,2.765,2.7585,2.7585,2.7585,2.769,2.8049,2.8368,2.8637,2.9026,2.9382,2.952,2.9229,2.8851,2.8505,2.7971,2.7504,2.7029,2.7067,2.6896,2.6566,2.6551,2.6297,2.5769,2.555,2.5188,2.4593,2.4015,2.3586,2.3258,2.321,2.3168,2.3108,2.3095,2.3095,2.3083,2.2932,2.2585,2.2046,2.1506,2.0953,2.0465,1.9987,1.9823,1.9798,1.9798,1.9798,1.9798,1.9798,1.9798,1.9798,1.9798,1.9798,1.9798,1.9798,1.9798,1.9798,1.9798,1.9798,1.9798,1.9862,1.9926,1.9926,1.9862,1.9914,2.0271,2.0723,2.1068,2.0995,2.1106,2.1447,2.1992,2.2549,2.2949,2.3297,2.3436,2.3573,2.3595,2.3595,2.3702,2.3803,2.4332,2.4748,2.5199,2.5945,2.6831,2.7154,2.7415,2.7908,3.3761,3.2611,3.185,3.141,3.119,3.1134,3.1035,3.0875,3.0526,3.0049,2.9528,2.899,2.8486,2.8088,2.784,2.779,2.784,2.779,2.779,2.788,2.7865,2.7865,2.784,2.779,2.7725,2.774,2.765,2.7585,2.7585,2.7585,2.7585,2.763,2.8263,2.8712,2.8981,2.9549,2.9953,3.009,2.9833,2.9409,2.8978,2.8277,2.7654,2.7101,2.6842,2.6527,2.6136,2.6055,2.5728,2.5175,2.4978,2.465,2.4044,2.3556,2.3241,2.3138,2.3095,2.3095,2.3095,2.3095,2.3095,2.3095,2.3083,2.2869,2.233,2.1794,2.1255,2.0729,2.0176,1.9798,1.9798,1.9798,1.9798,1.9798,1.9798,1.9798,1.9798,1.9798,1.9798,1.9798,1.9798,1.9798,1.9798,1.9798,1.9798,1.9798,1.9914,2.0016,2.0029,1.9991,2.0093,2.0548,2.1215,2.1554,2.1674,2.1793,2.1898,2.2388,2.2768,2.3127,2.337,2.3523,2.3595,2.3595,2.3681,2.3831,2.4202,2.476,2.5219,2.5641,2.6618,2.7649,2.8007,2.8376,2.882,3.4066,3.3339,3.2615,3.187,3.1326,3.1089,3.0895,3.0651,3.0236,2.9705,2.9159,2.8621,2.821,2.784,2.7675,2.76,2.7625,2.7625,2.7625,2.7625,2.7625,2.7625,2.7625,2.7625,2.7625,2.7625,2.76,2.7585,2.7585,2.7585,2.7585,2.7705,2.8323,2.8966,2.9592,3.0163,3.0821,3.1063,3.0593,3.0254,3.0093,2.8767,2.7837,2.7389,2.6643,2.6059,2.5702,2.5536,2.5161,2.4595,2.4408,2.4044,2.3569,2.3241,2.3095,2.3095,2.3095,2.3095,2.3095,2.3095,2.3095,2.3095,2.3095,2.2895,2.2431,2.1895,2.137,2.0842,2.025,1.9861,1.9823,1.9798,1.9798,1.9798,1.9798,1.9798,1.9798,1.9798,1.9798,1.9798,1.9798,1.9798,1.9798,1.9798,1.9798,1.9824,1.9952,2.0067,2.0156,2.0207,2.046,2.1008,2.165,2.2147,2.231,2.2457,2.2595,2.2762,2.3038,2.3341,2.3436,2.3566,2.3595,2.3616,2.3831,2.4051,2.5341,2.587,2.6122,2.6636,2.7649,2.8455,2.8798,2.9134,2.9565,3.4353,3.3998,3.2801,3.2175,3.1867,3.1291,3.0834,3.0526,3.007,2.9506,2.8951,2.8462,2.8088,2.7815,2.765,2.7585,2.7585,2.7585,2.7585,2.7585,2.7585,2.7585,2.7585,2.7585,2.7585,2.7585,2.7585,2.7585,2.7585,2.7585,2.7585,2.7794,2.8738,2.9367,2.9681,3.0627,3.1287,3.1291,3.1027,3.0543,2.9871,2.9261,2.8397,2.7243,2.668,2.6092,2.5285,2.516,2.4821,2.4261,2.4187,2.3936,2.348,2.3198,2.3095,2.3095,2.3095,2.3095,2.3095,2.3095,2.3095,2.3095,2.3095,2.3045,2.2832,2.2347,2.1807,2.128,2.0754,2.0289,1.9911,1.9798,1.9798,1.9798,1.9798,1.9798,1.9798,1.9798,1.9798,1.9798,1.9798,1.9798,1.9798,1.9798,1.9798,1.985,2.008,2.0258,2.0207,2.0511,2.097,2.153,2.218,2.2632,2.2686,2.2799,2.2994,2.3068,2.3282,2.3414,2.3523,2.3588,2.3595,2.3767,2.3979,2.4818,2.6122,2.6796,2.698,2.7656,2.8605,2.9154,2.9508,2.9892,3.0292,3.4742,3.4426,3.3512,3.2912,3.2579,3.1946,3.1465,3.1013,3.0283,2.9624,2.9051,2.8351,2.794,2.775,2.765,2.7585,2.7585,2.7585,2.7585,2.7585,2.7585,2.7585,2.7585,2.7585,2.7585,2.7585,2.7585,2.7585,2.7585,2.76,2.772,2.8139,2.9082,2.9741,2.9983,3.0913,3.1438,3.1292,3.1087,3.0631,2.9927,2.9417,2.8695,2.7609,2.6845,2.6085,2.5315,2.5027,2.4563,2.4024,2.3806,2.3569,2.33,2.3168,2.3095,2.3095,2.3095,2.3095,2.3095,2.3095,2.3095,2.3095,2.3095,2.3095,2.3007,2.2606,2.2133,2.1807,2.1091,2.0541,2.0214,1.9899,1.9823,1.9798,1.9798,1.9798,1.9798,1.9798,1.9798,1.9798,1.9798,1.9798,1.9798,1.9798,1.9824,1.9914,2.0169,2.0409,2.0397,2.081,2.141,2.2016,2.2618,2.2904,2.2934,2.3127,2.3385,2.3429,2.3494,2.3523,2.3573,2.3595,2.3616,2.4,2.4271,2.5591,2.685,2.7264,2.7598,2.8566,2.9479,2.9967,3.0376,3.0605,3.092,3.5199,3.4573,3.4489,3.3929,3.324,3.2889,3.2397,3.1885,3.0783,2.997,2.9329,2.8546,2.7966,2.7805,2.7839,2.7764,2.766,2.7585,2.7585,2.7585,2.7585,2.7585,2.7585,2.7585,2.7585,2.7585,2.7585,2.7585,2.7585,2.76,2.7944,2.8532,2.9232,2.9894,3.0447,3.1167,3.1409,3.119,3.094,3.0583,3.0165,2.9419,2.875,2.8265,2.7183,2.6257,2.5664,2.4929,2.4274,2.3675,2.3348,2.3185,2.3138,2.3095,2.3095,2.3095,2.3095,2.3095,2.3095,2.3095,2.3095,2.3095,2.3095,2.3095,2.3032,2.2719,2.2397,2.2196,2.1418,2.0817,2.0616,2.0251,1.9924,1.9811,1.9798,1.9798,1.9798,1.9798,1.9798,1.9798,1.9798,1.9798,1.9798,1.9798,1.9862,2.0003,2.022,2.0447,2.066,2.108,2.1817,2.2457,2.3083,2.315,2.3216,2.329,2.3501,2.3523,2.3588,2.361,2.3616,2.3638,2.409,2.4456,2.4854,2.6208,2.7352,2.7868,2.8566,2.9509,3.0252,3.0821,3.1055,3.1134,3.1173,3.5453,3.5166,3.4594,3.4124,3.3684,3.2955,3.2321,3.1765,3.1051,3.045,2.993,2.9489,2.9113,2.9022,2.8517,2.8338,2.8274,2.7854,2.7585,2.7585,2.7585,2.7585,2.7585,2.7585,2.7585,2.7585,2.7585,2.7585,2.7585,2.763,2.7964,2.8592,2.931,2.9909,3.0522,3.1182,3.1278,3.0969,3.0762,3.0326,2.9822,2.9434,2.8895,2.8266,2.7707,2.6881,2.5867,2.4694,2.3966,2.3616,2.33,2.3095,2.3095,2.3095,2.3095,2.3095,2.3095,2.3095,2.3095,2.3095,2.3095,2.3095,2.3095,2.3095,2.3095,2.2982,2.2694,2.241,2.197,2.1506,2.0905,2.0553,2.0289,1.9874,1.9798,1.9798,1.9798,1.9798,1.9798,1.9798,1.9823,1.9849,1.9861,1.9849,1.9888,2.0042,2.0296,2.0623,2.0858,2.142,2.2184,2.2934,2.3443,2.3473,2.3473,2.3523,2.3551,2.3573,2.3631,2.3674,2.3696,2.3696,2.4502,2.5323,2.5422,2.6428,2.7758,2.871,2.9577,3.0238,3.0709,3.1112,3.1114,3.1173,3.121,3.5549,3.5458,3.4925,3.4547,3.4143,3.3472,3.2805,3.2117,3.1408,3.0876,3.0422,2.99,2.9675,2.9547,2.9175,2.9026,2.8951,2.8618,2.8401,2.8308,2.8286,2.8025,2.7739,2.7585,2.7585,2.7585,2.76,2.7549,2.7599,2.7752,2.8234,2.8851,2.9545,3.0214,3.0827,3.1228,3.1263,3.0851,3.0582,3.0113,2.9446,2.9149,2.8743,2.8216,2.7858,2.7064,2.5819,2.459,2.3789,2.3539,2.3271,2.3095,2.3095,2.3095,2.3095,2.3095,2.3095,2.3095,2.3095,2.3095,2.3095,2.3095,2.3095,2.3095,2.3095,2.3095,2.292,2.2694,2.2443,2.2008,2.1468,2.0993,2.0453,1.9924,1.9837,1.9862,1.9824,1.9798,1.9936,2.0062,2.0189,2.0189,2.0162,2.0162,2.0167,2.0233,2.0472,2.0797,2.1129,2.1817,2.2486,2.3172,2.3573,2.3566,2.3523,2.3551,2.3595,2.3616,2.3803,2.3824,2.3846,2.3888,2.4744,2.557,2.5937,2.664,2.8,2.9185,2.9847,3.0446,3.0931,3.1193,3.1213,3.1252,3.1249,3.5408,3.5305,3.5234,3.4899,3.4341,3.4068,3.3374,3.2674,3.1828,3.1262,3.0842,3.0153,3.0026,2.9774,2.9789,2.9669,2.9642,2.9418,2.9268,2.9072,2.8889,2.8491,2.7877,2.7921,2.7957,2.7927,2.7788,2.772,2.7839,2.8142,2.8606,2.9156,2.9875,3.0552,3.0997,3.1336,3.1176,3.0702,3.0326,2.9806,2.9131,2.8748,2.8417,2.8128,2.765,2.6929,2.5855,2.4688,2.3863,2.3433,2.3228,2.3125,2.3095,2.3095,2.3095,2.3095,2.3095,2.3095,2.3095,2.3095,2.3095,2.3095,2.3095,2.3095,2.3095,2.3095,2.307,2.3007,2.2644,2.241,2.2115,2.136,2.0658,2.0166,2.0105,1.9965,1.9914,1.99,2.0139,2.063,2.0731,2.0806,2.0794,2.0718,2.0636,2.0604,2.0781,2.0957,2.1348,2.1912,2.2563,2.3253,2.3501,2.3595,2.3573,2.3595,2.3616,2.3659,2.3952,2.4078,2.4114,2.4328,2.4997,2.5626,2.6154,2.7069,2.833,2.9297,2.996,3.047,3.0883,3.1131,3.1274,3.1329,3.1329,3.437,3.4048,3.4484,3.43,3.372,3.3377,3.2964,3.2449,3.2023,3.1723,3.1513,3.1207,3.1032,3.1002,3.0494,3.0257,3.0101,2.9688,2.918,2.8904,2.8779,2.8635,2.844,2.862,2.8779,2.8761,2.8628,2.8504,2.8481,2.8443,2.8852,2.942,2.9711,3.025,3.0808,3.0999,3.0881,3.0312,2.9946,2.9418,2.8812,2.8406,2.8177,2.8026,2.7552,2.6912,2.6144,2.5127,2.424,2.3667,2.3288,2.3095,2.3095,2.3095,2.3095,2.3095,2.3095,2.3095,2.3095,2.3095,2.3095,2.3095,2.3095,2.3095,2.3095,2.3095,2.3095,2.3095,2.2982,2.2766,2.247,2.1621,2.1128,2.086,2.0643,2.0424,2.0348,2.0578,2.0807,2.0955,2.127,2.1443,2.1348,2.0957,2.0918,2.103,2.1102,2.1196,2.1589,2.2077,2.2655,2.3334,2.3501,2.3595,2.3595,2.3638,2.376,2.3867,2.4141,2.4364,2.4385,2.4779,2.546,2.5994,2.6452,2.7448,2.8339,2.9237,2.9903,3.0359,3.0801,3.1118,3.1312,3.1387,3.1521,3.3504,3.3432,3.3616,3.351,3.3177,3.2911,3.2547,3.215,3.1953,3.1813,3.1655,3.1539,3.1496,3.1481,3.1137,3.0901,3.0612,2.9987,2.9552,2.9274,2.9036,2.9089,2.9421,2.9368,2.9331,2.8941,2.8636,2.8482,2.8312,2.8497,2.8665,2.8961,2.9413,2.9832,3.0224,3.0477,3.0296,2.9808,2.9481,2.9008,2.8327,2.8066,2.7967,2.7861,2.7391,2.6919,2.6658,2.5398,2.4602,2.4056,2.3487,2.3095,2.3095,2.3095,2.3095,2.3095,2.3095,2.3095,2.3095,2.3095,2.3095,2.3095,2.3095,2.3095,2.3095,2.3095,2.3095,2.3095,2.3088,2.2971,2.2703,2.2485,2.204,2.1851,2.1799,2.1623,2.1375,2.1328,2.1419,2.1596,2.2043,2.2204,2.2071,2.157,2.1351,2.1511,2.1262,2.1385,2.2006,2.244,2.2783,2.3253,2.348,2.3595,2.3616,2.3717,2.3909,2.412,2.441,2.4589,2.469,2.525,2.5921,2.6314,2.6674,2.7045,2.7905,2.8838,2.9704,3.0192,3.0618,3.107,3.1406,3.1559,3.1709,3.2603,3.287,3.269,3.2643,3.266,3.252,3.2191,3.1813,3.1756,3.167,3.1539,3.1496,3.1467,3.1452,3.1437,3.1365,3.0881,3.021,2.9534,2.9305,2.9107,2.9324,2.9748,2.9711,2.9416,2.8531,2.873,2.8551,2.8451,2.8371,2.8623,2.8467,2.8969,2.9366,2.9501,2.9747,2.9685,2.9184,2.8931,2.8527,2.7855,2.7689,2.7656,2.7597,2.7256,2.6953,2.6624,2.5639,2.4717,2.4589,2.3639,2.3206,2.3095,2.3095,2.3095,2.3095,2.3095,2.3095,2.3095,2.3095,2.3095,2.3095,2.3138,2.3138,2.318,2.3198,2.3198,2.3198,2.3203,2.3183,2.3016,2.3076,2.3063,2.2977,2.3216,2.3045,2.2548,2.2068,2.235,2.2431,2.2983,2.3319,2.2905,2.2393,2.218,2.1927,2.168,2.1674,2.2278,2.2729,2.2986,2.3231,2.348,2.3696,2.3754,2.3931,2.4094,2.441,2.4731,2.4871,2.5029,2.5589,2.6137,2.6453,2.681,2.7096,2.7518,2.8365,2.9161,2.9854,3.0436,3.0853,3.1281,3.1693,3.1911,3.1228,3.1306,3.1756,3.202,3.2117,3.1996,3.1826,3.1568,3.1568,3.1539,3.1496,3.1496,3.1438,3.1336,3.1336,3.0984,3.0267,2.9498,2.8962,2.8835,2.8803,2.9094,2.9295,2.9644,2.9495,2.9441,2.9517,2.9603,2.9374,2.9207,2.8677,2.8698,2.8663,2.8675,2.8771,2.9008,2.8962,2.8514,2.8287,2.7908,2.749,2.7268,2.7268,2.7356,2.71,2.688,2.646,2.5627,2.4804,2.4302,2.353,2.3201,2.3095,2.3095,2.3095,2.3095,2.3095,2.3095,2.3095,2.3095,2.3095,2.3138,2.3241,2.333,2.336,2.342,2.345,2.342,2.348,2.3564,2.3719,2.3806,2.3877,2.3865,2.3963,2.3817,2.3319,2.3492,2.355,2.3316,2.3906,2.4225,2.3511,2.2924,2.2576,2.228,2.2034,2.2052,2.2463,2.2806,2.3038,2.3282,2.3516,2.3732,2.3919,2.4135,2.4364,2.4735,2.5029,2.515,2.5419,2.5866,2.6296,2.6573,2.6708,2.6826,2.735,2.7994,2.8519,2.9163,2.9864,3.0619,3.1172,3.1686,3.2126,3.0148,3.0597,3.0876,3.134,3.1821,3.1813,3.167,3.1496,3.1496,3.1496,3.1467,3.1438,3.1322,3.1161,3.0984,3.0463,2.9608,2.8771,2.832,2.8225,2.8276,2.8603,2.8935,2.9392,2.9813,2.996,3.0134,2.9898,2.9478,2.8781,2.8507,2.825,2.8033,2.7875,2.7894,2.8105,2.8085,2.7822,2.7689,2.7423,2.7019,2.6863,2.6977,2.7045,2.7045,2.6891,2.6634,2.5952,2.5262,2.4697,2.3971,2.3477,2.3195,2.3095,2.3095,2.3095,2.3095,2.3108,2.3108,2.3095,2.3095,2.3138,2.33,2.342,2.3522,2.3641,2.373,2.37,2.3789,2.3953,2.4176,2.4442,2.4778,2.5105,2.5279,2.5021,2.4772,2.5297,2.4902,2.4187,2.4112,2.4128,2.3793,2.3274,2.2914,2.2622,2.2365,2.2512,2.2743,2.2941,2.315,2.348,2.3732,2.3967,2.4213,2.4467,2.4751,2.5091,2.5359,2.5511,2.5717,2.6118,2.6383,2.6641,2.6708,2.6708,2.6996,2.7571,2.8012,2.8556,2.9497,3.0393,3.1112,3.169,3.2124,2.9308,3.0199,3.0136,3.074,3.1635,3.1771,3.1641,3.1524,3.1496,3.1467,3.1438,3.1278,3.1087,3.0792,3.0297,2.9716,2.898,2.8157,2.7743,2.7646,2.7868,2.828,2.8751,2.9369,2.9819,3.0175,3.0151,2.9732,2.9338,2.8695,2.819,2.7982,2.7576,2.7278,2.7294,2.7423,2.7268,2.7235,2.7167,2.6998,2.6748,2.6645,2.6726,2.6875,2.6922,2.6863,2.6782,2.6217,2.5625,2.5046,2.4406,2.3777,2.3281,2.3138,2.3138,2.3168,2.3155,2.3168,2.3198,2.3168,2.3198,2.3198,2.3403,2.3552,2.3747,2.3953,2.4099,2.4041,2.4157,2.4303,2.4565,2.5133,2.5605,2.6013,2.6412,2.6651,2.6181,2.6161,2.6189,2.5456,2.4679,2.4234,2.4103,2.3617,2.3231,2.2932,2.2706,2.2793,2.3008,2.3098,2.3326,2.3696,2.3988,2.424,2.4528,2.4835,2.515,2.5513,2.5738,2.5919,2.6082,2.6329,2.6538,2.6691,2.6708,2.6742,2.6945,2.7165,2.764,2.8338,2.9314,3.0074,3.0612,3.1474,3.2162,2.8905,2.9863,2.9879,3.0508,3.1463,3.1539,3.1524,3.1496,3.1496,3.1438,3.1307,3.1102,3.0762,3.019,2.9306,2.8624,2.8059,2.753,2.7146,2.7195,2.7718,2.8142,2.8432,2.9341,2.9719,3.0023,2.9908,2.9934,2.9643,2.9062,2.8534,2.8129,2.769,2.7329,2.6969,2.7003,2.6977,2.6829,2.6794,2.6692,2.6568,2.6533,2.6568,2.6568,2.6602,2.6658,2.6697,2.6265,2.5764,2.5269,2.4582,2.393,2.3432,2.3198,2.3241,2.33,2.336,2.342,2.348,2.345,2.339,2.345,2.3671,2.3865,2.416,2.445,2.4622,2.4423,2.4593,2.475,2.4977,2.5439,2.5892,2.6365,2.6788,2.7063,2.6986,2.6737,2.6778,2.6584,2.5712,2.5111,2.4751,2.412,2.358,2.329,2.3097,2.3179,2.3297,2.3392,2.3696,2.4099,2.4307,2.4553,2.489,2.5208,2.5513,2.5901,2.6082,2.6242,2.6382,2.6486,2.6555,2.6674,2.6708,2.6758,2.6894,2.7114,2.7419,2.798,2.8818,2.9433,2.9976,3.0947,3.1987,2.9267,2.9732,3.0078,3.0713,3.1451,3.1496,3.1496,3.1467,3.1409,3.1278,3.1058,3.0732,3.016,2.932,2.8476,2.7987,2.757,2.7126,2.702,2.7249,2.7805,2.8285,2.8712,2.9352,2.9767,2.9779,2.9779,2.9818,2.968,2.929,2.8725,2.8486,2.783,2.7334,2.6968,2.681,2.6696,2.6624,2.6602,2.6555,2.6521,2.6487,2.6487,2.6487,2.6487,2.6589,2.6616,2.6536,2.5955,2.5435,2.4905,2.4376,2.3752,2.3437,2.348,2.3641,2.376,2.3789,2.376,2.373,2.37,2.3747,2.3982,2.4334,2.4738,2.509,2.5272,2.5203,2.5244,2.5342,2.5467,2.592,2.6312,2.6724,2.7037,2.7244,2.7382,2.7339,2.7215,2.7011,2.6732,2.5932,2.5173,2.4499,2.3852,2.3444,2.3312,2.3363,2.3566,2.3803,2.4162,2.4609,2.4735,2.4859,2.5246,2.5589,2.5832,2.6137,2.6313,2.6469,2.6555,2.6657,2.6674,2.6708,2.6775,2.6825,2.6892,2.706,2.7313,2.7767,2.8252,2.8887,2.9538,3.0356,3.1394,2.9804,2.9864,3.0313,3.0868,3.1496,3.1467,3.1453,3.1438,3.1234,3.1043,3.0703,3.0174,2.9362,2.8646,2.8119,2.7788,2.761,2.7201,2.7351,2.7713,2.8119,2.8524,2.8913,2.9465,2.9779,2.9779,2.9779,2.9779,2.9666,2.9402,2.9088,2.8875,2.8222,2.7618,2.7266,2.6999,2.6747,2.6521,2.6521,2.6487,2.6487,2.6487,2.6487,2.6487,2.6521,2.6636,2.6794,2.6837,2.6389,2.5767,2.5445,2.4872,2.3966,2.3628,2.3671,2.3848,2.3995,2.4128,2.4128,2.4099,2.4083,2.4229,2.4463,2.4908,2.5495,2.5783,2.5907,2.5865,2.5934,2.5988,2.6096,2.6377,2.6698,2.6974,2.7233,2.7412,2.7534,2.747,2.742,2.7285,2.6901,2.6249,2.5494,2.48,2.4215,2.3673,2.3523,2.3566,2.3824,2.412,2.4609,2.5045,2.5146,2.523,2.5554,2.5919,2.6173,2.6349,2.6521,2.6623,2.6657,2.6691,2.6691,2.6758,2.6825,2.7037,2.7181,2.7184,2.7202,2.7678,2.8147,2.8591,2.9208,2.9962,3.088,3.0447,3.0447,3.0507,3.0883,3.1496,3.1365,3.1322,3.1278,3.0955,3.0598,3.0099,2.9285,2.8795,2.8449,2.8114,2.7988,2.8272,2.8093,2.8044,2.8209,2.8586,2.88,2.9139,2.9515,2.9779,2.9779,2.9779,2.9779,2.9779,2.9691,2.9352,2.8913,2.8674,2.8097,2.7557,2.7153,2.6801,2.6575,2.6487,2.6487,2.6487,2.6487,2.6487,2.6487,2.6521,2.6739,2.7214,2.7201,2.6927,2.6201,2.5905,2.5292,2.4359,2.3887,2.3861,2.3907,2.4115,2.4319,2.4434,2.4507,2.4593,2.4793,2.5118,2.555,2.6136,2.6351,2.6431,2.6431,2.6484,2.651,2.6604,2.675,2.7026,2.7155,2.7335,2.7463,2.7575,2.756,2.751,2.745,2.7016,2.6348,2.5713,2.4977,2.4261,2.3716,2.3818,2.3846,2.4084,2.4431,2.4989,2.541,2.5508,2.5645,2.5885,2.6171,2.6365,2.6487,2.6607,2.6657,2.6691,2.6708,2.6708,2.6775,2.6841,2.7181,2.7461,2.7446,2.7491,2.7686,2.8042,2.8526,2.881,2.929,3.0367,3.1107,3.1107,3.105,3.1199,3.1496,3.138,3.1248,3.1029,3.0583,2.9839,2.9071,2.871,2.8435,2.817,2.8254,2.8172,2.8206,2.8133,2.831,2.8524,2.88,2.9088,2.9415,2.9616,2.9779,2.9779,2.9779,2.9779,2.9779,2.9779,2.9704,2.9428,2.9101,2.8487,2.7896,2.7241,2.6751,2.66,2.6487,2.6487,2.6487,2.6487,2.6487,2.6487,2.6487,2.6692,2.7045,2.7214,2.7007,2.6701,2.6303,2.5612,2.4836,2.4305,2.4005,2.3949,2.4144,2.4392,2.4637,2.4808,2.5132,2.555,2.5838,2.6163,2.6645,2.6829,2.6907,2.6959,2.6945,2.6945,2.6985,2.7104,2.7273,2.7335,2.7437,2.7524,2.7575,2.76,2.7345,2.7165,2.6851,2.6348,2.5728,2.5092,2.4395,2.3766,2.3964,2.4177,2.4431,2.4759,2.5355,2.5731,2.5809,2.5956,2.6189,2.6365,2.6555,2.6607,2.6674,2.6691,2.6708,2.6708,2.6725,2.6792,2.694,2.7274,2.7519,2.7683,2.7815,2.7975,2.8183,2.8495,2.8693,2.8846,2.969,3.1496,3.1467,3.1336,3.1351,3.1409,3.1131,3.0911,3.0643,2.9993,2.9107,2.8066,2.811,2.814,2.8042,2.8172,2.8558,2.8636,2.8725,2.89,2.9089,2.9277,2.9453,2.9666,2.9779,2.9779,2.9779,2.9779,2.9779,2.9779,2.9779,2.9754,2.9628,2.939,2.8913,2.8235,2.7341,2.6675,2.6524,2.6487,2.6487,2.6487,2.6487,2.6487,2.6521,2.6555,2.676,2.71,2.7343,2.7354,2.7067,2.6716,2.617,2.5438,2.4804,2.4325,2.4106,2.407,2.4276,2.4551,2.5118,2.5702,2.6165,2.6406,2.6712,2.7015,2.7222,2.7207,2.7295,2.7321,2.7335,2.731,2.7412,2.7437,2.7488,2.7499,2.7575,2.7575,2.757,2.7151,2.6821,2.6422,2.5997,2.5462,2.4866,2.4559,2.4043,2.4166,2.4451,2.4815,2.5188,2.568,2.5972,2.6136,2.6278,2.6418,2.6538,2.6624,2.664,2.6691,2.6708,2.6708,2.6708,2.6725,2.6758,2.7005,2.7367,2.7669,2.7947,2.8101,2.8255,2.8466,2.87,2.8785,2.8929,2.8998,3.1511,3.1467,3.1336,3.1278,3.1161,3.0613,3.0282,3.0068,2.9233,2.8352,2.757,2.7317,2.7694,2.816,2.8269,2.8737,2.9377,2.9553,2.9616,2.9616,2.9603,2.9741,2.9767,2.9779,2.9779,2.9779,2.9779,2.9779,2.9779,2.9779,2.9779,2.9779,2.9641,2.9315,2.8787,2.7795,2.704,2.6575,2.6499,2.6487,2.6487,2.6487,2.6487,2.6521,2.6624,2.6829,2.7201,2.7536,2.759,2.7482,2.7382,2.6702,2.5651,2.5203,2.4639,2.3988,2.3949,2.4086,2.4366,2.5425,2.6138,2.6621,2.6791,2.7026,2.7284,2.7386,2.7437,2.7473,2.7524,2.7549,2.7575,2.7575,2.7575,2.7575,2.76,2.7585,2.7585,2.7585,2.721,2.6836,2.6117,2.5437,2.4994,2.4593,2.4501,2.4359,2.4446,2.4715,2.5146,2.5511,2.5936,2.6187,2.6329,2.6435,2.6538,2.6624,2.6691,2.6708,2.6708,2.6708,2.6708,2.6708,2.6725,2.6758,2.7132,2.7595,2.7947,2.8259,2.8401,2.8543,2.8712,2.8881,2.897,2.9072,2.9195,3.1292,3.119,3.0925,3.0717,3.0493,3.0282,3.0007,2.9588,2.8624,2.7709,2.7143,2.722,2.7665,2.8131,2.8561,2.9013,2.9628,2.9779,2.9779,2.9779,2.9779,2.9779,2.9779,2.9779,2.9779,2.9779,2.9779,2.9779,2.9779,2.9779,2.9779,2.9779,2.9716,2.9239,2.8448,2.7607,2.704,2.6587,2.6487,2.6487,2.6487,2.6487,2.6487,2.6487,2.6624,2.6897,2.7302,2.7623,2.7827,2.7865,2.7831,2.7122,2.6129,2.565,2.4876,2.421,2.4054,2.4465,2.4964,2.5756,2.634,2.6753,2.7067,2.7233,2.7473,2.7524,2.7575,2.7575,2.7585,2.7585,2.76,2.76,2.7575,2.7575,2.7585,2.7585,2.7585,2.7585,2.7405,2.7031,2.6447,2.5447,2.4752,2.5153,2.515,2.504,2.5144,2.5135,2.5432,2.5698,2.6045,2.6311,2.6486,2.6572,2.6657,2.6691,2.6708,2.6708,2.6708,2.6708,2.6708,2.6708,2.6725,2.6725,2.7272,2.7829,2.8183,2.8523,2.87,2.8858,2.8935,2.8959,2.8982,2.9198,2.9517,3.1087,3.0895,3.0582,3.019,2.9839,2.9685,2.931,2.8624,2.7776,2.7121,2.6802,2.7075,2.7435,2.7869,2.8398,2.8963,2.9478,2.9729,2.9779,2.9779,2.9779,2.9779,2.9779,2.9779,2.9779,2.9779,2.9779,2.9779,2.9779,2.9779,2.9779,2.9779,2.9767,2.9289,2.8536,2.7896,2.7366,2.6927,2.67,2.6487,2.6487,2.6487,2.6487,2.6555,2.6726,2.6964,2.7335,2.7656,2.8006,2.8147,2.8007,2.7566,2.6813,2.6024,2.5302,2.4702,2.4369,2.475,2.53,2.5729,2.6313,2.6925,2.7144,2.7361,2.7534,2.7575,2.7575,2.76,2.7585,2.7585,2.7585,2.7585,2.7585,2.7585,2.7585,2.7585,2.7625,2.7625,2.74,2.7055,2.6558,2.5546,2.5037,2.5561,2.6005,2.5922,2.5879,2.5832,2.5728,2.5936,2.6152,2.6381,2.6555,2.664,2.6674,2.6691,2.6708,2.6708,2.6725,2.6725,2.6708,2.6708,2.6708,2.6825,2.7457,2.8041,2.8448,2.8749,2.8846,2.8935,2.8952,2.8975,2.8987,2.9209,2.9528,3.0836,3.0567,3.0205,2.9747,2.9233,2.8853,2.8078,2.704,2.685,2.6658,2.6499,2.6622,2.704,2.7492,2.7959,2.8574,2.9126,2.9603,2.9729,2.9779,2.9779,2.9779,2.9779,2.9779,2.9779,2.9779,2.9779,2.9779,2.9779,2.9779,2.9779,2.9779,2.9779,2.9428,2.8925,2.8298,2.772,2.7203,2.6725,2.6537,2.6487,2.6487,2.6487,2.6589,2.6773,2.7079,2.7416,2.7769,2.8118,2.832,2.8441,2.8071,2.7517,2.6765,2.6007,2.5352,2.4858,2.5074,2.5495,2.5934,2.6326,2.6963,2.7222,2.7437,2.7549,2.7585,2.7585,2.7585,2.7585,2.7585,2.7585,2.7585,2.7585,2.7585,2.7585,2.761,2.765,2.7515,2.727,2.6913,2.6458,2.5902,2.5928,2.634,2.68,2.6655,2.6536,2.635,2.6242,2.6099,2.6294,2.6434,2.6606,2.6674,2.6708,2.6708,2.6708,2.6708,2.6759,2.6775,2.6742,2.6758,2.6841,2.7116,2.7728,2.8224,2.8582,2.8798,2.8923,2.9,2.9133,2.9359,2.948,2.9131,2.9244,3.0864,3.026,2.9631,2.8976,2.832,2.763,2.7074,2.6782,2.6726,2.6624,2.6524,2.6914,2.7329,2.7896,2.8424,2.8988,2.939,2.9691,2.9754,2.9779,2.9779,2.9779,2.9779,2.9779,2.9779,2.9779,2.9779,2.9779,2.9779,2.9779,2.9779,2.9779,2.9779,2.9628,2.9252,2.8612,2.7946,2.7318,2.6813,2.6562,2.6487,2.6487,2.6487,2.6589,2.6807,2.7113,2.7469,2.7848,2.8197,2.8619,2.8587,2.8302,2.7888,2.7461,2.6962,2.6275,2.5854,2.5729,2.6136,2.6351,2.6657,2.7026,2.7284,2.7423,2.7549,2.7585,2.7585,2.7585,2.7585,2.7585,2.7585,2.7585,2.7585,2.7585,2.7585,2.765,2.7675,2.7675,2.7429,2.7418,2.6916,2.6916,2.6945,2.7217,2.759,2.7394,2.7151,2.691,2.6646,2.6447,2.6382,2.652,2.6606,2.6691,2.6708,2.6708,2.6708,2.6708,2.6775,2.6825,2.6842,2.6908,2.7021,2.7411,2.8041,2.8383,2.8626,2.8876,2.9227,2.9324,2.9457,2.9719,2.9871,2.9711,2.9853,3.0745,2.9797,2.9225,2.8483,2.759,2.6985,2.6679,2.6624,2.6624,2.6656,2.6839,2.7165,2.7582,2.8122,2.8612,2.9051,2.9377,2.9666,2.9779,2.9779,2.9779,2.9779,2.9779,2.9779,2.9779,2.9779,2.9779,2.9779,2.9779,2.9779,2.9779,2.9779,2.9779,2.9779,2.9515,2.8913,2.8235,2.757,2.7014,2.6612,2.6487,2.6487,2.6487,2.6555,2.6773,2.7113,2.7503,2.7868,2.8249,2.8716,2.8683,2.8675,2.8415,2.8253,2.7654,2.6974,2.6652,2.6447,2.6599,2.6698,2.6959,2.7181,2.7335,2.7463,2.7549,2.7585,2.7585,2.7585,2.7585,2.7585,2.7585,2.7585,2.7585,2.7585,2.7625,2.7675,2.775,2.784,2.7905,2.8013,2.7968,2.7973,2.8089,2.8326,2.8326,2.7995,2.7584,2.7175,2.6839,2.6536,2.6486,2.6555,2.664,2.6708,2.6708,2.6708,2.6725,2.6742,2.6809,2.6859,2.6941,2.707,2.7213,2.7728,2.8357,2.8607,2.8773,2.9284,2.9647,2.9714,3.0098,3.0746,3.0966,3.0824,3.1157,3.0559,2.9227,2.8924,2.8061,2.7045,2.6748,2.6649,2.6549,2.66,2.6826,2.7205,2.7406,2.7795,2.836,2.8875,2.9063,2.9377,2.9641,2.9779,2.9779,2.9779,2.9779,2.9779,2.9779,2.9779,2.9779,2.9779,2.9779,2.9779,2.9779,2.9779,2.9779,2.9779,2.9779,2.9666,2.9101,2.8499,2.7896,2.7203,2.665,2.6524,2.6487,2.6487,2.6555,2.6726,2.6998,2.7456,2.7822,2.8137,2.8605,2.8862,2.8962,2.9056,2.8944,2.8206,2.7684,2.7396,2.7185,2.7094,2.7076,2.717,2.7325,2.7412,2.7488,2.7549,2.7585,2.7585,2.7585,2.7585,2.7585,2.7585,2.7585,2.76,2.765,2.77,2.7825,2.7989,2.8146,2.8377,2.8537,2.8819,2.8814,2.8629,2.8768,2.8591,2.8381,2.8062,2.7535,2.6995,2.6623,2.6572,2.6606,2.6657,2.6708,2.6708,2.6708,2.6725,2.6775,2.6842,2.7023,2.7166,2.7293,2.7417,2.7989,2.8556,2.8743,2.8967,2.949,2.9934,3.019,3.0765,3.1807,3.2076,3.1969,3.2351,3.0499,2.9529,2.8415,2.7455,2.6773,2.6624,2.6773,2.7115,2.7092,2.7228,2.7431,2.8122,2.8562,2.8813,2.934,2.9578,2.9666,2.9779,2.9779,2.9779,2.9779,2.9779,2.9779,2.9779,2.9779,2.9779,2.9779,2.9779,2.9779,2.9779,2.9779,2.9779,2.9779,2.9779,2.9754,2.9201,2.8737,2.8197,2.7544,2.6914,2.6612,2.6559,2.6533,2.6658,2.6829,2.7154,2.7556,2.7901,2.8463,2.9008,2.9022,2.9275,2.9625,2.9468,2.926,2.8929,2.8176,2.7904,2.7695,2.7517,2.7454,2.7478,2.7524,2.7549,2.7575,2.76,2.7585,2.7585,2.7585,2.7585,2.7585,2.7625,2.765,2.77,2.7765,2.7989,2.8201,2.8479,2.8764,2.9111,2.9489,2.9421,2.9205,2.8982,2.8815,2.8567,2.829,2.7807,2.7097,2.6657,2.664,2.6657,2.6674,2.6708,2.6708,2.6725,2.6742,2.6842,2.6957,2.7151,2.7386,2.7657,2.7904,2.8264,2.8675,2.8828,2.9131,2.9703,3.0118,3.0527,3.1537,3.2649,3.3178,3.3176,3.3608,3.0453,2.9418,2.8069,2.7293,2.6993,2.6898,2.704,2.7366,2.7795,2.816,2.836,2.8762,2.9151,2.954,3.003,3.0156,3.0168,3.0168,3.0005,2.9867,2.9829,2.9779,2.9779,2.9779,2.9779,2.9779,2.9779,2.9779,2.9779,2.9779,2.9779,2.9779,2.9779,2.9779,2.9741,2.9402,2.9013,2.8499,2.7908,2.7356,2.6851,2.6697,2.658,2.6679,2.6884,2.7222,2.7623,2.7967,2.8495,2.9153,2.9481,2.9806,3.0056,2.9994,2.9767,2.9464,2.8999,2.8525,2.8269,2.7984,2.769,2.7629,2.7585,2.76,2.76,2.7585,2.7585,2.7585,2.7585,2.7585,2.7585,2.7585,2.7675,2.7725,2.7865,2.8079,2.8381,2.8724,2.8951,2.9205,2.9508,2.9663,2.9395,2.8962,2.8714,2.8068,2.7872,2.7587,2.6996,2.6725,2.6708,2.6725,2.6741,2.6725,2.6708,2.6725,2.6759,2.6892,2.7055,2.7338,2.7609,2.8073,2.844,2.8662,2.8785,2.8864,2.924,2.991,3.0527,3.1029,3.2212,3.3511,3.3896,3.4191,3.4418,3.0347,2.9048,2.7968,2.7457,2.7417,2.7417,2.7457,2.7695,2.8574,2.9302,2.9741,2.9453,2.9917,3.0419,3.0721,3.0721,3.0708,3.0708,3.0407,3.008,2.9967,2.9905,2.9829,2.9779,2.9779,2.9779,2.9779,2.9779,2.9779,2.9779,2.9779,2.9779,2.9779,2.9779,2.9779,2.9716,2.9428,2.8837,2.8273,2.7783,2.7316,2.6801,2.6678,2.6679,2.6816,2.7154,2.7623,2.8052,2.8495,2.9184,2.9946,3.0296,3.0417,3.0376,3.0129,2.9856,2.9508,2.8967,2.8515,2.8219,2.7932,2.7744,2.7634,2.7585,2.7585,2.7585,2.7585,2.7585,2.7585,2.7585,2.7585,2.76,2.7675,2.79,2.8063,2.8275,2.8645,2.8998,2.919,2.9373,2.9614,2.9833,2.9512,2.9073,2.8501,2.7836,2.7315,2.6945,2.6708,2.6725,2.6708,2.6791,2.6858,2.6808,2.6742,2.6775,2.6825,2.7006,2.7182,2.7504,2.7872,2.8304,2.8632,2.8846,2.897,2.8959,2.9514,3.0222,3.0839,3.142,3.2813,3.4011,3.429,3.4582,3.485,2.9821,2.8938,2.8687,2.836,2.7996,2.7959,2.8185,2.865,2.9315,2.9942,3.0457,3.0871,3.1122,3.1235,3.1235,3.1248,3.1248,3.1235,3.0922,3.0532,3.0369,3.0143,2.993,2.9842,2.9792,2.9779,2.9779,2.9779,2.9779,2.9779,2.9779,2.9779,2.9779,2.9779,2.9779,2.9704,2.9541,2.9001,2.8423,2.7858,2.7318,2.6936,2.6746,2.6875,2.7113,2.7536,2.7934,2.8308,2.8876,2.9526,3.0205,3.0582,3.0642,3.0538,3.0333,3.0173,2.984,2.9435,2.8988,2.855,2.8207,2.7829,2.772,2.7585,2.7585,2.7585,2.7585,2.7585,2.7585,2.7585,2.7585,2.7585,2.7675,2.8131,2.8438,2.87,2.9029,2.9305,2.9554,2.976,3.0016,2.9939,2.9656,2.9185,2.8697,2.8026,2.7316,2.6979,2.6708,2.6708,2.6725,2.6874,2.6989,2.6874,2.6792,2.6875,2.6941,2.712,2.7355,2.7745,2.8142,2.8531,2.8822,2.8959,2.8994,2.8994,2.9641,3.0343,3.1075,3.179,3.3317,3.4405,3.4693,3.4898,3.5089]}]]